<?xml version="1.0" encoding="utf-8"?>
<gpx xmlns:xsi="http://www.w3.org/2001/XMLSchema-instance" xmlns:xsd="http://www.w3.org/2001/XMLSchema" version="1.1" creator="Shapelink.com" xmlns="http://www.topografix.com/GPX/1/1" xmlns:gpxtpx="http://www.garmin.com/xmlschemas/TrackPointExtension/v1">
  <metadata>
    <name>Cycling 8/15/20 2:04 pm 18.50 km, 2020-08-15</name>
    <desc></desc>
    <author><name>Marian Moron</name></author> 
    <time>2020-08-15T14:04:15Z</time>
  </metadata>
  <trk>
    <name>Cycling 8/15/20 2:04 pm 18.50 km, 2020-08-15</name>
    <trkseg>
      <trkpt lat="51.228481" lon="4.449275">
        <ele>3.4</ele>
        <time>2020-08-15T14:04:15Z</time>
      </trkpt>
      <trkpt lat="51.228574" lon="4.449214">
        <ele>3.5</ele>
        <time>2020-08-15T14:04:23Z</time>
      </trkpt>
      <trkpt lat="51.228649" lon="4.449101">
        <ele>3.6</ele>
        <time>2020-08-15T14:04:28Z</time>
      </trkpt>
      <trkpt lat="51.228714" lon="4.44901">
        <ele>3.6</ele>
        <time>2020-08-15T14:04:32Z</time>
      </trkpt>
      <trkpt lat="51.228791" lon="4.448924">
        <ele>3.6</ele>
        <time>2020-08-15T14:04:36Z</time>
      </trkpt>
      <trkpt lat="51.228842" lon="4.448805">
        <ele>3.6</ele>
        <time>2020-08-15T14:04:41Z</time>
      </trkpt>
      <trkpt lat="51.228773" lon="4.44888">
        <ele>3.7</ele>
        <time>2020-08-15T14:04:49Z</time>
      </trkpt>
      <trkpt lat="51.228803" lon="4.448881">
        <ele>3.8</ele>
        <time>2020-08-15T14:05:00Z</time>
      </trkpt>
      <trkpt lat="51.228806" lon="4.448799">
        <ele>3.5</ele>
        <time>2020-08-15T14:05:19Z</time>
      </trkpt>
      <trkpt lat="51.228834" lon="4.448762">
        <ele>3.4</ele>
        <time>2020-08-15T14:05:20Z</time>
      </trkpt>
      <trkpt lat="51.228909" lon="4.448681">
        <ele>3.4</ele>
        <time>2020-08-15T14:05:25Z</time>
      </trkpt>
      <trkpt lat="51.228959" lon="4.448572">
        <ele>3.3</ele>
        <time>2020-08-15T14:05:29Z</time>
      </trkpt>
      <trkpt lat="51.229007" lon="4.448447">
        <ele>3.3</ele>
        <time>2020-08-15T14:05:33Z</time>
      </trkpt>
      <trkpt lat="51.22907" lon="4.44834">
        <ele>3.3</ele>
        <time>2020-08-15T14:05:39Z</time>
      </trkpt>
      <trkpt lat="51.229021" lon="4.448224">
        <ele>3.1</ele>
        <time>2020-08-15T14:05:43Z</time>
      </trkpt>
      <trkpt lat="51.228952" lon="4.448127">
        <ele>3</ele>
        <time>2020-08-15T14:05:46Z</time>
      </trkpt>
      <trkpt lat="51.228879" lon="4.448025">
        <ele>2.9</ele>
        <time>2020-08-15T14:05:49Z</time>
      </trkpt>
      <trkpt lat="51.228818" lon="4.447939">
        <ele>2.8</ele>
        <time>2020-08-15T14:05:52Z</time>
      </trkpt>
      <trkpt lat="51.228756" lon="4.447834">
        <ele>2.8</ele>
        <time>2020-08-15T14:05:56Z</time>
      </trkpt>
      <trkpt lat="51.228695" lon="4.447725">
        <ele>2.9</ele>
        <time>2020-08-15T14:05:59Z</time>
      </trkpt>
      <trkpt lat="51.22863" lon="4.447611">
        <ele>2.9</ele>
        <time>2020-08-15T14:06:02Z</time>
      </trkpt>
      <trkpt lat="51.228566" lon="4.447496">
        <ele>2.9</ele>
        <time>2020-08-15T14:06:05Z</time>
      </trkpt>
      <trkpt lat="51.228504" lon="4.447384">
        <ele>2.8</ele>
        <time>2020-08-15T14:06:08Z</time>
      </trkpt>
      <trkpt lat="51.228441" lon="4.447273">
        <ele>2.7</ele>
        <time>2020-08-15T14:06:11Z</time>
      </trkpt>
      <trkpt lat="51.228381" lon="4.447176">
        <ele>2.6</ele>
        <time>2020-08-15T14:06:14Z</time>
      </trkpt>
      <trkpt lat="51.228288" lon="4.447149">
        <ele>2.7</ele>
        <time>2020-08-15T14:06:18Z</time>
      </trkpt>
      <trkpt lat="51.228229" lon="4.447241">
        <ele>2.8</ele>
        <time>2020-08-15T14:06:21Z</time>
      </trkpt>
      <trkpt lat="51.228165" lon="4.447351">
        <ele>2.9</ele>
        <time>2020-08-15T14:06:24Z</time>
      </trkpt>
      <trkpt lat="51.228095" lon="4.44746">
        <ele>3</ele>
        <time>2020-08-15T14:06:27Z</time>
      </trkpt>
      <trkpt lat="51.228026" lon="4.44757">
        <ele>3.1</ele>
        <time>2020-08-15T14:06:30Z</time>
      </trkpt>
      <trkpt lat="51.227942" lon="4.447679">
        <ele>3.2</ele>
        <time>2020-08-15T14:06:33Z</time>
      </trkpt>
      <trkpt lat="51.227863" lon="4.447795">
        <ele>3.2</ele>
        <time>2020-08-15T14:06:36Z</time>
      </trkpt>
      <trkpt lat="51.227786" lon="4.447911">
        <ele>3.2</ele>
        <time>2020-08-15T14:06:39Z</time>
      </trkpt>
      <trkpt lat="51.227715" lon="4.448028">
        <ele>3.2</ele>
        <time>2020-08-15T14:06:42Z</time>
      </trkpt>
      <trkpt lat="51.227749" lon="4.447903">
        <ele>3.2</ele>
        <time>2020-08-15T14:07:10Z</time>
      </trkpt>
      <trkpt lat="51.227816" lon="4.447822">
        <ele>3.2</ele>
        <time>2020-08-15T14:07:12Z</time>
      </trkpt>
      <trkpt lat="51.227894" lon="4.447737">
        <ele>3.1</ele>
        <time>2020-08-15T14:07:14Z</time>
      </trkpt>
      <trkpt lat="51.228003" lon="4.44761">
        <ele>2.9</ele>
        <time>2020-08-15T14:07:16Z</time>
      </trkpt>
      <trkpt lat="51.228056" lon="4.447499">
        <ele>2.8</ele>
        <time>2020-08-15T14:07:18Z</time>
      </trkpt>
      <trkpt lat="51.228115" lon="4.447398">
        <ele>2.7</ele>
        <time>2020-08-15T14:07:20Z</time>
      </trkpt>
      <trkpt lat="51.22818" lon="4.447293">
        <ele>2.7</ele>
        <time>2020-08-15T14:07:23Z</time>
      </trkpt>
      <trkpt lat="51.228097" lon="4.447342">
        <ele>2.7</ele>
        <time>2020-08-15T14:07:40Z</time>
      </trkpt>
      <trkpt lat="51.228026" lon="4.447444">
        <ele>2.8</ele>
        <time>2020-08-15T14:07:43Z</time>
      </trkpt>
      <trkpt lat="51.227948" lon="4.447557">
        <ele>2.9</ele>
        <time>2020-08-15T14:07:46Z</time>
      </trkpt>
      <trkpt lat="51.227881" lon="4.447679">
        <ele>3.1</ele>
        <time>2020-08-15T14:07:49Z</time>
      </trkpt>
      <trkpt lat="51.227813" lon="4.447784">
        <ele>3.2</ele>
        <time>2020-08-15T14:07:52Z</time>
      </trkpt>
      <trkpt lat="51.227745" lon="4.447878">
        <ele>3.3</ele>
        <time>2020-08-15T14:07:55Z</time>
      </trkpt>
      <trkpt lat="51.22768" lon="4.447972">
        <ele>3.4</ele>
        <time>2020-08-15T14:07:58Z</time>
      </trkpt>
      <trkpt lat="51.227597" lon="4.448056">
        <ele>3.5</ele>
        <time>2020-08-15T14:08:01Z</time>
      </trkpt>
      <trkpt lat="51.227526" lon="4.448153">
        <ele>3.4</ele>
        <time>2020-08-15T14:08:04Z</time>
      </trkpt>
      <trkpt lat="51.227459" lon="4.448262">
        <ele>3.2</ele>
        <time>2020-08-15T14:08:07Z</time>
      </trkpt>
      <trkpt lat="51.227396" lon="4.448374">
        <ele>3</ele>
        <time>2020-08-15T14:08:10Z</time>
      </trkpt>
      <trkpt lat="51.227324" lon="4.448485">
        <ele>2.9</ele>
        <time>2020-08-15T14:08:13Z</time>
      </trkpt>
      <trkpt lat="51.227263" lon="4.448593">
        <ele>2.8</ele>
        <time>2020-08-15T14:08:16Z</time>
      </trkpt>
      <trkpt lat="51.22719" lon="4.448713">
        <ele>2.8</ele>
        <time>2020-08-15T14:08:19Z</time>
      </trkpt>
      <trkpt lat="51.227127" lon="4.448871">
        <ele>2.7</ele>
        <time>2020-08-15T14:08:22Z</time>
      </trkpt>
      <trkpt lat="51.227092" lon="4.449022">
        <ele>2.7</ele>
        <time>2020-08-15T14:08:25Z</time>
      </trkpt>
      <trkpt lat="51.227071" lon="4.449193">
        <ele>2.7</ele>
        <time>2020-08-15T14:08:28Z</time>
      </trkpt>
      <trkpt lat="51.227018" lon="4.449324">
        <ele>2.7</ele>
        <time>2020-08-15T14:08:32Z</time>
      </trkpt>
      <trkpt lat="51.226927" lon="4.449375">
        <ele>2.6</ele>
        <time>2020-08-15T14:08:37Z</time>
      </trkpt>
      <trkpt lat="51.226836" lon="4.449356">
        <ele>2.6</ele>
        <time>2020-08-15T14:08:41Z</time>
      </trkpt>
      <trkpt lat="51.226761" lon="4.449404">
        <ele>2.7</ele>
        <time>2020-08-15T14:08:44Z</time>
      </trkpt>
      <trkpt lat="51.226666" lon="4.449473">
        <ele>2.7</ele>
        <time>2020-08-15T14:08:48Z</time>
      </trkpt>
      <trkpt lat="51.226573" lon="4.449504">
        <ele>2.6</ele>
        <time>2020-08-15T14:08:53Z</time>
      </trkpt>
      <trkpt lat="51.226576" lon="4.449333">
        <ele>2.5</ele>
        <time>2020-08-15T14:08:57Z</time>
      </trkpt>
      <trkpt lat="51.226517" lon="4.44919">
        <ele>2.3</ele>
        <time>2020-08-15T14:09:01Z</time>
      </trkpt>
      <trkpt lat="51.226459" lon="4.44908">
        <ele>2.1</ele>
        <time>2020-08-15T14:09:04Z</time>
      </trkpt>
      <trkpt lat="51.226393" lon="4.448973">
        <ele>1.8</ele>
        <time>2020-08-15T14:09:07Z</time>
      </trkpt>
      <trkpt lat="51.226329" lon="4.448859">
        <ele>1.5</ele>
        <time>2020-08-15T14:09:10Z</time>
      </trkpt>
      <trkpt lat="51.226242" lon="4.448825">
        <ele>1.2</ele>
        <time>2020-08-15T14:09:13Z</time>
      </trkpt>
      <trkpt lat="51.226168" lon="4.448959">
        <ele>0.9</ele>
        <time>2020-08-15T14:09:16Z</time>
      </trkpt>
      <trkpt lat="51.22613" lon="4.449135">
        <ele>0.6</ele>
        <time>2020-08-15T14:09:19Z</time>
      </trkpt>
      <trkpt lat="51.226074" lon="4.449289">
        <ele>0.4</ele>
        <time>2020-08-15T14:09:22Z</time>
      </trkpt>
      <trkpt lat="51.226009" lon="4.449413">
        <ele>0.1</ele>
        <time>2020-08-15T14:09:25Z</time>
      </trkpt>
      <trkpt lat="51.22594" lon="4.449513">
        <ele>0</ele>
        <time>2020-08-15T14:09:28Z</time>
      </trkpt>
      <trkpt lat="51.225853" lon="4.449589">
        <ele>0</ele>
        <time>2020-08-15T14:09:31Z</time>
      </trkpt>
      <trkpt lat="51.225764" lon="4.449653">
        <ele>0</ele>
        <time>2020-08-15T14:09:34Z</time>
      </trkpt>
      <trkpt lat="51.225669" lon="4.449693">
        <ele>0</ele>
        <time>2020-08-15T14:09:37Z</time>
      </trkpt>
      <trkpt lat="51.225565" lon="4.44971">
        <ele>0</ele>
        <time>2020-08-15T14:09:40Z</time>
      </trkpt>
      <trkpt lat="51.225459" lon="4.449706">
        <ele>0</ele>
        <time>2020-08-15T14:09:43Z</time>
      </trkpt>
      <trkpt lat="51.225366" lon="4.449701">
        <ele>0.1</ele>
        <time>2020-08-15T14:09:46Z</time>
      </trkpt>
      <trkpt lat="51.225281" lon="4.449733">
        <ele>0.4</ele>
        <time>2020-08-15T14:09:49Z</time>
      </trkpt>
      <trkpt lat="51.225195" lon="4.449777">
        <ele>0.5</ele>
        <time>2020-08-15T14:09:52Z</time>
      </trkpt>
      <trkpt lat="51.225099" lon="4.449829">
        <ele>0.7</ele>
        <time>2020-08-15T14:09:55Z</time>
      </trkpt>
      <trkpt lat="51.22501" lon="4.449913">
        <ele>0.9</ele>
        <time>2020-08-15T14:09:58Z</time>
      </trkpt>
      <trkpt lat="51.224924" lon="4.45003">
        <ele>1</ele>
        <time>2020-08-15T14:10:01Z</time>
      </trkpt>
      <trkpt lat="51.224861" lon="4.45012">
        <ele>1</ele>
        <time>2020-08-15T14:10:04Z</time>
      </trkpt>
      <trkpt lat="51.224793" lon="4.45025">
        <ele>0.9</ele>
        <time>2020-08-15T14:10:08Z</time>
      </trkpt>
      <trkpt lat="51.224724" lon="4.450344">
        <ele>0.6</ele>
        <time>2020-08-15T14:10:17Z</time>
      </trkpt>
      <trkpt lat="51.224644" lon="4.450464">
        <ele>0.3</ele>
        <time>2020-08-15T14:10:21Z</time>
      </trkpt>
      <trkpt lat="51.224574" lon="4.450567">
        <ele>0</ele>
        <time>2020-08-15T14:10:24Z</time>
      </trkpt>
      <trkpt lat="51.22451" lon="4.450671">
        <ele>0</ele>
        <time>2020-08-15T14:10:27Z</time>
      </trkpt>
      <trkpt lat="51.224446" lon="4.450778">
        <ele>0</ele>
        <time>2020-08-15T14:10:30Z</time>
      </trkpt>
      <trkpt lat="51.224376" lon="4.450881">
        <ele>0</ele>
        <time>2020-08-15T14:10:33Z</time>
      </trkpt>
      <trkpt lat="51.224303" lon="4.451005">
        <ele>0</ele>
        <time>2020-08-15T14:10:36Z</time>
      </trkpt>
      <trkpt lat="51.22423" lon="4.45112">
        <ele>0</ele>
        <time>2020-08-15T14:10:39Z</time>
      </trkpt>
      <trkpt lat="51.224153" lon="4.451226">
        <ele>0</ele>
        <time>2020-08-15T14:10:42Z</time>
      </trkpt>
      <trkpt lat="51.224067" lon="4.45132">
        <ele>0</ele>
        <time>2020-08-15T14:10:45Z</time>
      </trkpt>
      <trkpt lat="51.223968" lon="4.451383">
        <ele>0</ele>
        <time>2020-08-15T14:10:48Z</time>
      </trkpt>
      <trkpt lat="51.223866" lon="4.451404">
        <ele>0</ele>
        <time>2020-08-15T14:10:51Z</time>
      </trkpt>
      <trkpt lat="51.223769" lon="4.451383">
        <ele>0</ele>
        <time>2020-08-15T14:10:54Z</time>
      </trkpt>
      <trkpt lat="51.223677" lon="4.451341">
        <ele>0</ele>
        <time>2020-08-15T14:10:57Z</time>
      </trkpt>
      <trkpt lat="51.223585" lon="4.451304">
        <ele>0</ele>
        <time>2020-08-15T14:11:00Z</time>
      </trkpt>
      <trkpt lat="51.223484" lon="4.451279">
        <ele>0</ele>
        <time>2020-08-15T14:11:03Z</time>
      </trkpt>
      <trkpt lat="51.223382" lon="4.45125">
        <ele>0</ele>
        <time>2020-08-15T14:11:06Z</time>
      </trkpt>
      <trkpt lat="51.223276" lon="4.45121">
        <ele>0</ele>
        <time>2020-08-15T14:11:09Z</time>
      </trkpt>
      <trkpt lat="51.223175" lon="4.451182">
        <ele>0</ele>
        <time>2020-08-15T14:11:12Z</time>
      </trkpt>
      <trkpt lat="51.22309" lon="4.451151">
        <ele>0</ele>
        <time>2020-08-15T14:11:16Z</time>
      </trkpt>
      <trkpt lat="51.222999" lon="4.451136">
        <ele>0.5</ele>
        <time>2020-08-15T14:11:24Z</time>
      </trkpt>
      <trkpt lat="51.222906" lon="4.451093">
        <ele>1.2</ele>
        <time>2020-08-15T14:11:28Z</time>
      </trkpt>
      <trkpt lat="51.222809" lon="4.451062">
        <ele>2</ele>
        <time>2020-08-15T14:11:31Z</time>
      </trkpt>
      <trkpt lat="51.222692" lon="4.451081">
        <ele>2.8</ele>
        <time>2020-08-15T14:11:34Z</time>
      </trkpt>
      <trkpt lat="51.222612" lon="4.451117">
        <ele>3.5</ele>
        <time>2020-08-15T14:11:36Z</time>
      </trkpt>
      <trkpt lat="51.222528" lon="4.451138">
        <ele>3.9</ele>
        <time>2020-08-15T14:11:38Z</time>
      </trkpt>
      <trkpt lat="51.222414" lon="4.451147">
        <ele>4.3</ele>
        <time>2020-08-15T14:11:41Z</time>
      </trkpt>
      <trkpt lat="51.222308" lon="4.451176">
        <ele>4.5</ele>
        <time>2020-08-15T14:11:44Z</time>
      </trkpt>
      <trkpt lat="51.222203" lon="4.451207">
        <ele>4.4</ele>
        <time>2020-08-15T14:11:47Z</time>
      </trkpt>
      <trkpt lat="51.222102" lon="4.451273">
        <ele>4.2</ele>
        <time>2020-08-15T14:11:50Z</time>
      </trkpt>
      <trkpt lat="51.222003" lon="4.451352">
        <ele>4</ele>
        <time>2020-08-15T14:11:53Z</time>
      </trkpt>
      <trkpt lat="51.221903" lon="4.45143">
        <ele>3.7</ele>
        <time>2020-08-15T14:11:56Z</time>
      </trkpt>
      <trkpt lat="51.221806" lon="4.451496">
        <ele>3.5</ele>
        <time>2020-08-15T14:11:59Z</time>
      </trkpt>
      <trkpt lat="51.221715" lon="4.451551">
        <ele>3.2</ele>
        <time>2020-08-15T14:12:02Z</time>
      </trkpt>
      <trkpt lat="51.221626" lon="4.451576">
        <ele>3</ele>
        <time>2020-08-15T14:12:05Z</time>
      </trkpt>
      <trkpt lat="51.221543" lon="4.451607">
        <ele>2.9</ele>
        <time>2020-08-15T14:12:08Z</time>
      </trkpt>
      <trkpt lat="51.221458" lon="4.451636">
        <ele>3</ele>
        <time>2020-08-15T14:12:11Z</time>
      </trkpt>
      <trkpt lat="51.221369" lon="4.451668">
        <ele>3.2</ele>
        <time>2020-08-15T14:12:14Z</time>
      </trkpt>
      <trkpt lat="51.221271" lon="4.451683">
        <ele>3.5</ele>
        <time>2020-08-15T14:12:17Z</time>
      </trkpt>
      <trkpt lat="51.221175" lon="4.451696">
        <ele>3.9</ele>
        <time>2020-08-15T14:12:20Z</time>
      </trkpt>
      <trkpt lat="51.221086" lon="4.451727">
        <ele>4.4</ele>
        <time>2020-08-15T14:12:23Z</time>
      </trkpt>
      <trkpt lat="51.220993" lon="4.451745">
        <ele>4.9</ele>
        <time>2020-08-15T14:12:26Z</time>
      </trkpt>
      <trkpt lat="51.220893" lon="4.451756">
        <ele>5.5</ele>
        <time>2020-08-15T14:12:29Z</time>
      </trkpt>
      <trkpt lat="51.22081" lon="4.45177">
        <ele>6</ele>
        <time>2020-08-15T14:12:31Z</time>
      </trkpt>
      <trkpt lat="51.220688" lon="4.451791">
        <ele>6.4</ele>
        <time>2020-08-15T14:12:34Z</time>
      </trkpt>
      <trkpt lat="51.220576" lon="4.451824">
        <ele>6.6</ele>
        <time>2020-08-15T14:12:37Z</time>
      </trkpt>
      <trkpt lat="51.22046" lon="4.451852">
        <ele>7</ele>
        <time>2020-08-15T14:12:40Z</time>
      </trkpt>
      <trkpt lat="51.220344" lon="4.451891">
        <ele>7.3</ele>
        <time>2020-08-15T14:12:43Z</time>
      </trkpt>
      <trkpt lat="51.220229" lon="4.451913">
        <ele>7.5</ele>
        <time>2020-08-15T14:12:46Z</time>
      </trkpt>
      <trkpt lat="51.220115" lon="4.451945">
        <ele>7.6</ele>
        <time>2020-08-15T14:12:49Z</time>
      </trkpt>
      <trkpt lat="51.220006" lon="4.451973">
        <ele>7.7</ele>
        <time>2020-08-15T14:12:52Z</time>
      </trkpt>
      <trkpt lat="51.2199" lon="4.451995">
        <ele>7.8</ele>
        <time>2020-08-15T14:12:55Z</time>
      </trkpt>
      <trkpt lat="51.219782" lon="4.452013">
        <ele>7.7</ele>
        <time>2020-08-15T14:12:58Z</time>
      </trkpt>
      <trkpt lat="51.219698" lon="4.452025">
        <ele>7.5</ele>
        <time>2020-08-15T14:13:00Z</time>
      </trkpt>
      <trkpt lat="51.21958" lon="4.45204">
        <ele>7.3</ele>
        <time>2020-08-15T14:13:03Z</time>
      </trkpt>
      <trkpt lat="51.219475" lon="4.45205">
        <ele>7</ele>
        <time>2020-08-15T14:13:06Z</time>
      </trkpt>
      <trkpt lat="51.219364" lon="4.45206">
        <ele>6.6</ele>
        <time>2020-08-15T14:13:09Z</time>
      </trkpt>
      <trkpt lat="51.219279" lon="4.452072">
        <ele>6.1</ele>
        <time>2020-08-15T14:13:11Z</time>
      </trkpt>
      <trkpt lat="51.219193" lon="4.452081">
        <ele>5.5</ele>
        <time>2020-08-15T14:13:13Z</time>
      </trkpt>
      <trkpt lat="51.219107" lon="4.452081">
        <ele>4.9</ele>
        <time>2020-08-15T14:13:15Z</time>
      </trkpt>
      <trkpt lat="51.219035" lon="4.451983">
        <ele>4.2</ele>
        <time>2020-08-15T14:13:17Z</time>
      </trkpt>
      <trkpt lat="51.218971" lon="4.451862">
        <ele>3.5</ele>
        <time>2020-08-15T14:13:19Z</time>
      </trkpt>
      <trkpt lat="51.218876" lon="4.451775">
        <ele>2.7</ele>
        <time>2020-08-15T14:13:21Z</time>
      </trkpt>
      <trkpt lat="51.218763" lon="4.45175">
        <ele>2.2</ele>
        <time>2020-08-15T14:13:23Z</time>
      </trkpt>
      <trkpt lat="51.218651" lon="4.451758">
        <ele>1.8</ele>
        <time>2020-08-15T14:13:25Z</time>
      </trkpt>
      <trkpt lat="51.218411" lon="4.451799">
        <ele>1.7</ele>
        <time>2020-08-15T14:13:30Z</time>
      </trkpt>
      <trkpt lat="51.21837" lon="4.451922">
        <ele>1.8</ele>
        <time>2020-08-15T14:13:32Z</time>
      </trkpt>
      <trkpt lat="51.218314" lon="4.452047">
        <ele>1.7</ele>
        <time>2020-08-15T14:13:35Z</time>
      </trkpt>
      <trkpt lat="51.218284" lon="4.452201">
        <ele>1.7</ele>
        <time>2020-08-15T14:13:39Z</time>
      </trkpt>
      <trkpt lat="51.21829" lon="4.452342">
        <ele>1.6</ele>
        <time>2020-08-15T14:13:42Z</time>
      </trkpt>
      <trkpt lat="51.21828" lon="4.452501">
        <ele>1.7</ele>
        <time>2020-08-15T14:13:46Z</time>
      </trkpt>
      <trkpt lat="51.218248" lon="4.45259">
        <ele>2</ele>
        <time>2020-08-15T14:13:53Z</time>
      </trkpt>
      <trkpt lat="51.218269" lon="4.452692">
        <ele>6.8</ele>
        <time>2020-08-15T14:14:28Z</time>
      </trkpt>
      <trkpt lat="51.218272" lon="4.452755">
        <ele>6.7</ele>
        <time>2020-08-15T14:14:30Z</time>
      </trkpt>
      <trkpt lat="51.218277" lon="4.452892">
        <ele>6.5</ele>
        <time>2020-08-15T14:14:34Z</time>
      </trkpt>
      <trkpt lat="51.218268" lon="4.453069">
        <ele>6.2</ele>
        <time>2020-08-15T14:14:38Z</time>
      </trkpt>
      <trkpt lat="51.218249" lon="4.453224">
        <ele>6</ele>
        <time>2020-08-15T14:14:41Z</time>
      </trkpt>
      <trkpt lat="51.218234" lon="4.453353">
        <ele>5.8</ele>
        <time>2020-08-15T14:14:43Z</time>
      </trkpt>
      <trkpt lat="51.218219" lon="4.453536">
        <ele>5.7</ele>
        <time>2020-08-15T14:14:46Z</time>
      </trkpt>
      <trkpt lat="51.21821" lon="4.45371">
        <ele>5.5</ele>
        <time>2020-08-15T14:14:49Z</time>
      </trkpt>
      <trkpt lat="51.218196" lon="4.453866">
        <ele>5.5</ele>
        <time>2020-08-15T14:14:52Z</time>
      </trkpt>
      <trkpt lat="51.218177" lon="4.454031">
        <ele>5.5</ele>
        <time>2020-08-15T14:14:55Z</time>
      </trkpt>
      <trkpt lat="51.218167" lon="4.454204">
        <ele>5.5</ele>
        <time>2020-08-15T14:14:58Z</time>
      </trkpt>
      <trkpt lat="51.218166" lon="4.454371">
        <ele>5.6</ele>
        <time>2020-08-15T14:15:01Z</time>
      </trkpt>
      <trkpt lat="51.218175" lon="4.454535">
        <ele>5.9</ele>
        <time>2020-08-15T14:15:04Z</time>
      </trkpt>
      <trkpt lat="51.218166" lon="4.454697">
        <ele>6.4</ele>
        <time>2020-08-15T14:15:07Z</time>
      </trkpt>
      <trkpt lat="51.218157" lon="4.454872">
        <ele>6.9</ele>
        <time>2020-08-15T14:15:10Z</time>
      </trkpt>
      <trkpt lat="51.21816" lon="4.455049">
        <ele>7.5</ele>
        <time>2020-08-15T14:15:13Z</time>
      </trkpt>
      <trkpt lat="51.218152" lon="4.45518">
        <ele>8</ele>
        <time>2020-08-15T14:15:15Z</time>
      </trkpt>
      <trkpt lat="51.218149" lon="4.455332">
        <ele>8.4</ele>
        <time>2020-08-15T14:15:18Z</time>
      </trkpt>
      <trkpt lat="51.218153" lon="4.455481">
        <ele>8.6</ele>
        <time>2020-08-15T14:15:21Z</time>
      </trkpt>
      <trkpt lat="51.218139" lon="4.455641">
        <ele>8.8</ele>
        <time>2020-08-15T14:15:25Z</time>
      </trkpt>
      <trkpt lat="51.218145" lon="4.455821">
        <ele>8.8</ele>
        <time>2020-08-15T14:15:29Z</time>
      </trkpt>
      <trkpt lat="51.218141" lon="4.455952">
        <ele>8.6</ele>
        <time>2020-08-15T14:15:31Z</time>
      </trkpt>
      <trkpt lat="51.218135" lon="4.456082">
        <ele>8.5</ele>
        <time>2020-08-15T14:15:33Z</time>
      </trkpt>
      <trkpt lat="51.218125" lon="4.456255">
        <ele>8.3</ele>
        <time>2020-08-15T14:15:36Z</time>
      </trkpt>
      <trkpt lat="51.218105" lon="4.456426">
        <ele>8</ele>
        <time>2020-08-15T14:15:39Z</time>
      </trkpt>
      <trkpt lat="51.218106" lon="4.45659">
        <ele>7.8</ele>
        <time>2020-08-15T14:15:42Z</time>
      </trkpt>
      <trkpt lat="51.21811" lon="4.456768">
        <ele>7.7</ele>
        <time>2020-08-15T14:15:45Z</time>
      </trkpt>
      <trkpt lat="51.218113" lon="4.456945">
        <ele>7.7</ele>
        <time>2020-08-15T14:15:48Z</time>
      </trkpt>
      <trkpt lat="51.218111" lon="4.45712">
        <ele>7.9</ele>
        <time>2020-08-15T14:15:51Z</time>
      </trkpt>
      <trkpt lat="51.218115" lon="4.457254">
        <ele>8.3</ele>
        <time>2020-08-15T14:15:54Z</time>
      </trkpt>
      <trkpt lat="51.218115" lon="4.457416">
        <ele>8.7</ele>
        <time>2020-08-15T14:15:57Z</time>
      </trkpt>
      <trkpt lat="51.218107" lon="4.457573">
        <ele>9.4</ele>
        <time>2020-08-15T14:16:00Z</time>
      </trkpt>
      <trkpt lat="51.218082" lon="4.457738">
        <ele>10</ele>
        <time>2020-08-15T14:16:03Z</time>
      </trkpt>
      <trkpt lat="51.218054" lon="4.457865">
        <ele>10.5</ele>
        <time>2020-08-15T14:16:05Z</time>
      </trkpt>
      <trkpt lat="51.21804" lon="4.458031">
        <ele>10.9</ele>
        <time>2020-08-15T14:16:08Z</time>
      </trkpt>
      <trkpt lat="51.218034" lon="4.458207">
        <ele>11.3</ele>
        <time>2020-08-15T14:16:11Z</time>
      </trkpt>
      <trkpt lat="51.218024" lon="4.458391">
        <ele>11.5</ele>
        <time>2020-08-15T14:16:14Z</time>
      </trkpt>
      <trkpt lat="51.218024" lon="4.458571">
        <ele>11.6</ele>
        <time>2020-08-15T14:16:17Z</time>
      </trkpt>
      <trkpt lat="51.218023" lon="4.458734">
        <ele>11.6</ele>
        <time>2020-08-15T14:16:20Z</time>
      </trkpt>
      <trkpt lat="51.218006" lon="4.458898">
        <ele>11.5</ele>
        <time>2020-08-15T14:16:23Z</time>
      </trkpt>
      <trkpt lat="51.217993" lon="4.459062">
        <ele>11.5</ele>
        <time>2020-08-15T14:16:26Z</time>
      </trkpt>
      <trkpt lat="51.217974" lon="4.459242">
        <ele>11.3</ele>
        <time>2020-08-15T14:16:29Z</time>
      </trkpt>
      <trkpt lat="51.217968" lon="4.459432">
        <ele>10.9</ele>
        <time>2020-08-15T14:16:32Z</time>
      </trkpt>
      <trkpt lat="51.217967" lon="4.459611">
        <ele>10.5</ele>
        <time>2020-08-15T14:16:35Z</time>
      </trkpt>
      <trkpt lat="51.217962" lon="4.4598">
        <ele>10.3</ele>
        <time>2020-08-15T14:16:38Z</time>
      </trkpt>
      <trkpt lat="51.217957" lon="4.459929">
        <ele>10.1</ele>
        <time>2020-08-15T14:16:40Z</time>
      </trkpt>
      <trkpt lat="51.217951" lon="4.460061">
        <ele>9.9</ele>
        <time>2020-08-15T14:16:42Z</time>
      </trkpt>
      <trkpt lat="51.21794" lon="4.460255">
        <ele>9.7</ele>
        <time>2020-08-15T14:16:45Z</time>
      </trkpt>
      <trkpt lat="51.217923" lon="4.460442">
        <ele>9.6</ele>
        <time>2020-08-15T14:16:48Z</time>
      </trkpt>
      <trkpt lat="51.217906" lon="4.460626">
        <ele>9.5</ele>
        <time>2020-08-15T14:16:51Z</time>
      </trkpt>
      <trkpt lat="51.217912" lon="4.460809">
        <ele>9.4</ele>
        <time>2020-08-15T14:16:54Z</time>
      </trkpt>
      <trkpt lat="51.217906" lon="4.460979">
        <ele>9.1</ele>
        <time>2020-08-15T14:16:57Z</time>
      </trkpt>
      <trkpt lat="51.217897" lon="4.461146">
        <ele>8.8</ele>
        <time>2020-08-15T14:17:00Z</time>
      </trkpt>
      <trkpt lat="51.217885" lon="4.461288">
        <ele>8.7</ele>
        <time>2020-08-15T14:17:03Z</time>
      </trkpt>
      <trkpt lat="51.217888" lon="4.46143">
        <ele>8.7</ele>
        <time>2020-08-15T14:17:06Z</time>
      </trkpt>
      <trkpt lat="51.217881" lon="4.461596">
        <ele>8.7</ele>
        <time>2020-08-15T14:17:09Z</time>
      </trkpt>
      <trkpt lat="51.217864" lon="4.461759">
        <ele>8.7</ele>
        <time>2020-08-15T14:17:12Z</time>
      </trkpt>
      <trkpt lat="51.217857" lon="4.461919">
        <ele>8.8</ele>
        <time>2020-08-15T14:17:15Z</time>
      </trkpt>
      <trkpt lat="51.217845" lon="4.462081">
        <ele>8.8</ele>
        <time>2020-08-15T14:17:18Z</time>
      </trkpt>
      <trkpt lat="51.217833" lon="4.462252">
        <ele>8.7</ele>
        <time>2020-08-15T14:17:21Z</time>
      </trkpt>
      <trkpt lat="51.217817" lon="4.462425">
        <ele>8.6</ele>
        <time>2020-08-15T14:17:24Z</time>
      </trkpt>
      <trkpt lat="51.217788" lon="4.462605">
        <ele>8.5</ele>
        <time>2020-08-15T14:17:27Z</time>
      </trkpt>
      <trkpt lat="51.217783" lon="4.462788">
        <ele>8.5</ele>
        <time>2020-08-15T14:17:30Z</time>
      </trkpt>
      <trkpt lat="51.217783" lon="4.462961">
        <ele>8.4</ele>
        <time>2020-08-15T14:17:33Z</time>
      </trkpt>
      <trkpt lat="51.217769" lon="4.463132">
        <ele>8.3</ele>
        <time>2020-08-15T14:17:36Z</time>
      </trkpt>
      <trkpt lat="51.21775" lon="4.463288">
        <ele>8.2</ele>
        <time>2020-08-15T14:17:39Z</time>
      </trkpt>
      <trkpt lat="51.217747" lon="4.463453">
        <ele>8.1</ele>
        <time>2020-08-15T14:17:42Z</time>
      </trkpt>
      <trkpt lat="51.217748" lon="4.463624">
        <ele>8.1</ele>
        <time>2020-08-15T14:17:45Z</time>
      </trkpt>
      <trkpt lat="51.217741" lon="4.463801">
        <ele>8</ele>
        <time>2020-08-15T14:17:48Z</time>
      </trkpt>
      <trkpt lat="51.217727" lon="4.463981">
        <ele>8</ele>
        <time>2020-08-15T14:17:51Z</time>
      </trkpt>
      <trkpt lat="51.217722" lon="4.464157">
        <ele>8.1</ele>
        <time>2020-08-15T14:17:54Z</time>
      </trkpt>
      <trkpt lat="51.217719" lon="4.464291">
        <ele>8.2</ele>
        <time>2020-08-15T14:17:56Z</time>
      </trkpt>
      <trkpt lat="51.217714" lon="4.464424">
        <ele>8.4</ele>
        <time>2020-08-15T14:17:58Z</time>
      </trkpt>
      <trkpt lat="51.217702" lon="4.464611">
        <ele>8.5</ele>
        <time>2020-08-15T14:18:01Z</time>
      </trkpt>
      <trkpt lat="51.2177" lon="4.464793">
        <ele>8.8</ele>
        <time>2020-08-15T14:18:04Z</time>
      </trkpt>
      <trkpt lat="51.217691" lon="4.464924">
        <ele>8.9</ele>
        <time>2020-08-15T14:18:06Z</time>
      </trkpt>
      <trkpt lat="51.217682" lon="4.465057">
        <ele>9</ele>
        <time>2020-08-15T14:18:08Z</time>
      </trkpt>
      <trkpt lat="51.217678" lon="4.46524">
        <ele>9</ele>
        <time>2020-08-15T14:18:11Z</time>
      </trkpt>
      <trkpt lat="51.217678" lon="4.465374">
        <ele>8.9</ele>
        <time>2020-08-15T14:18:13Z</time>
      </trkpt>
      <trkpt lat="51.217679" lon="4.465559">
        <ele>8.8</ele>
        <time>2020-08-15T14:18:16Z</time>
      </trkpt>
      <trkpt lat="51.217681" lon="4.465746">
        <ele>8.8</ele>
        <time>2020-08-15T14:18:19Z</time>
      </trkpt>
      <trkpt lat="51.217692" lon="4.465924">
        <ele>8.8</ele>
        <time>2020-08-15T14:18:22Z</time>
      </trkpt>
      <trkpt lat="51.217708" lon="4.466101">
        <ele>8.8</ele>
        <time>2020-08-15T14:18:25Z</time>
      </trkpt>
      <trkpt lat="51.217715" lon="4.466272">
        <ele>8.9</ele>
        <time>2020-08-15T14:18:28Z</time>
      </trkpt>
      <trkpt lat="51.217698" lon="4.466441">
        <ele>9</ele>
        <time>2020-08-15T14:18:31Z</time>
      </trkpt>
      <trkpt lat="51.217684" lon="4.466599">
        <ele>8.9</ele>
        <time>2020-08-15T14:18:34Z</time>
      </trkpt>
      <trkpt lat="51.217672" lon="4.46675">
        <ele>8.8</ele>
        <time>2020-08-15T14:18:37Z</time>
      </trkpt>
      <trkpt lat="51.217668" lon="4.466901">
        <ele>8.6</ele>
        <time>2020-08-15T14:18:40Z</time>
      </trkpt>
      <trkpt lat="51.217638" lon="4.467043">
        <ele>8.5</ele>
        <time>2020-08-15T14:18:43Z</time>
      </trkpt>
      <trkpt lat="51.217615" lon="4.467215">
        <ele>8.5</ele>
        <time>2020-08-15T14:18:46Z</time>
      </trkpt>
      <trkpt lat="51.217607" lon="4.467393">
        <ele>8.4</ele>
        <time>2020-08-15T14:18:49Z</time>
      </trkpt>
      <trkpt lat="51.217612" lon="4.467567">
        <ele>8.2</ele>
        <time>2020-08-15T14:18:52Z</time>
      </trkpt>
      <trkpt lat="51.21762" lon="4.46774">
        <ele>8</ele>
        <time>2020-08-15T14:18:55Z</time>
      </trkpt>
      <trkpt lat="51.217608" lon="4.467922">
        <ele>7.8</ele>
        <time>2020-08-15T14:18:58Z</time>
      </trkpt>
      <trkpt lat="51.217601" lon="4.468099">
        <ele>7.5</ele>
        <time>2020-08-15T14:19:01Z</time>
      </trkpt>
      <trkpt lat="51.217587" lon="4.468263">
        <ele>7.2</ele>
        <time>2020-08-15T14:19:04Z</time>
      </trkpt>
      <trkpt lat="51.217559" lon="4.468417">
        <ele>6.9</ele>
        <time>2020-08-15T14:19:07Z</time>
      </trkpt>
      <trkpt lat="51.217533" lon="4.468579">
        <ele>6.6</ele>
        <time>2020-08-15T14:19:10Z</time>
      </trkpt>
      <trkpt lat="51.21752" lon="4.468753">
        <ele>6.5</ele>
        <time>2020-08-15T14:19:13Z</time>
      </trkpt>
      <trkpt lat="51.217515" lon="4.468936">
        <ele>6.3</ele>
        <time>2020-08-15T14:19:16Z</time>
      </trkpt>
      <trkpt lat="51.217521" lon="4.469115">
        <ele>6.2</ele>
        <time>2020-08-15T14:19:19Z</time>
      </trkpt>
      <trkpt lat="51.217528" lon="4.469273">
        <ele>6.1</ele>
        <time>2020-08-15T14:19:22Z</time>
      </trkpt>
      <trkpt lat="51.217525" lon="4.469425">
        <ele>6.1</ele>
        <time>2020-08-15T14:19:25Z</time>
      </trkpt>
      <trkpt lat="51.217531" lon="4.469587">
        <ele>6.2</ele>
        <time>2020-08-15T14:19:28Z</time>
      </trkpt>
      <trkpt lat="51.217505" lon="4.469753">
        <ele>6.3</ele>
        <time>2020-08-15T14:19:31Z</time>
      </trkpt>
      <trkpt lat="51.2175" lon="4.469926">
        <ele>6.3</ele>
        <time>2020-08-15T14:19:34Z</time>
      </trkpt>
      <trkpt lat="51.217494" lon="4.4701">
        <ele>6.4</ele>
        <time>2020-08-15T14:19:37Z</time>
      </trkpt>
      <trkpt lat="51.217481" lon="4.470274">
        <ele>6.4</ele>
        <time>2020-08-15T14:19:40Z</time>
      </trkpt>
      <trkpt lat="51.217478" lon="4.470438">
        <ele>6.5</ele>
        <time>2020-08-15T14:19:43Z</time>
      </trkpt>
      <trkpt lat="51.217483" lon="4.470616">
        <ele>6.5</ele>
        <time>2020-08-15T14:19:46Z</time>
      </trkpt>
      <trkpt lat="51.217479" lon="4.470748">
        <ele>6.6</ele>
        <time>2020-08-15T14:19:48Z</time>
      </trkpt>
      <trkpt lat="51.217471" lon="4.470923">
        <ele>6.6</ele>
        <time>2020-08-15T14:19:51Z</time>
      </trkpt>
      <trkpt lat="51.217454" lon="4.471089">
        <ele>6.6</ele>
        <time>2020-08-15T14:19:54Z</time>
      </trkpt>
      <trkpt lat="51.217432" lon="4.471238">
        <ele>6.6</ele>
        <time>2020-08-15T14:19:57Z</time>
      </trkpt>
      <trkpt lat="51.217442" lon="4.471411">
        <ele>6.5</ele>
        <time>2020-08-15T14:20:00Z</time>
      </trkpt>
      <trkpt lat="51.217439" lon="4.471582">
        <ele>6.4</ele>
        <time>2020-08-15T14:20:03Z</time>
      </trkpt>
      <trkpt lat="51.217433" lon="4.471741">
        <ele>6.3</ele>
        <time>2020-08-15T14:20:06Z</time>
      </trkpt>
      <trkpt lat="51.217418" lon="4.471917">
        <ele>6.2</ele>
        <time>2020-08-15T14:20:09Z</time>
      </trkpt>
      <trkpt lat="51.217415" lon="4.472067">
        <ele>6.2</ele>
        <time>2020-08-15T14:20:12Z</time>
      </trkpt>
      <trkpt lat="51.217404" lon="4.472239">
        <ele>6.2</ele>
        <time>2020-08-15T14:20:15Z</time>
      </trkpt>
      <trkpt lat="51.217391" lon="4.472413">
        <ele>6.2</ele>
        <time>2020-08-15T14:20:18Z</time>
      </trkpt>
      <trkpt lat="51.21738" lon="4.472583">
        <ele>6.2</ele>
        <time>2020-08-15T14:20:21Z</time>
      </trkpt>
      <trkpt lat="51.217371" lon="4.472753">
        <ele>6.2</ele>
        <time>2020-08-15T14:20:24Z</time>
      </trkpt>
      <trkpt lat="51.217386" lon="4.472918">
        <ele>6.2</ele>
        <time>2020-08-15T14:20:27Z</time>
      </trkpt>
      <trkpt lat="51.217379" lon="4.473086">
        <ele>6.1</ele>
        <time>2020-08-15T14:20:30Z</time>
      </trkpt>
      <trkpt lat="51.217356" lon="4.473249">
        <ele>6.1</ele>
        <time>2020-08-15T14:20:33Z</time>
      </trkpt>
      <trkpt lat="51.217341" lon="4.473423">
        <ele>6.2</ele>
        <time>2020-08-15T14:20:36Z</time>
      </trkpt>
      <trkpt lat="51.217334" lon="4.473576">
        <ele>6.4</ele>
        <time>2020-08-15T14:20:39Z</time>
      </trkpt>
      <trkpt lat="51.21732" lon="4.47374">
        <ele>6.5</ele>
        <time>2020-08-15T14:20:42Z</time>
      </trkpt>
      <trkpt lat="51.217314" lon="4.473909">
        <ele>6.7</ele>
        <time>2020-08-15T14:20:45Z</time>
      </trkpt>
      <trkpt lat="51.217306" lon="4.474069">
        <ele>6.9</ele>
        <time>2020-08-15T14:20:48Z</time>
      </trkpt>
      <trkpt lat="51.217297" lon="4.47423">
        <ele>7</ele>
        <time>2020-08-15T14:20:51Z</time>
      </trkpt>
      <trkpt lat="51.217295" lon="4.474387">
        <ele>7</ele>
        <time>2020-08-15T14:20:54Z</time>
      </trkpt>
      <trkpt lat="51.217298" lon="4.474552">
        <ele>7</ele>
        <time>2020-08-15T14:20:57Z</time>
      </trkpt>
      <trkpt lat="51.217295" lon="4.474701">
        <ele>6.9</ele>
        <time>2020-08-15T14:21:00Z</time>
      </trkpt>
      <trkpt lat="51.217285" lon="4.474867">
        <ele>6.8</ele>
        <time>2020-08-15T14:21:03Z</time>
      </trkpt>
      <trkpt lat="51.217274" lon="4.475021">
        <ele>6.5</ele>
        <time>2020-08-15T14:21:06Z</time>
      </trkpt>
      <trkpt lat="51.217259" lon="4.47518">
        <ele>6.3</ele>
        <time>2020-08-15T14:21:09Z</time>
      </trkpt>
      <trkpt lat="51.217246" lon="4.475331">
        <ele>5.8</ele>
        <time>2020-08-15T14:21:12Z</time>
      </trkpt>
      <trkpt lat="51.217238" lon="4.475475">
        <ele>5.5</ele>
        <time>2020-08-15T14:21:15Z</time>
      </trkpt>
      <trkpt lat="51.217232" lon="4.475638">
        <ele>5.3</ele>
        <time>2020-08-15T14:21:18Z</time>
      </trkpt>
      <trkpt lat="51.217225" lon="4.475798">
        <ele>5.2</ele>
        <time>2020-08-15T14:21:21Z</time>
      </trkpt>
      <trkpt lat="51.217222" lon="4.475955">
        <ele>5.4</ele>
        <time>2020-08-15T14:21:24Z</time>
      </trkpt>
      <trkpt lat="51.21722" lon="4.476118">
        <ele>5.7</ele>
        <time>2020-08-15T14:21:27Z</time>
      </trkpt>
      <trkpt lat="51.217213" lon="4.476285">
        <ele>6.3</ele>
        <time>2020-08-15T14:21:30Z</time>
      </trkpt>
      <trkpt lat="51.217205" lon="4.476449">
        <ele>6.9</ele>
        <time>2020-08-15T14:21:33Z</time>
      </trkpt>
      <trkpt lat="51.217198" lon="4.476612">
        <ele>7.5</ele>
        <time>2020-08-15T14:21:36Z</time>
      </trkpt>
      <trkpt lat="51.217195" lon="4.476777">
        <ele>8</ele>
        <time>2020-08-15T14:21:39Z</time>
      </trkpt>
      <trkpt lat="51.217185" lon="4.476946">
        <ele>8.4</ele>
        <time>2020-08-15T14:21:42Z</time>
      </trkpt>
      <trkpt lat="51.21718" lon="4.477117">
        <ele>8.7</ele>
        <time>2020-08-15T14:21:45Z</time>
      </trkpt>
      <trkpt lat="51.217174" lon="4.477275">
        <ele>8.9</ele>
        <time>2020-08-15T14:21:48Z</time>
      </trkpt>
      <trkpt lat="51.217177" lon="4.477429">
        <ele>8.8</ele>
        <time>2020-08-15T14:21:51Z</time>
      </trkpt>
      <trkpt lat="51.217175" lon="4.47758">
        <ele>8.6</ele>
        <time>2020-08-15T14:21:54Z</time>
      </trkpt>
      <trkpt lat="51.217169" lon="4.477733">
        <ele>8.3</ele>
        <time>2020-08-15T14:21:57Z</time>
      </trkpt>
      <trkpt lat="51.217159" lon="4.4779">
        <ele>7.8</ele>
        <time>2020-08-15T14:22:00Z</time>
      </trkpt>
      <trkpt lat="51.21715" lon="4.478075">
        <ele>7.2</ele>
        <time>2020-08-15T14:22:03Z</time>
      </trkpt>
      <trkpt lat="51.21714" lon="4.478242">
        <ele>6.5</ele>
        <time>2020-08-15T14:22:06Z</time>
      </trkpt>
      <trkpt lat="51.217137" lon="4.478399">
        <ele>6</ele>
        <time>2020-08-15T14:22:09Z</time>
      </trkpt>
      <trkpt lat="51.217137" lon="4.478554">
        <ele>5.5</ele>
        <time>2020-08-15T14:22:12Z</time>
      </trkpt>
      <trkpt lat="51.217131" lon="4.478711">
        <ele>5.3</ele>
        <time>2020-08-15T14:22:15Z</time>
      </trkpt>
      <trkpt lat="51.217116" lon="4.478861">
        <ele>5</ele>
        <time>2020-08-15T14:22:18Z</time>
      </trkpt>
      <trkpt lat="51.2171" lon="4.479018">
        <ele>4.8</ele>
        <time>2020-08-15T14:22:21Z</time>
      </trkpt>
      <trkpt lat="51.217097" lon="4.479176">
        <ele>4.7</ele>
        <time>2020-08-15T14:22:24Z</time>
      </trkpt>
      <trkpt lat="51.217094" lon="4.479329">
        <ele>4.5</ele>
        <time>2020-08-15T14:22:27Z</time>
      </trkpt>
      <trkpt lat="51.217085" lon="4.479486">
        <ele>4.4</ele>
        <time>2020-08-15T14:22:30Z</time>
      </trkpt>
      <trkpt lat="51.217075" lon="4.479642">
        <ele>4.2</ele>
        <time>2020-08-15T14:22:33Z</time>
      </trkpt>
      <trkpt lat="51.217072" lon="4.479798">
        <ele>4</ele>
        <time>2020-08-15T14:22:36Z</time>
      </trkpt>
      <trkpt lat="51.217066" lon="4.479953">
        <ele>3.8</ele>
        <time>2020-08-15T14:22:39Z</time>
      </trkpt>
      <trkpt lat="51.217061" lon="4.480093">
        <ele>3.6</ele>
        <time>2020-08-15T14:22:42Z</time>
      </trkpt>
      <trkpt lat="51.217057" lon="4.480241">
        <ele>3.5</ele>
        <time>2020-08-15T14:22:45Z</time>
      </trkpt>
      <trkpt lat="51.217049" lon="4.480401">
        <ele>3.3</ele>
        <time>2020-08-15T14:22:48Z</time>
      </trkpt>
      <trkpt lat="51.217037" lon="4.48057">
        <ele>3.2</ele>
        <time>2020-08-15T14:22:51Z</time>
      </trkpt>
      <trkpt lat="51.217029" lon="4.480717">
        <ele>3.2</ele>
        <time>2020-08-15T14:22:54Z</time>
      </trkpt>
      <trkpt lat="51.217025" lon="4.480865">
        <ele>3.2</ele>
        <time>2020-08-15T14:22:57Z</time>
      </trkpt>
      <trkpt lat="51.217021" lon="4.481021">
        <ele>3.3</ele>
        <time>2020-08-15T14:23:00Z</time>
      </trkpt>
      <trkpt lat="51.217006" lon="4.481165">
        <ele>3.4</ele>
        <time>2020-08-15T14:23:03Z</time>
      </trkpt>
      <trkpt lat="51.217004" lon="4.481304">
        <ele>3.5</ele>
        <time>2020-08-15T14:23:07Z</time>
      </trkpt>
      <trkpt lat="51.216996" lon="4.481453">
        <ele>3.5</ele>
        <time>2020-08-15T14:23:11Z</time>
      </trkpt>
      <trkpt lat="51.216996" lon="4.481588">
        <ele>3.5</ele>
        <time>2020-08-15T14:23:14Z</time>
      </trkpt>
      <trkpt lat="51.217002" lon="4.481749">
        <ele>3.5</ele>
        <time>2020-08-15T14:23:18Z</time>
      </trkpt>
      <trkpt lat="51.216957" lon="4.481878">
        <ele>3.5</ele>
        <time>2020-08-15T14:23:23Z</time>
      </trkpt>
      <trkpt lat="51.216864" lon="4.481886">
        <ele>3.5</ele>
        <time>2020-08-15T14:23:26Z</time>
      </trkpt>
      <trkpt lat="51.216771" lon="4.481899">
        <ele>3.5</ele>
        <time>2020-08-15T14:23:29Z</time>
      </trkpt>
      <trkpt lat="51.216688" lon="4.481914">
        <ele>3.4</ele>
        <time>2020-08-15T14:23:32Z</time>
      </trkpt>
      <trkpt lat="51.21659" lon="4.481934">
        <ele>3.3</ele>
        <time>2020-08-15T14:23:35Z</time>
      </trkpt>
      <trkpt lat="51.216482" lon="4.481957">
        <ele>3.2</ele>
        <time>2020-08-15T14:23:38Z</time>
      </trkpt>
      <trkpt lat="51.216373" lon="4.481975">
        <ele>3.1</ele>
        <time>2020-08-15T14:23:41Z</time>
      </trkpt>
      <trkpt lat="51.216265" lon="4.481981">
        <ele>3</ele>
        <time>2020-08-15T14:23:44Z</time>
      </trkpt>
      <trkpt lat="51.216188" lon="4.482032">
        <ele>3</ele>
        <time>2020-08-15T14:23:50Z</time>
      </trkpt>
      <trkpt lat="51.216232" lon="4.482168">
        <ele>3</ele>
        <time>2020-08-15T14:23:56Z</time>
      </trkpt>
      <trkpt lat="51.216283" lon="4.482278">
        <ele>3</ele>
        <time>2020-08-15T14:24:16Z</time>
      </trkpt>
      <trkpt lat="51.216349" lon="4.482376">
        <ele>3</ele>
        <time>2020-08-15T14:24:22Z</time>
      </trkpt>
      <trkpt lat="51.216436" lon="4.482368">
        <ele>3.1</ele>
        <time>2020-08-15T14:24:25Z</time>
      </trkpt>
      <trkpt lat="51.216524" lon="4.482353">
        <ele>3.2</ele>
        <time>2020-08-15T14:24:28Z</time>
      </trkpt>
      <trkpt lat="51.216606" lon="4.482341">
        <ele>3.3</ele>
        <time>2020-08-15T14:24:31Z</time>
      </trkpt>
      <trkpt lat="51.216699" lon="4.482322">
        <ele>3.5</ele>
        <time>2020-08-15T14:24:34Z</time>
      </trkpt>
      <trkpt lat="51.216799" lon="4.4823">
        <ele>3.6</ele>
        <time>2020-08-15T14:24:37Z</time>
      </trkpt>
      <trkpt lat="51.216904" lon="4.482274">
        <ele>3.8</ele>
        <time>2020-08-15T14:24:40Z</time>
      </trkpt>
      <trkpt lat="51.216993" lon="4.482275">
        <ele>4</ele>
        <time>2020-08-15T14:24:43Z</time>
      </trkpt>
      <trkpt lat="51.217018" lon="4.482429">
        <ele>4.1</ele>
        <time>2020-08-15T14:24:46Z</time>
      </trkpt>
      <trkpt lat="51.217003" lon="4.482609">
        <ele>4.2</ele>
        <time>2020-08-15T14:24:49Z</time>
      </trkpt>
      <trkpt lat="51.216977" lon="4.482791">
        <ele>4.3</ele>
        <time>2020-08-15T14:24:52Z</time>
      </trkpt>
      <trkpt lat="51.216961" lon="4.482918">
        <ele>4.3</ele>
        <time>2020-08-15T14:24:54Z</time>
      </trkpt>
      <trkpt lat="51.216941" lon="4.483099">
        <ele>4.2</ele>
        <time>2020-08-15T14:24:57Z</time>
      </trkpt>
      <trkpt lat="51.216933" lon="4.483288">
        <ele>4.1</ele>
        <time>2020-08-15T14:25:00Z</time>
      </trkpt>
      <trkpt lat="51.216926" lon="4.483475">
        <ele>4</ele>
        <time>2020-08-15T14:25:03Z</time>
      </trkpt>
      <trkpt lat="51.216926" lon="4.483661">
        <ele>3.8</ele>
        <time>2020-08-15T14:25:06Z</time>
      </trkpt>
      <trkpt lat="51.216931" lon="4.48383">
        <ele>3.6</ele>
        <time>2020-08-15T14:25:09Z</time>
      </trkpt>
      <trkpt lat="51.216934" lon="4.483993">
        <ele>3.5</ele>
        <time>2020-08-15T14:25:12Z</time>
      </trkpt>
      <trkpt lat="51.216925" lon="4.48416">
        <ele>3.3</ele>
        <time>2020-08-15T14:25:15Z</time>
      </trkpt>
      <trkpt lat="51.216917" lon="4.48432">
        <ele>3.2</ele>
        <time>2020-08-15T14:25:18Z</time>
      </trkpt>
      <trkpt lat="51.216903" lon="4.484483">
        <ele>3.1</ele>
        <time>2020-08-15T14:25:21Z</time>
      </trkpt>
      <trkpt lat="51.21689" lon="4.484649">
        <ele>3</ele>
        <time>2020-08-15T14:25:24Z</time>
      </trkpt>
      <trkpt lat="51.216881" lon="4.484822">
        <ele>3</ele>
        <time>2020-08-15T14:25:27Z</time>
      </trkpt>
      <trkpt lat="51.216878" lon="4.484998">
        <ele>3</ele>
        <time>2020-08-15T14:25:30Z</time>
      </trkpt>
      <trkpt lat="51.216876" lon="4.485173">
        <ele>3</ele>
        <time>2020-08-15T14:25:33Z</time>
      </trkpt>
      <trkpt lat="51.216868" lon="4.485339">
        <ele>3</ele>
        <time>2020-08-15T14:25:36Z</time>
      </trkpt>
      <trkpt lat="51.21686" lon="4.485493">
        <ele>3</ele>
        <time>2020-08-15T14:25:39Z</time>
      </trkpt>
      <trkpt lat="51.216855" lon="4.485661">
        <ele>3</ele>
        <time>2020-08-15T14:25:42Z</time>
      </trkpt>
      <trkpt lat="51.216845" lon="4.485839">
        <ele>2.9</ele>
        <time>2020-08-15T14:25:45Z</time>
      </trkpt>
      <trkpt lat="51.216832" lon="4.486005">
        <ele>2.8</ele>
        <time>2020-08-15T14:25:48Z</time>
      </trkpt>
      <trkpt lat="51.21681" lon="4.486144">
        <ele>2.7</ele>
        <time>2020-08-15T14:25:51Z</time>
      </trkpt>
      <trkpt lat="51.216801" lon="4.486288">
        <ele>2.6</ele>
        <time>2020-08-15T14:25:54Z</time>
      </trkpt>
      <trkpt lat="51.216818" lon="4.486455">
        <ele>2.5</ele>
        <time>2020-08-15T14:25:57Z</time>
      </trkpt>
      <trkpt lat="51.216882" lon="4.486594">
        <ele>2.5</ele>
        <time>2020-08-15T14:26:00Z</time>
      </trkpt>
      <trkpt lat="51.21698" lon="4.486664">
        <ele>2.3</ele>
        <time>2020-08-15T14:26:03Z</time>
      </trkpt>
      <trkpt lat="51.21707" lon="4.486637">
        <ele>2.1</ele>
        <time>2020-08-15T14:26:06Z</time>
      </trkpt>
      <trkpt lat="51.21717" lon="4.486664">
        <ele>1.9</ele>
        <time>2020-08-15T14:26:10Z</time>
      </trkpt>
      <trkpt lat="51.21719" lon="4.48683">
        <ele>1.7</ele>
        <time>2020-08-15T14:26:13Z</time>
      </trkpt>
      <trkpt lat="51.217189" lon="4.487023">
        <ele>1.5</ele>
        <time>2020-08-15T14:26:16Z</time>
      </trkpt>
      <trkpt lat="51.21719" lon="4.487152">
        <ele>1.5</ele>
        <time>2020-08-15T14:26:18Z</time>
      </trkpt>
      <trkpt lat="51.217198" lon="4.487331">
        <ele>1.6</ele>
        <time>2020-08-15T14:26:21Z</time>
      </trkpt>
      <trkpt lat="51.217203" lon="4.487493">
        <ele>1.8</ele>
        <time>2020-08-15T14:26:24Z</time>
      </trkpt>
      <trkpt lat="51.217208" lon="4.487653">
        <ele>2</ele>
        <time>2020-08-15T14:26:27Z</time>
      </trkpt>
      <trkpt lat="51.217218" lon="4.487829">
        <ele>2.2</ele>
        <time>2020-08-15T14:26:30Z</time>
      </trkpt>
      <trkpt lat="51.217221" lon="4.488018">
        <ele>2.5</ele>
        <time>2020-08-15T14:26:33Z</time>
      </trkpt>
      <trkpt lat="51.21723" lon="4.488152">
        <ele>2.8</ele>
        <time>2020-08-15T14:26:35Z</time>
      </trkpt>
      <trkpt lat="51.217243" lon="4.488286">
        <ele>3.2</ele>
        <time>2020-08-15T14:26:37Z</time>
      </trkpt>
      <trkpt lat="51.217261" lon="4.488417">
        <ele>3.5</ele>
        <time>2020-08-15T14:26:39Z</time>
      </trkpt>
      <trkpt lat="51.217286" lon="4.488598">
        <ele>3.9</ele>
        <time>2020-08-15T14:26:42Z</time>
      </trkpt>
      <trkpt lat="51.217296" lon="4.488776">
        <ele>4.2</ele>
        <time>2020-08-15T14:26:45Z</time>
      </trkpt>
      <trkpt lat="51.217308" lon="4.488946">
        <ele>4.3</ele>
        <time>2020-08-15T14:26:48Z</time>
      </trkpt>
      <trkpt lat="51.217324" lon="4.489104">
        <ele>4.3</ele>
        <time>2020-08-15T14:26:51Z</time>
      </trkpt>
      <trkpt lat="51.217348" lon="4.489275">
        <ele>4.2</ele>
        <time>2020-08-15T14:26:54Z</time>
      </trkpt>
      <trkpt lat="51.217368" lon="4.489441">
        <ele>4.1</ele>
        <time>2020-08-15T14:26:57Z</time>
      </trkpt>
      <trkpt lat="51.21739" lon="4.489596">
        <ele>3.9</ele>
        <time>2020-08-15T14:27:00Z</time>
      </trkpt>
      <trkpt lat="51.217408" lon="4.489775">
        <ele>3.6</ele>
        <time>2020-08-15T14:27:03Z</time>
      </trkpt>
      <trkpt lat="51.217421" lon="4.489956">
        <ele>3.5</ele>
        <time>2020-08-15T14:27:06Z</time>
      </trkpt>
      <trkpt lat="51.217438" lon="4.490131">
        <ele>3.3</ele>
        <time>2020-08-15T14:27:09Z</time>
      </trkpt>
      <trkpt lat="51.217447" lon="4.490308">
        <ele>3.2</ele>
        <time>2020-08-15T14:27:12Z</time>
      </trkpt>
      <trkpt lat="51.217462" lon="4.490483">
        <ele>3.1</ele>
        <time>2020-08-15T14:27:15Z</time>
      </trkpt>
      <trkpt lat="51.217457" lon="4.490642">
        <ele>3.1</ele>
        <time>2020-08-15T14:27:18Z</time>
      </trkpt>
      <trkpt lat="51.217462" lon="4.49081">
        <ele>3.2</ele>
        <time>2020-08-15T14:27:21Z</time>
      </trkpt>
      <trkpt lat="51.217474" lon="4.490967">
        <ele>3.3</ele>
        <time>2020-08-15T14:27:24Z</time>
      </trkpt>
      <trkpt lat="51.217481" lon="4.491107">
        <ele>3.4</ele>
        <time>2020-08-15T14:27:27Z</time>
      </trkpt>
      <trkpt lat="51.217487" lon="4.491259">
        <ele>3.5</ele>
        <time>2020-08-15T14:27:30Z</time>
      </trkpt>
      <trkpt lat="51.217496" lon="4.491421">
        <ele>3.5</ele>
        <time>2020-08-15T14:27:33Z</time>
      </trkpt>
      <trkpt lat="51.2175" lon="4.491592">
        <ele>3.6</ele>
        <time>2020-08-15T14:27:36Z</time>
      </trkpt>
      <trkpt lat="51.217514" lon="4.491754">
        <ele>3.6</ele>
        <time>2020-08-15T14:27:39Z</time>
      </trkpt>
      <trkpt lat="51.217533" lon="4.491904">
        <ele>3.5</ele>
        <time>2020-08-15T14:27:42Z</time>
      </trkpt>
      <trkpt lat="51.217542" lon="4.492067">
        <ele>3.4</ele>
        <time>2020-08-15T14:27:45Z</time>
      </trkpt>
      <trkpt lat="51.217558" lon="4.492223">
        <ele>3.2</ele>
        <time>2020-08-15T14:27:48Z</time>
      </trkpt>
      <trkpt lat="51.217569" lon="4.492393">
        <ele>3</ele>
        <time>2020-08-15T14:27:51Z</time>
      </trkpt>
      <trkpt lat="51.217592" lon="4.492566">
        <ele>2.9</ele>
        <time>2020-08-15T14:27:54Z</time>
      </trkpt>
      <trkpt lat="51.217608" lon="4.49273">
        <ele>2.8</ele>
        <time>2020-08-15T14:27:57Z</time>
      </trkpt>
      <trkpt lat="51.217613" lon="4.492886">
        <ele>2.8</ele>
        <time>2020-08-15T14:28:00Z</time>
      </trkpt>
      <trkpt lat="51.217604" lon="4.493026">
        <ele>2.8</ele>
        <time>2020-08-15T14:28:03Z</time>
      </trkpt>
      <trkpt lat="51.21762" lon="4.493156">
        <ele>3</ele>
        <time>2020-08-15T14:28:06Z</time>
      </trkpt>
      <trkpt lat="51.217642" lon="4.493293">
        <ele>3.2</ele>
        <time>2020-08-15T14:28:09Z</time>
      </trkpt>
      <trkpt lat="51.217658" lon="4.493452">
        <ele>3.4</ele>
        <time>2020-08-15T14:28:12Z</time>
      </trkpt>
      <trkpt lat="51.217673" lon="4.493609">
        <ele>3.7</ele>
        <time>2020-08-15T14:28:15Z</time>
      </trkpt>
      <trkpt lat="51.217683" lon="4.493775">
        <ele>4.1</ele>
        <time>2020-08-15T14:28:18Z</time>
      </trkpt>
      <trkpt lat="51.217692" lon="4.493945">
        <ele>4.5</ele>
        <time>2020-08-15T14:28:21Z</time>
      </trkpt>
      <trkpt lat="51.217691" lon="4.49411">
        <ele>4.8</ele>
        <time>2020-08-15T14:28:24Z</time>
      </trkpt>
      <trkpt lat="51.217736" lon="4.49425">
        <ele>5</ele>
        <time>2020-08-15T14:28:27Z</time>
      </trkpt>
      <trkpt lat="51.217794" lon="4.494389">
        <ele>5.2</ele>
        <time>2020-08-15T14:28:30Z</time>
      </trkpt>
      <trkpt lat="51.217845" lon="4.494529">
        <ele>5.3</ele>
        <time>2020-08-15T14:28:33Z</time>
      </trkpt>
      <trkpt lat="51.217894" lon="4.494675">
        <ele>5.3</ele>
        <time>2020-08-15T14:28:36Z</time>
      </trkpt>
      <trkpt lat="51.217936" lon="4.494819">
        <ele>5.2</ele>
        <time>2020-08-15T14:28:39Z</time>
      </trkpt>
      <trkpt lat="51.21798" lon="4.494984">
        <ele>5.1</ele>
        <time>2020-08-15T14:28:42Z</time>
      </trkpt>
      <trkpt lat="51.218028" lon="4.495135">
        <ele>5</ele>
        <time>2020-08-15T14:28:45Z</time>
      </trkpt>
      <trkpt lat="51.218075" lon="4.495278">
        <ele>4.8</ele>
        <time>2020-08-15T14:28:49Z</time>
      </trkpt>
      <trkpt lat="51.218115" lon="4.495407">
        <ele>4.5</ele>
        <time>2020-08-15T14:28:52Z</time>
      </trkpt>
      <trkpt lat="51.218164" lon="4.49558">
        <ele>4.3</ele>
        <time>2020-08-15T14:28:55Z</time>
      </trkpt>
      <trkpt lat="51.2182" lon="4.495698">
        <ele>4</ele>
        <time>2020-08-15T14:28:57Z</time>
      </trkpt>
      <trkpt lat="51.218285" lon="4.495815">
        <ele>3.8</ele>
        <time>2020-08-15T14:29:00Z</time>
      </trkpt>
      <trkpt lat="51.218375" lon="4.495805">
        <ele>3.6</ele>
        <time>2020-08-15T14:29:02Z</time>
      </trkpt>
      <trkpt lat="51.218463" lon="4.495786">
        <ele>3.5</ele>
        <time>2020-08-15T14:29:04Z</time>
      </trkpt>
      <trkpt lat="51.218581" lon="4.49577">
        <ele>3.5</ele>
        <time>2020-08-15T14:29:07Z</time>
      </trkpt>
      <trkpt lat="51.21868" lon="4.495771">
        <ele>3.5</ele>
        <time>2020-08-15T14:29:10Z</time>
      </trkpt>
      <trkpt lat="51.218779" lon="4.495765">
        <ele>3.5</ele>
        <time>2020-08-15T14:29:13Z</time>
      </trkpt>
      <trkpt lat="51.218881" lon="4.495755">
        <ele>3.6</ele>
        <time>2020-08-15T14:29:16Z</time>
      </trkpt>
      <trkpt lat="51.218983" lon="4.49575">
        <ele>3.8</ele>
        <time>2020-08-15T14:29:19Z</time>
      </trkpt>
      <trkpt lat="51.219079" lon="4.495749">
        <ele>4.1</ele>
        <time>2020-08-15T14:29:22Z</time>
      </trkpt>
      <trkpt lat="51.219161" lon="4.495759">
        <ele>4.4</ele>
        <time>2020-08-15T14:29:25Z</time>
      </trkpt>
      <trkpt lat="51.219265" lon="4.495761">
        <ele>4.6</ele>
        <time>2020-08-15T14:29:29Z</time>
      </trkpt>
      <trkpt lat="51.219361" lon="4.495764">
        <ele>4.9</ele>
        <time>2020-08-15T14:29:33Z</time>
      </trkpt>
      <trkpt lat="51.219462" lon="4.495773">
        <ele>5.1</ele>
        <time>2020-08-15T14:29:37Z</time>
      </trkpt>
      <trkpt lat="51.219546" lon="4.495775">
        <ele>5.3</ele>
        <time>2020-08-15T14:29:40Z</time>
      </trkpt>
      <trkpt lat="51.219643" lon="4.495767">
        <ele>5.5</ele>
        <time>2020-08-15T14:29:43Z</time>
      </trkpt>
      <trkpt lat="51.219748" lon="4.495762">
        <ele>5.6</ele>
        <time>2020-08-15T14:29:46Z</time>
      </trkpt>
      <trkpt lat="51.219849" lon="4.495763">
        <ele>5.7</ele>
        <time>2020-08-15T14:29:49Z</time>
      </trkpt>
      <trkpt lat="51.219955" lon="4.49579">
        <ele>5.8</ele>
        <time>2020-08-15T14:29:52Z</time>
      </trkpt>
      <trkpt lat="51.220026" lon="4.495934">
        <ele>5.8</ele>
        <time>2020-08-15T14:29:55Z</time>
      </trkpt>
      <trkpt lat="51.220064" lon="4.496058">
        <ele>5.8</ele>
        <time>2020-08-15T14:29:57Z</time>
      </trkpt>
      <trkpt lat="51.220103" lon="4.496173">
        <ele>5.8</ele>
        <time>2020-08-15T14:29:59Z</time>
      </trkpt>
      <trkpt lat="51.220161" lon="4.49633">
        <ele>5.7</ele>
        <time>2020-08-15T14:30:02Z</time>
      </trkpt>
      <trkpt lat="51.220218" lon="4.49649">
        <ele>5.6</ele>
        <time>2020-08-15T14:30:05Z</time>
      </trkpt>
      <trkpt lat="51.220272" lon="4.496637">
        <ele>5.6</ele>
        <time>2020-08-15T14:30:08Z</time>
      </trkpt>
      <trkpt lat="51.220324" lon="4.496776">
        <ele>5.7</ele>
        <time>2020-08-15T14:30:11Z</time>
      </trkpt>
      <trkpt lat="51.220369" lon="4.496922">
        <ele>5.7</ele>
        <time>2020-08-15T14:30:14Z</time>
      </trkpt>
      <trkpt lat="51.220333" lon="4.4971">
        <ele>5.7</ele>
        <time>2020-08-15T14:30:17Z</time>
      </trkpt>
      <trkpt lat="51.22028" lon="4.497265">
        <ele>5.7</ele>
        <time>2020-08-15T14:30:20Z</time>
      </trkpt>
      <trkpt lat="51.220214" lon="4.497373">
        <ele>5.7</ele>
        <time>2020-08-15T14:30:24Z</time>
      </trkpt>
      <trkpt lat="51.220123" lon="4.497371">
        <ele>5.7</ele>
        <time>2020-08-15T14:30:28Z</time>
      </trkpt>
      <trkpt lat="51.220048" lon="4.497305">
        <ele>5.6</ele>
        <time>2020-08-15T14:30:31Z</time>
      </trkpt>
      <trkpt lat="51.219971" lon="4.497236">
        <ele>5.5</ele>
        <time>2020-08-15T14:30:34Z</time>
      </trkpt>
      <trkpt lat="51.219885" lon="4.497171">
        <ele>5.4</ele>
        <time>2020-08-15T14:30:37Z</time>
      </trkpt>
      <trkpt lat="51.21979" lon="4.497103">
        <ele>5.3</ele>
        <time>2020-08-15T14:30:40Z</time>
      </trkpt>
      <trkpt lat="51.219685" lon="4.497031">
        <ele>5.2</ele>
        <time>2020-08-15T14:30:43Z</time>
      </trkpt>
      <trkpt lat="51.219577" lon="4.496968">
        <ele>5</ele>
        <time>2020-08-15T14:30:46Z</time>
      </trkpt>
      <trkpt lat="51.219473" lon="4.496899">
        <ele>4.8</ele>
        <time>2020-08-15T14:30:49Z</time>
      </trkpt>
      <trkpt lat="51.219372" lon="4.496844">
        <ele>4.6</ele>
        <time>2020-08-15T14:30:52Z</time>
      </trkpt>
      <trkpt lat="51.219272" lon="4.496783">
        <ele>4.5</ele>
        <time>2020-08-15T14:30:55Z</time>
      </trkpt>
      <trkpt lat="51.219173" lon="4.49672">
        <ele>4.3</ele>
        <time>2020-08-15T14:30:58Z</time>
      </trkpt>
      <trkpt lat="51.219069" lon="4.496647">
        <ele>4.1</ele>
        <time>2020-08-15T14:31:01Z</time>
      </trkpt>
      <trkpt lat="51.218972" lon="4.496577">
        <ele>4</ele>
        <time>2020-08-15T14:31:04Z</time>
      </trkpt>
      <trkpt lat="51.218872" lon="4.496509">
        <ele>4.1</ele>
        <time>2020-08-15T14:31:07Z</time>
      </trkpt>
      <trkpt lat="51.218769" lon="4.496454">
        <ele>4.2</ele>
        <time>2020-08-15T14:31:10Z</time>
      </trkpt>
      <trkpt lat="51.218669" lon="4.496399">
        <ele>4.3</ele>
        <time>2020-08-15T14:31:13Z</time>
      </trkpt>
      <trkpt lat="51.218577" lon="4.496349">
        <ele>4.4</ele>
        <time>2020-08-15T14:31:16Z</time>
      </trkpt>
      <trkpt lat="51.218484" lon="4.496294">
        <ele>4.5</ele>
        <time>2020-08-15T14:31:19Z</time>
      </trkpt>
      <trkpt lat="51.218396" lon="4.496245">
        <ele>4.5</ele>
        <time>2020-08-15T14:31:22Z</time>
      </trkpt>
      <trkpt lat="51.218313" lon="4.496196">
        <ele>4.5</ele>
        <time>2020-08-15T14:31:25Z</time>
      </trkpt>
      <trkpt lat="51.218224" lon="4.496145">
        <ele>4.6</ele>
        <time>2020-08-15T14:31:28Z</time>
      </trkpt>
      <trkpt lat="51.21814" lon="4.496087">
        <ele>4.7</ele>
        <time>2020-08-15T14:31:31Z</time>
      </trkpt>
      <trkpt lat="51.218057" lon="4.496033">
        <ele>4.7</ele>
        <time>2020-08-15T14:31:34Z</time>
      </trkpt>
      <trkpt lat="51.217982" lon="4.495971">
        <ele>4.7</ele>
        <time>2020-08-15T14:31:37Z</time>
      </trkpt>
      <trkpt lat="51.217902" lon="4.495925">
        <ele>4.6</ele>
        <time>2020-08-15T14:31:40Z</time>
      </trkpt>
      <trkpt lat="51.217815" lon="4.495882">
        <ele>4.5</ele>
        <time>2020-08-15T14:31:43Z</time>
      </trkpt>
      <trkpt lat="51.217724" lon="4.495832">
        <ele>4.2</ele>
        <time>2020-08-15T14:31:46Z</time>
      </trkpt>
      <trkpt lat="51.217637" lon="4.495783">
        <ele>3.9</ele>
        <time>2020-08-15T14:31:49Z</time>
      </trkpt>
      <trkpt lat="51.217549" lon="4.495736">
        <ele>3.6</ele>
        <time>2020-08-15T14:31:53Z</time>
      </trkpt>
      <trkpt lat="51.217451" lon="4.495704">
        <ele>3.5</ele>
        <time>2020-08-15T14:32:24Z</time>
      </trkpt>
      <trkpt lat="51.217368" lon="4.495667">
        <ele>3.2</ele>
        <time>2020-08-15T14:32:27Z</time>
      </trkpt>
      <trkpt lat="51.217283" lon="4.495631">
        <ele>3</ele>
        <time>2020-08-15T14:32:30Z</time>
      </trkpt>
      <trkpt lat="51.217201" lon="4.495624">
        <ele>2.8</ele>
        <time>2020-08-15T14:32:33Z</time>
      </trkpt>
      <trkpt lat="51.217106" lon="4.495599">
        <ele>2.7</ele>
        <time>2020-08-15T14:32:36Z</time>
      </trkpt>
      <trkpt lat="51.217004" lon="4.495566">
        <ele>2.7</ele>
        <time>2020-08-15T14:32:39Z</time>
      </trkpt>
      <trkpt lat="51.216897" lon="4.495528">
        <ele>2.7</ele>
        <time>2020-08-15T14:32:42Z</time>
      </trkpt>
      <trkpt lat="51.216786" lon="4.495501">
        <ele>2.8</ele>
        <time>2020-08-15T14:32:45Z</time>
      </trkpt>
      <trkpt lat="51.216687" lon="4.495482">
        <ele>2.9</ele>
        <time>2020-08-15T14:32:48Z</time>
      </trkpt>
      <trkpt lat="51.216581" lon="4.495463">
        <ele>3</ele>
        <time>2020-08-15T14:32:51Z</time>
      </trkpt>
      <trkpt lat="51.216479" lon="4.495433">
        <ele>3.1</ele>
        <time>2020-08-15T14:32:54Z</time>
      </trkpt>
      <trkpt lat="51.216378" lon="4.495407">
        <ele>3.1</ele>
        <time>2020-08-15T14:32:57Z</time>
      </trkpt>
      <trkpt lat="51.216274" lon="4.49537">
        <ele>3.1</ele>
        <time>2020-08-15T14:33:00Z</time>
      </trkpt>
      <trkpt lat="51.216169" lon="4.495328">
        <ele>3</ele>
        <time>2020-08-15T14:33:03Z</time>
      </trkpt>
      <trkpt lat="51.216075" lon="4.495276">
        <ele>2.9</ele>
        <time>2020-08-15T14:33:06Z</time>
      </trkpt>
      <trkpt lat="51.215983" lon="4.495223">
        <ele>2.8</ele>
        <time>2020-08-15T14:33:09Z</time>
      </trkpt>
      <trkpt lat="51.215894" lon="4.495172">
        <ele>2.7</ele>
        <time>2020-08-15T14:33:12Z</time>
      </trkpt>
      <trkpt lat="51.215801" lon="4.49512">
        <ele>2.6</ele>
        <time>2020-08-15T14:33:15Z</time>
      </trkpt>
      <trkpt lat="51.2157" lon="4.495077">
        <ele>2.5</ele>
        <time>2020-08-15T14:33:18Z</time>
      </trkpt>
      <trkpt lat="51.2156" lon="4.495024">
        <ele>2.5</ele>
        <time>2020-08-15T14:33:21Z</time>
      </trkpt>
      <trkpt lat="51.215498" lon="4.494975">
        <ele>2.5</ele>
        <time>2020-08-15T14:33:24Z</time>
      </trkpt>
      <trkpt lat="51.215403" lon="4.494927">
        <ele>2.5</ele>
        <time>2020-08-15T14:33:27Z</time>
      </trkpt>
      <trkpt lat="51.215318" lon="4.494871">
        <ele>2.6</ele>
        <time>2020-08-15T14:33:38Z</time>
      </trkpt>
      <trkpt lat="51.215218" lon="4.494838">
        <ele>2.6</ele>
        <time>2020-08-15T14:33:42Z</time>
      </trkpt>
      <trkpt lat="51.215132" lon="4.494807">
        <ele>2.7</ele>
        <time>2020-08-15T14:33:46Z</time>
      </trkpt>
      <trkpt lat="51.215111" lon="4.494818">
        <ele>2.8</ele>
        <time>2020-08-15T14:33:54Z</time>
      </trkpt>
      <trkpt lat="51.215101" lon="4.49491">
        <ele>4</ele>
        <time>2020-08-15T14:35:02Z</time>
      </trkpt>
      <trkpt lat="51.215059" lon="4.495069">
        <ele>4.6</ele>
        <time>2020-08-15T14:35:06Z</time>
      </trkpt>
      <trkpt lat="51.21506" lon="4.495237">
        <ele>4.9</ele>
        <time>2020-08-15T14:35:10Z</time>
      </trkpt>
      <trkpt lat="51.215095" lon="4.495377">
        <ele>5.1</ele>
        <time>2020-08-15T14:35:13Z</time>
      </trkpt>
      <trkpt lat="51.215058" lon="4.495538">
        <ele>5.3</ele>
        <time>2020-08-15T14:35:16Z</time>
      </trkpt>
      <trkpt lat="51.214993" lon="4.495681">
        <ele>5.5</ele>
        <time>2020-08-15T14:35:19Z</time>
      </trkpt>
      <trkpt lat="51.214898" lon="4.495783">
        <ele>5.7</ele>
        <time>2020-08-15T14:35:22Z</time>
      </trkpt>
      <trkpt lat="51.214789" lon="4.495826">
        <ele>5.8</ele>
        <time>2020-08-15T14:35:25Z</time>
      </trkpt>
      <trkpt lat="51.21467" lon="4.49584">
        <ele>5.9</ele>
        <time>2020-08-15T14:35:28Z</time>
      </trkpt>
      <trkpt lat="51.214552" lon="4.49587">
        <ele>6</ele>
        <time>2020-08-15T14:35:31Z</time>
      </trkpt>
      <trkpt lat="51.214445" lon="4.4959">
        <ele>6</ele>
        <time>2020-08-15T14:35:34Z</time>
      </trkpt>
      <trkpt lat="51.214345" lon="4.495915">
        <ele>5.9</ele>
        <time>2020-08-15T14:35:37Z</time>
      </trkpt>
      <trkpt lat="51.214252" lon="4.495939">
        <ele>5.8</ele>
        <time>2020-08-15T14:35:40Z</time>
      </trkpt>
      <trkpt lat="51.214158" lon="4.49596">
        <ele>5.8</ele>
        <time>2020-08-15T14:35:43Z</time>
      </trkpt>
      <trkpt lat="51.214057" lon="4.495989">
        <ele>5.9</ele>
        <time>2020-08-15T14:35:46Z</time>
      </trkpt>
      <trkpt lat="51.213951" lon="4.496025">
        <ele>6.1</ele>
        <time>2020-08-15T14:35:49Z</time>
      </trkpt>
      <trkpt lat="51.21385" lon="4.496083">
        <ele>6.4</ele>
        <time>2020-08-15T14:35:52Z</time>
      </trkpt>
      <trkpt lat="51.213746" lon="4.496148">
        <ele>6.6</ele>
        <time>2020-08-15T14:35:55Z</time>
      </trkpt>
      <trkpt lat="51.213633" lon="4.49622">
        <ele>7</ele>
        <time>2020-08-15T14:35:58Z</time>
      </trkpt>
      <trkpt lat="51.213522" lon="4.496286">
        <ele>7.4</ele>
        <time>2020-08-15T14:36:01Z</time>
      </trkpt>
      <trkpt lat="51.213429" lon="4.496358">
        <ele>7.7</ele>
        <time>2020-08-15T14:36:04Z</time>
      </trkpt>
      <trkpt lat="51.21333" lon="4.496414">
        <ele>8.1</ele>
        <time>2020-08-15T14:36:07Z</time>
      </trkpt>
      <trkpt lat="51.213228" lon="4.496448">
        <ele>8.5</ele>
        <time>2020-08-15T14:36:10Z</time>
      </trkpt>
      <trkpt lat="51.213111" lon="4.496425">
        <ele>8.7</ele>
        <time>2020-08-15T14:36:13Z</time>
      </trkpt>
      <trkpt lat="51.213033" lon="4.496395">
        <ele>8.8</ele>
        <time>2020-08-15T14:36:15Z</time>
      </trkpt>
      <trkpt lat="51.212929" lon="4.496361">
        <ele>8.8</ele>
        <time>2020-08-15T14:36:18Z</time>
      </trkpt>
      <trkpt lat="51.212818" lon="4.496323">
        <ele>8.8</ele>
        <time>2020-08-15T14:36:21Z</time>
      </trkpt>
      <trkpt lat="51.212714" lon="4.496297">
        <ele>8.8</ele>
        <time>2020-08-15T14:36:24Z</time>
      </trkpt>
      <trkpt lat="51.212628" lon="4.496283">
        <ele>8.8</ele>
        <time>2020-08-15T14:36:27Z</time>
      </trkpt>
      <trkpt lat="51.212538" lon="4.49622">
        <ele>8.8</ele>
        <time>2020-08-15T14:36:32Z</time>
      </trkpt>
      <trkpt lat="51.212461" lon="4.496272">
        <ele>8.8</ele>
        <time>2020-08-15T14:36:35Z</time>
      </trkpt>
      <trkpt lat="51.212419" lon="4.496434">
        <ele>8.8</ele>
        <time>2020-08-15T14:36:38Z</time>
      </trkpt>
      <trkpt lat="51.212378" lon="4.496593">
        <ele>8.8</ele>
        <time>2020-08-15T14:36:41Z</time>
      </trkpt>
      <trkpt lat="51.212327" lon="4.496751">
        <ele>8.7</ele>
        <time>2020-08-15T14:36:44Z</time>
      </trkpt>
      <trkpt lat="51.212289" lon="4.4969">
        <ele>8.6</ele>
        <time>2020-08-15T14:36:47Z</time>
      </trkpt>
      <trkpt lat="51.212253" lon="4.497044">
        <ele>8.6</ele>
        <time>2020-08-15T14:36:50Z</time>
      </trkpt>
      <trkpt lat="51.212213" lon="4.497189">
        <ele>8.7</ele>
        <time>2020-08-15T14:36:53Z</time>
      </trkpt>
      <trkpt lat="51.212174" lon="4.497336">
        <ele>8.7</ele>
        <time>2020-08-15T14:36:56Z</time>
      </trkpt>
      <trkpt lat="51.212133" lon="4.497485">
        <ele>8.8</ele>
        <time>2020-08-15T14:36:59Z</time>
      </trkpt>
      <trkpt lat="51.212096" lon="4.497636">
        <ele>9</ele>
        <time>2020-08-15T14:37:02Z</time>
      </trkpt>
      <trkpt lat="51.212046" lon="4.497783">
        <ele>9.3</ele>
        <time>2020-08-15T14:37:05Z</time>
      </trkpt>
      <trkpt lat="51.21199" lon="4.49792">
        <ele>9.5</ele>
        <time>2020-08-15T14:37:08Z</time>
      </trkpt>
      <trkpt lat="51.21193" lon="4.498053">
        <ele>9.7</ele>
        <time>2020-08-15T14:37:11Z</time>
      </trkpt>
      <trkpt lat="51.21187" lon="4.498177">
        <ele>9.5</ele>
        <time>2020-08-15T14:37:14Z</time>
      </trkpt>
      <trkpt lat="51.211814" lon="4.498272">
        <ele>9.5</ele>
        <time>2020-08-15T14:37:17Z</time>
      </trkpt>
      <trkpt lat="51.211748" lon="4.498385">
        <ele>9.3</ele>
        <time>2020-08-15T14:37:21Z</time>
      </trkpt>
      <trkpt lat="51.211686" lon="4.498485">
        <ele>9</ele>
        <time>2020-08-15T14:37:25Z</time>
      </trkpt>
      <trkpt lat="51.211611" lon="4.49858">
        <ele>8.6</ele>
        <time>2020-08-15T14:37:29Z</time>
      </trkpt>
      <trkpt lat="51.211272" lon="4.49908">
        <ele>8.3</ele>
        <time>2020-08-15T14:37:46Z</time>
      </trkpt>
      <trkpt lat="51.211203" lon="4.499178">
        <ele>7.8</ele>
        <time>2020-08-15T14:37:48Z</time>
      </trkpt>
      <trkpt lat="51.211134" lon="4.499274">
        <ele>7.3</ele>
        <time>2020-08-15T14:37:50Z</time>
      </trkpt>
      <trkpt lat="51.211076" lon="4.499371">
        <ele>6.6</ele>
        <time>2020-08-15T14:37:52Z</time>
      </trkpt>
      <trkpt lat="51.211022" lon="4.49947">
        <ele>6</ele>
        <time>2020-08-15T14:37:54Z</time>
      </trkpt>
      <trkpt lat="51.210947" lon="4.499593">
        <ele>5.5</ele>
        <time>2020-08-15T14:37:57Z</time>
      </trkpt>
      <trkpt lat="51.210876" lon="4.499711">
        <ele>5.3</ele>
        <time>2020-08-15T14:38:00Z</time>
      </trkpt>
      <trkpt lat="51.210802" lon="4.499828">
        <ele>5.1</ele>
        <time>2020-08-15T14:38:03Z</time>
      </trkpt>
      <trkpt lat="51.210704" lon="4.499867">
        <ele>5</ele>
        <time>2020-08-15T14:38:06Z</time>
      </trkpt>
      <trkpt lat="51.2106" lon="4.499835">
        <ele>5</ele>
        <time>2020-08-15T14:38:09Z</time>
      </trkpt>
      <trkpt lat="51.21051" lon="4.49989">
        <ele>4.9</ele>
        <time>2020-08-15T14:38:12Z</time>
      </trkpt>
      <trkpt lat="51.210452" lon="4.5">
        <ele>4.8</ele>
        <time>2020-08-15T14:38:15Z</time>
      </trkpt>
      <trkpt lat="51.210426" lon="4.500145">
        <ele>4.7</ele>
        <time>2020-08-15T14:38:18Z</time>
      </trkpt>
      <trkpt lat="51.210457" lon="4.500302">
        <ele>4.7</ele>
        <time>2020-08-15T14:38:21Z</time>
      </trkpt>
      <trkpt lat="51.210455" lon="4.500465">
        <ele>4.7</ele>
        <time>2020-08-15T14:38:24Z</time>
      </trkpt>
      <trkpt lat="51.210445" lon="4.500608">
        <ele>4.8</ele>
        <time>2020-08-15T14:38:27Z</time>
      </trkpt>
      <trkpt lat="51.210513" lon="4.500697">
        <ele>4.9</ele>
        <time>2020-08-15T14:38:30Z</time>
      </trkpt>
      <trkpt lat="51.210593" lon="4.500782">
        <ele>5</ele>
        <time>2020-08-15T14:38:33Z</time>
      </trkpt>
      <trkpt lat="51.210595" lon="4.500957">
        <ele>5.1</ele>
        <time>2020-08-15T14:38:36Z</time>
      </trkpt>
      <trkpt lat="51.210627" lon="4.501125">
        <ele>5.2</ele>
        <time>2020-08-15T14:38:39Z</time>
      </trkpt>
      <trkpt lat="51.210666" lon="4.501286">
        <ele>5.3</ele>
        <time>2020-08-15T14:38:42Z</time>
      </trkpt>
      <trkpt lat="51.210705" lon="4.501446">
        <ele>5.5</ele>
        <time>2020-08-15T14:38:45Z</time>
      </trkpt>
      <trkpt lat="51.210749" lon="4.50159">
        <ele>5.6</ele>
        <time>2020-08-15T14:38:48Z</time>
      </trkpt>
      <trkpt lat="51.21079" lon="4.501744">
        <ele>5.7</ele>
        <time>2020-08-15T14:38:51Z</time>
      </trkpt>
      <trkpt lat="51.210827" lon="4.501911">
        <ele>5.6</ele>
        <time>2020-08-15T14:38:54Z</time>
      </trkpt>
      <trkpt lat="51.210873" lon="4.502083">
        <ele>5.5</ele>
        <time>2020-08-15T14:38:57Z</time>
      </trkpt>
      <trkpt lat="51.210919" lon="4.502253">
        <ele>5.4</ele>
        <time>2020-08-15T14:39:00Z</time>
      </trkpt>
      <trkpt lat="51.210963" lon="4.502427">
        <ele>5.1</ele>
        <time>2020-08-15T14:39:03Z</time>
      </trkpt>
      <trkpt lat="51.211007" lon="4.502599">
        <ele>4.8</ele>
        <time>2020-08-15T14:39:06Z</time>
      </trkpt>
      <trkpt lat="51.211051" lon="4.502759">
        <ele>4.5</ele>
        <time>2020-08-15T14:39:09Z</time>
      </trkpt>
      <trkpt lat="51.211097" lon="4.50292">
        <ele>4.3</ele>
        <time>2020-08-15T14:39:12Z</time>
      </trkpt>
      <trkpt lat="51.211143" lon="4.503093">
        <ele>4</ele>
        <time>2020-08-15T14:39:15Z</time>
      </trkpt>
      <trkpt lat="51.211182" lon="4.503271">
        <ele>3.7</ele>
        <time>2020-08-15T14:39:18Z</time>
      </trkpt>
      <trkpt lat="51.211205" lon="4.503395">
        <ele>3.5</ele>
        <time>2020-08-15T14:39:20Z</time>
      </trkpt>
      <trkpt lat="51.211229" lon="4.503584">
        <ele>3.3</ele>
        <time>2020-08-15T14:39:23Z</time>
      </trkpt>
      <trkpt lat="51.211247" lon="4.503763">
        <ele>3.2</ele>
        <time>2020-08-15T14:39:26Z</time>
      </trkpt>
      <trkpt lat="51.211255" lon="4.503944">
        <ele>3.1</ele>
        <time>2020-08-15T14:39:29Z</time>
      </trkpt>
      <trkpt lat="51.21126" lon="4.504122">
        <ele>3.1</ele>
        <time>2020-08-15T14:39:32Z</time>
      </trkpt>
      <trkpt lat="51.211268" lon="4.504277">
        <ele>3.2</ele>
        <time>2020-08-15T14:39:35Z</time>
      </trkpt>
      <trkpt lat="51.21127" lon="4.504422">
        <ele>3.3</ele>
        <time>2020-08-15T14:39:38Z</time>
      </trkpt>
      <trkpt lat="51.211268" lon="4.504574">
        <ele>3.4</ele>
        <time>2020-08-15T14:39:41Z</time>
      </trkpt>
      <trkpt lat="51.211276" lon="4.504732">
        <ele>3.5</ele>
        <time>2020-08-15T14:39:44Z</time>
      </trkpt>
      <trkpt lat="51.211295" lon="4.504884">
        <ele>3.5</ele>
        <time>2020-08-15T14:39:47Z</time>
      </trkpt>
      <trkpt lat="51.211311" lon="4.505042">
        <ele>3.6</ele>
        <time>2020-08-15T14:39:50Z</time>
      </trkpt>
      <trkpt lat="51.211317" lon="4.50519">
        <ele>3.6</ele>
        <time>2020-08-15T14:39:53Z</time>
      </trkpt>
      <trkpt lat="51.211298" lon="4.505325">
        <ele>3.7</ele>
        <time>2020-08-15T14:39:59Z</time>
      </trkpt>
      <trkpt lat="51.211293" lon="4.505323">
        <ele>3.8</ele>
        <time>2020-08-15T14:40:03Z</time>
      </trkpt>
      <trkpt lat="51.211323" lon="4.505707">
        <ele>3.3</ele>
        <time>2020-08-15T14:42:05Z</time>
      </trkpt>
      <trkpt lat="51.211329" lon="4.505765">
        <ele>3.1</ele>
        <time>2020-08-15T14:42:07Z</time>
      </trkpt>
      <trkpt lat="51.211341" lon="4.505911">
        <ele>2.9</ele>
        <time>2020-08-15T14:42:12Z</time>
      </trkpt>
      <trkpt lat="51.211345" lon="4.506086">
        <ele>2.7</ele>
        <time>2020-08-15T14:42:16Z</time>
      </trkpt>
      <trkpt lat="51.211346" lon="4.506234">
        <ele>2.5</ele>
        <time>2020-08-15T14:42:19Z</time>
      </trkpt>
      <trkpt lat="51.211348" lon="4.506383">
        <ele>2.5</ele>
        <time>2020-08-15T14:42:22Z</time>
      </trkpt>
      <trkpt lat="51.211352" lon="4.506538">
        <ele>2.2</ele>
        <time>2020-08-15T14:42:25Z</time>
      </trkpt>
      <trkpt lat="51.211359" lon="4.506687">
        <ele>1.9</ele>
        <time>2020-08-15T14:42:28Z</time>
      </trkpt>
      <trkpt lat="51.211357" lon="4.506827">
        <ele>1.6</ele>
        <time>2020-08-15T14:42:31Z</time>
      </trkpt>
      <trkpt lat="51.211369" lon="4.50669">
        <ele>1.5</ele>
        <time>2020-08-15T14:42:47Z</time>
      </trkpt>
      <trkpt lat="51.211356" lon="4.506542">
        <ele>1.5</ele>
        <time>2020-08-15T14:42:50Z</time>
      </trkpt>
      <trkpt lat="51.211371" lon="4.506695">
        <ele>1.5</ele>
        <time>2020-08-15T14:43:12Z</time>
      </trkpt>
      <trkpt lat="51.211369" lon="4.506868">
        <ele>1.5</ele>
        <time>2020-08-15T14:43:15Z</time>
      </trkpt>
      <trkpt lat="51.211367" lon="4.507048">
        <ele>1.6</ele>
        <time>2020-08-15T14:43:18Z</time>
      </trkpt>
      <trkpt lat="51.211374" lon="4.507201">
        <ele>1.9</ele>
        <time>2020-08-15T14:43:21Z</time>
      </trkpt>
      <trkpt lat="51.211383" lon="4.507332">
        <ele>2.2</ele>
        <time>2020-08-15T14:43:24Z</time>
      </trkpt>
      <trkpt lat="51.211379" lon="4.507484">
        <ele>2.5</ele>
        <time>2020-08-15T14:43:28Z</time>
      </trkpt>
      <trkpt lat="51.211377" lon="4.507614">
        <ele>2.8</ele>
        <time>2020-08-15T14:43:32Z</time>
      </trkpt>
      <trkpt lat="51.211389" lon="4.507771">
        <ele>3.2</ele>
        <time>2020-08-15T14:43:36Z</time>
      </trkpt>
      <trkpt lat="51.211401" lon="4.507926">
        <ele>3.5</ele>
        <time>2020-08-15T14:43:39Z</time>
      </trkpt>
      <trkpt lat="51.211405" lon="4.508084">
        <ele>3.8</ele>
        <time>2020-08-15T14:43:42Z</time>
      </trkpt>
      <trkpt lat="51.211405" lon="4.508256">
        <ele>4.1</ele>
        <time>2020-08-15T14:43:45Z</time>
      </trkpt>
      <trkpt lat="51.211409" lon="4.508437">
        <ele>4.4</ele>
        <time>2020-08-15T14:43:48Z</time>
      </trkpt>
      <trkpt lat="51.211419" lon="4.508616">
        <ele>4.6</ele>
        <time>2020-08-15T14:43:51Z</time>
      </trkpt>
      <trkpt lat="51.211428" lon="4.508785">
        <ele>4.8</ele>
        <time>2020-08-15T14:43:54Z</time>
      </trkpt>
      <trkpt lat="51.211437" lon="4.508945">
        <ele>4.9</ele>
        <time>2020-08-15T14:43:57Z</time>
      </trkpt>
      <trkpt lat="51.211445" lon="4.5091">
        <ele>4.9</ele>
        <time>2020-08-15T14:44:00Z</time>
      </trkpt>
      <trkpt lat="51.211451" lon="4.509251">
        <ele>4.8</ele>
        <time>2020-08-15T14:44:03Z</time>
      </trkpt>
      <trkpt lat="51.211442" lon="4.509411">
        <ele>4.7</ele>
        <time>2020-08-15T14:44:06Z</time>
      </trkpt>
      <trkpt lat="51.211438" lon="4.509578">
        <ele>4.6</ele>
        <time>2020-08-15T14:44:09Z</time>
      </trkpt>
      <trkpt lat="51.211446" lon="4.509748">
        <ele>4.5</ele>
        <time>2020-08-15T14:44:12Z</time>
      </trkpt>
      <trkpt lat="51.211451" lon="4.509928">
        <ele>4.5</ele>
        <time>2020-08-15T14:44:15Z</time>
      </trkpt>
      <trkpt lat="51.211457" lon="4.510116">
        <ele>4.4</ele>
        <time>2020-08-15T14:44:18Z</time>
      </trkpt>
      <trkpt lat="51.211466" lon="4.510294">
        <ele>4.3</ele>
        <time>2020-08-15T14:44:21Z</time>
      </trkpt>
      <trkpt lat="51.211468" lon="4.510461">
        <ele>4.2</ele>
        <time>2020-08-15T14:44:24Z</time>
      </trkpt>
      <trkpt lat="51.211473" lon="4.510636">
        <ele>4.2</ele>
        <time>2020-08-15T14:44:27Z</time>
      </trkpt>
      <trkpt lat="51.211483" lon="4.510819">
        <ele>4.2</ele>
        <time>2020-08-15T14:44:30Z</time>
      </trkpt>
      <trkpt lat="51.21149" lon="4.511007">
        <ele>4.3</ele>
        <time>2020-08-15T14:44:33Z</time>
      </trkpt>
      <trkpt lat="51.211495" lon="4.511187">
        <ele>4.4</ele>
        <time>2020-08-15T14:44:36Z</time>
      </trkpt>
      <trkpt lat="51.211503" lon="4.511358">
        <ele>4.5</ele>
        <time>2020-08-15T14:44:39Z</time>
      </trkpt>
      <trkpt lat="51.211508" lon="4.511537">
        <ele>4.7</ele>
        <time>2020-08-15T14:44:42Z</time>
      </trkpt>
      <trkpt lat="51.211514" lon="4.511718">
        <ele>4.9</ele>
        <time>2020-08-15T14:44:45Z</time>
      </trkpt>
      <trkpt lat="51.211523" lon="4.511894">
        <ele>5.1</ele>
        <time>2020-08-15T14:44:48Z</time>
      </trkpt>
      <trkpt lat="51.211534" lon="4.512074">
        <ele>5.3</ele>
        <time>2020-08-15T14:44:51Z</time>
      </trkpt>
      <trkpt lat="51.21154" lon="4.512264">
        <ele>5.5</ele>
        <time>2020-08-15T14:44:54Z</time>
      </trkpt>
      <trkpt lat="51.211539" lon="4.512516">
        <ele>5.5</ele>
        <time>2020-08-15T14:44:58Z</time>
      </trkpt>
      <trkpt lat="51.211549" lon="4.512645">
        <ele>5.5</ele>
        <time>2020-08-15T14:45:00Z</time>
      </trkpt>
      <trkpt lat="51.211539" lon="4.512834">
        <ele>5.5</ele>
        <time>2020-08-15T14:45:03Z</time>
      </trkpt>
      <trkpt lat="51.211522" lon="4.51301">
        <ele>5.5</ele>
        <time>2020-08-15T14:45:06Z</time>
      </trkpt>
      <trkpt lat="51.211522" lon="4.513139">
        <ele>5.5</ele>
        <time>2020-08-15T14:45:08Z</time>
      </trkpt>
      <trkpt lat="51.211252" lon="4.513499">
        <ele>5.5</ele>
        <time>2020-08-15T14:45:23Z</time>
      </trkpt>
      <trkpt lat="51.211167" lon="4.513495">
        <ele>5.4</ele>
        <time>2020-08-15T14:45:25Z</time>
      </trkpt>
      <trkpt lat="51.21108" lon="4.513509">
        <ele>5.3</ele>
        <time>2020-08-15T14:45:27Z</time>
      </trkpt>
      <trkpt lat="51.210998" lon="4.513514">
        <ele>5.1</ele>
        <time>2020-08-15T14:45:29Z</time>
      </trkpt>
      <trkpt lat="51.210895" lon="4.513541">
        <ele>4.9</ele>
        <time>2020-08-15T14:45:32Z</time>
      </trkpt>
      <trkpt lat="51.210784" lon="4.513593">
        <ele>4.7</ele>
        <time>2020-08-15T14:45:35Z</time>
      </trkpt>
      <trkpt lat="51.210674" lon="4.513637">
        <ele>4.6</ele>
        <time>2020-08-15T14:45:38Z</time>
      </trkpt>
      <trkpt lat="51.210575" lon="4.513685">
        <ele>4.5</ele>
        <time>2020-08-15T14:45:41Z</time>
      </trkpt>
      <trkpt lat="51.210477" lon="4.513726">
        <ele>4.5</ele>
        <time>2020-08-15T14:45:44Z</time>
      </trkpt>
      <trkpt lat="51.210399" lon="4.513778">
        <ele>4.4</ele>
        <time>2020-08-15T14:45:47Z</time>
      </trkpt>
      <trkpt lat="51.210353" lon="4.51389">
        <ele>4.3</ele>
        <time>2020-08-15T14:45:50Z</time>
      </trkpt>
      <trkpt lat="51.210423" lon="4.514001">
        <ele>4.2</ele>
        <time>2020-08-15T14:45:54Z</time>
      </trkpt>
      <trkpt lat="51.210525" lon="4.513994">
        <ele>4.1</ele>
        <time>2020-08-15T14:45:57Z</time>
      </trkpt>
      <trkpt lat="51.210611" lon="4.513967">
        <ele>3.9</ele>
        <time>2020-08-15T14:46:00Z</time>
      </trkpt>
      <trkpt lat="51.210697" lon="4.513947">
        <ele>3.8</ele>
        <time>2020-08-15T14:46:05Z</time>
      </trkpt>
      <trkpt lat="51.210785" lon="4.513933">
        <ele>3.7</ele>
        <time>2020-08-15T14:46:11Z</time>
      </trkpt>
      <trkpt lat="51.210879" lon="4.513918">
        <ele>3.6</ele>
        <time>2020-08-15T14:46:17Z</time>
      </trkpt>
      <trkpt lat="51.210961" lon="4.513926">
        <ele>3.5</ele>
        <time>2020-08-15T14:46:23Z</time>
      </trkpt>
      <trkpt lat="51.211053" lon="4.513936">
        <ele>3.5</ele>
        <time>2020-08-15T14:46:30Z</time>
      </trkpt>
      <trkpt lat="51.211144" lon="4.513919">
        <ele>3.5</ele>
        <time>2020-08-15T14:46:35Z</time>
      </trkpt>
      <trkpt lat="51.211238" lon="4.513932">
        <ele>3.5</ele>
        <time>2020-08-15T14:46:41Z</time>
      </trkpt>
      <trkpt lat="51.21132" lon="4.513909">
        <ele>3.5</ele>
        <time>2020-08-15T14:46:46Z</time>
      </trkpt>
      <trkpt lat="51.211414" lon="4.513885">
        <ele>3.5</ele>
        <time>2020-08-15T14:46:52Z</time>
      </trkpt>
      <trkpt lat="51.211506" lon="4.513882">
        <ele>3.6</ele>
        <time>2020-08-15T14:46:58Z</time>
      </trkpt>
      <trkpt lat="51.211593" lon="4.513867">
        <ele>3.9</ele>
        <time>2020-08-15T14:47:04Z</time>
      </trkpt>
      <trkpt lat="51.211678" lon="4.513863">
        <ele>4.2</ele>
        <time>2020-08-15T14:47:09Z</time>
      </trkpt>
      <trkpt lat="51.211763" lon="4.513861">
        <ele>4.5</ele>
        <time>2020-08-15T14:47:13Z</time>
      </trkpt>
      <trkpt lat="51.211856" lon="4.513849">
        <ele>4.7</ele>
        <time>2020-08-15T14:47:17Z</time>
      </trkpt>
      <trkpt lat="51.211938" lon="4.513852">
        <ele>5</ele>
        <time>2020-08-15T14:47:20Z</time>
      </trkpt>
      <trkpt lat="51.212042" lon="4.513846">
        <ele>5.3</ele>
        <time>2020-08-15T14:47:24Z</time>
      </trkpt>
      <trkpt lat="51.212124" lon="4.513835">
        <ele>5.5</ele>
        <time>2020-08-15T14:47:27Z</time>
      </trkpt>
      <trkpt lat="51.212218" lon="4.513835">
        <ele>5.6</ele>
        <time>2020-08-15T14:47:30Z</time>
      </trkpt>
      <trkpt lat="51.212332" lon="4.513827">
        <ele>5.7</ele>
        <time>2020-08-15T14:47:33Z</time>
      </trkpt>
      <trkpt lat="51.212415" lon="4.513807">
        <ele>5.8</ele>
        <time>2020-08-15T14:47:35Z</time>
      </trkpt>
      <trkpt lat="51.212532" lon="4.513733">
        <ele>5.9</ele>
        <time>2020-08-15T14:47:37Z</time>
      </trkpt>
      <trkpt lat="51.212614" lon="4.513664">
        <ele>5.9</ele>
        <time>2020-08-15T14:47:39Z</time>
      </trkpt>
      <trkpt lat="51.212696" lon="4.513565">
        <ele>5.9</ele>
        <time>2020-08-15T14:47:41Z</time>
      </trkpt>
      <trkpt lat="51.212811" lon="4.513455">
        <ele>5.8</ele>
        <time>2020-08-15T14:47:43Z</time>
      </trkpt>
      <trkpt lat="51.212941" lon="4.513328">
        <ele>5.7</ele>
        <time>2020-08-15T14:47:45Z</time>
      </trkpt>
      <trkpt lat="51.213017" lon="4.513201">
        <ele>5.5</ele>
        <time>2020-08-15T14:47:47Z</time>
      </trkpt>
      <trkpt lat="51.213113" lon="4.513107">
        <ele>5.4</ele>
        <time>2020-08-15T14:47:49Z</time>
      </trkpt>
      <trkpt lat="51.213217" lon="4.512991">
        <ele>5.3</ele>
        <time>2020-08-15T14:47:51Z</time>
      </trkpt>
      <trkpt lat="51.213296" lon="4.512881">
        <ele>5.2</ele>
        <time>2020-08-15T14:47:53Z</time>
      </trkpt>
      <trkpt lat="51.213395" lon="4.512833">
        <ele>5.2</ele>
        <time>2020-08-15T14:47:56Z</time>
      </trkpt>
      <trkpt lat="51.213475" lon="4.512921">
        <ele>5.1</ele>
        <time>2020-08-15T14:47:58Z</time>
      </trkpt>
      <trkpt lat="51.213529" lon="4.513033">
        <ele>4.9</ele>
        <time>2020-08-15T14:48:00Z</time>
      </trkpt>
      <trkpt lat="51.213581" lon="4.513183">
        <ele>4.7</ele>
        <time>2020-08-15T14:48:02Z</time>
      </trkpt>
      <trkpt lat="51.213572" lon="4.513317">
        <ele>4.5</ele>
        <time>2020-08-15T14:48:04Z</time>
      </trkpt>
      <trkpt lat="51.21358" lon="4.513466">
        <ele>4.5</ele>
        <time>2020-08-15T14:48:06Z</time>
      </trkpt>
      <trkpt lat="51.213605" lon="4.513633">
        <ele>4.4</ele>
        <time>2020-08-15T14:48:09Z</time>
      </trkpt>
      <trkpt lat="51.213647" lon="4.513778">
        <ele>4.5</ele>
        <time>2020-08-15T14:48:12Z</time>
      </trkpt>
      <trkpt lat="51.213684" lon="4.513919">
        <ele>4.5</ele>
        <time>2020-08-15T14:48:15Z</time>
      </trkpt>
      <trkpt lat="51.213725" lon="4.514061">
        <ele>4.5</ele>
        <time>2020-08-15T14:48:18Z</time>
      </trkpt>
      <trkpt lat="51.213761" lon="4.514205">
        <ele>4.6</ele>
        <time>2020-08-15T14:48:21Z</time>
      </trkpt>
      <trkpt lat="51.213783" lon="4.514346">
        <ele>4.7</ele>
        <time>2020-08-15T14:48:24Z</time>
      </trkpt>
      <trkpt lat="51.213797" lon="4.514496">
        <ele>4.8</ele>
        <time>2020-08-15T14:48:27Z</time>
      </trkpt>
      <trkpt lat="51.21382" lon="4.514648">
        <ele>5</ele>
        <time>2020-08-15T14:48:30Z</time>
      </trkpt>
      <trkpt lat="51.213867" lon="4.514783">
        <ele>5.2</ele>
        <time>2020-08-15T14:48:33Z</time>
      </trkpt>
      <trkpt lat="51.213952" lon="4.514853">
        <ele>5.4</ele>
        <time>2020-08-15T14:48:36Z</time>
      </trkpt>
      <trkpt lat="51.213985" lon="4.514972">
        <ele>5.5</ele>
        <time>2020-08-15T14:48:39Z</time>
      </trkpt>
      <trkpt lat="51.213965" lon="4.515147">
        <ele>5.7</ele>
        <time>2020-08-15T14:48:42Z</time>
      </trkpt>
      <trkpt lat="51.213932" lon="4.515319">
        <ele>5.9</ele>
        <time>2020-08-15T14:48:45Z</time>
      </trkpt>
      <trkpt lat="51.213902" lon="4.515479">
        <ele>6.1</ele>
        <time>2020-08-15T14:48:48Z</time>
      </trkpt>
      <trkpt lat="51.213878" lon="4.515631">
        <ele>6.3</ele>
        <time>2020-08-15T14:48:51Z</time>
      </trkpt>
      <trkpt lat="51.213855" lon="4.515783">
        <ele>6.4</ele>
        <time>2020-08-15T14:48:54Z</time>
      </trkpt>
      <trkpt lat="51.213836" lon="4.515934">
        <ele>6.4</ele>
        <time>2020-08-15T14:48:57Z</time>
      </trkpt>
      <trkpt lat="51.213822" lon="4.516074">
        <ele>6.4</ele>
        <time>2020-08-15T14:49:00Z</time>
      </trkpt>
      <trkpt lat="51.213806" lon="4.516228">
        <ele>6.3</ele>
        <time>2020-08-15T14:49:03Z</time>
      </trkpt>
      <trkpt lat="51.213789" lon="4.516389">
        <ele>6.2</ele>
        <time>2020-08-15T14:49:06Z</time>
      </trkpt>
      <trkpt lat="51.21377" lon="4.516549">
        <ele>6.1</ele>
        <time>2020-08-15T14:49:09Z</time>
      </trkpt>
      <trkpt lat="51.213748" lon="4.516717">
        <ele>6</ele>
        <time>2020-08-15T14:49:12Z</time>
      </trkpt>
      <trkpt lat="51.213726" lon="4.516879">
        <ele>6</ele>
        <time>2020-08-15T14:49:15Z</time>
      </trkpt>
      <trkpt lat="51.213703" lon="4.517042">
        <ele>5.9</ele>
        <time>2020-08-15T14:49:18Z</time>
      </trkpt>
      <trkpt lat="51.213677" lon="4.517213">
        <ele>5.8</ele>
        <time>2020-08-15T14:49:21Z</time>
      </trkpt>
      <trkpt lat="51.213659" lon="4.517382">
        <ele>5.7</ele>
        <time>2020-08-15T14:49:24Z</time>
      </trkpt>
      <trkpt lat="51.21365" lon="4.517523">
        <ele>5.6</ele>
        <time>2020-08-15T14:49:27Z</time>
      </trkpt>
      <trkpt lat="51.213388" lon="4.519415">
        <ele>5.6</ele>
        <time>2020-08-15T14:50:01Z</time>
      </trkpt>
      <trkpt lat="51.213405" lon="4.519573">
        <ele>5.6</ele>
        <time>2020-08-15T14:50:03Z</time>
      </trkpt>
      <trkpt lat="51.213572" lon="4.519533">
        <ele>5.7</ele>
        <time>2020-08-15T14:50:05Z</time>
      </trkpt>
      <trkpt lat="51.213654" lon="4.519644">
        <ele>5.9</ele>
        <time>2020-08-15T14:50:08Z</time>
      </trkpt>
      <trkpt lat="51.213722" lon="4.519839">
        <ele>6.1</ele>
        <time>2020-08-15T14:50:12Z</time>
      </trkpt>
      <trkpt lat="51.213735" lon="4.520038">
        <ele>6.3</ele>
        <time>2020-08-15T14:50:14Z</time>
      </trkpt>
      <trkpt lat="51.213721" lon="4.520225">
        <ele>6.4</ele>
        <time>2020-08-15T14:50:16Z</time>
      </trkpt>
      <trkpt lat="51.213688" lon="4.520377">
        <ele>6.5</ele>
        <time>2020-08-15T14:50:18Z</time>
      </trkpt>
      <trkpt lat="51.213648" lon="4.52049">
        <ele>6.5</ele>
        <time>2020-08-15T14:50:20Z</time>
      </trkpt>
      <trkpt lat="51.213702" lon="4.52059">
        <ele>6.6</ele>
        <time>2020-08-15T14:50:23Z</time>
      </trkpt>
      <trkpt lat="51.213746" lon="4.520755">
        <ele>6.7</ele>
        <time>2020-08-15T14:50:26Z</time>
      </trkpt>
      <trkpt lat="51.21377" lon="4.52094">
        <ele>6.9</ele>
        <time>2020-08-15T14:50:29Z</time>
      </trkpt>
      <trkpt lat="51.213783" lon="4.521103">
        <ele>7.1</ele>
        <time>2020-08-15T14:50:32Z</time>
      </trkpt>
      <trkpt lat="51.213805" lon="4.521241">
        <ele>7.2</ele>
        <time>2020-08-15T14:50:34Z</time>
      </trkpt>
      <trkpt lat="51.213775" lon="4.521381">
        <ele>7.2</ele>
        <time>2020-08-15T14:50:36Z</time>
      </trkpt>
      <trkpt lat="51.213703" lon="4.521536">
        <ele>7.2</ele>
        <time>2020-08-15T14:50:39Z</time>
      </trkpt>
      <trkpt lat="51.213674" lon="4.521696">
        <ele>7.2</ele>
        <time>2020-08-15T14:50:42Z</time>
      </trkpt>
      <trkpt lat="51.213678" lon="4.521866">
        <ele>7.1</ele>
        <time>2020-08-15T14:50:45Z</time>
      </trkpt>
      <trkpt lat="51.213688" lon="4.522041">
        <ele>7</ele>
        <time>2020-08-15T14:50:48Z</time>
      </trkpt>
      <trkpt lat="51.213684" lon="4.522201">
        <ele>6.9</ele>
        <time>2020-08-15T14:50:51Z</time>
      </trkpt>
      <trkpt lat="51.213701" lon="4.522368">
        <ele>6.7</ele>
        <time>2020-08-15T14:50:54Z</time>
      </trkpt>
      <trkpt lat="51.213723" lon="4.522532">
        <ele>6.5</ele>
        <time>2020-08-15T14:50:57Z</time>
      </trkpt>
      <trkpt lat="51.213739" lon="4.522688">
        <ele>6.4</ele>
        <time>2020-08-15T14:51:00Z</time>
      </trkpt>
      <trkpt lat="51.213762" lon="4.522851">
        <ele>6.3</ele>
        <time>2020-08-15T14:51:03Z</time>
      </trkpt>
      <trkpt lat="51.21379" lon="4.52303">
        <ele>6.3</ele>
        <time>2020-08-15T14:51:06Z</time>
      </trkpt>
      <trkpt lat="51.21382" lon="4.523206">
        <ele>6.2</ele>
        <time>2020-08-15T14:51:09Z</time>
      </trkpt>
      <trkpt lat="51.21384" lon="4.523372">
        <ele>6.1</ele>
        <time>2020-08-15T14:51:12Z</time>
      </trkpt>
      <trkpt lat="51.213858" lon="4.52355">
        <ele>6.1</ele>
        <time>2020-08-15T14:51:15Z</time>
      </trkpt>
      <trkpt lat="51.213876" lon="4.523735">
        <ele>6.2</ele>
        <time>2020-08-15T14:51:18Z</time>
      </trkpt>
      <trkpt lat="51.213901" lon="4.523907">
        <ele>6.3</ele>
        <time>2020-08-15T14:51:21Z</time>
      </trkpt>
      <trkpt lat="51.213935" lon="4.524079">
        <ele>6.4</ele>
        <time>2020-08-15T14:51:24Z</time>
      </trkpt>
      <trkpt lat="51.213957" lon="4.524235">
        <ele>6.5</ele>
        <time>2020-08-15T14:51:27Z</time>
      </trkpt>
      <trkpt lat="51.213978" lon="4.524398">
        <ele>6.7</ele>
        <time>2020-08-15T14:51:30Z</time>
      </trkpt>
      <trkpt lat="51.214014" lon="4.524567">
        <ele>6.9</ele>
        <time>2020-08-15T14:51:33Z</time>
      </trkpt>
      <trkpt lat="51.214054" lon="4.524735">
        <ele>7</ele>
        <time>2020-08-15T14:51:36Z</time>
      </trkpt>
      <trkpt lat="51.214096" lon="4.524909">
        <ele>7</ele>
        <time>2020-08-15T14:51:39Z</time>
      </trkpt>
      <trkpt lat="51.21413" lon="4.52508">
        <ele>7.1</ele>
        <time>2020-08-15T14:51:42Z</time>
      </trkpt>
      <trkpt lat="51.214151" lon="4.52526">
        <ele>7.2</ele>
        <time>2020-08-15T14:51:45Z</time>
      </trkpt>
      <trkpt lat="51.214174" lon="4.525445">
        <ele>7.1</ele>
        <time>2020-08-15T14:51:48Z</time>
      </trkpt>
      <trkpt lat="51.214215" lon="4.525619">
        <ele>7</ele>
        <time>2020-08-15T14:51:51Z</time>
      </trkpt>
      <trkpt lat="51.214272" lon="4.525781">
        <ele>7</ele>
        <time>2020-08-15T14:51:54Z</time>
      </trkpt>
      <trkpt lat="51.214328" lon="4.525941">
        <ele>7</ele>
        <time>2020-08-15T14:51:57Z</time>
      </trkpt>
      <trkpt lat="51.214372" lon="4.526105">
        <ele>7</ele>
        <time>2020-08-15T14:52:00Z</time>
      </trkpt>
      <trkpt lat="51.214418" lon="4.526282">
        <ele>7</ele>
        <time>2020-08-15T14:52:03Z</time>
      </trkpt>
      <trkpt lat="51.214467" lon="4.52646">
        <ele>6.9</ele>
        <time>2020-08-15T14:52:06Z</time>
      </trkpt>
      <trkpt lat="51.21449" lon="4.526634">
        <ele>6.8</ele>
        <time>2020-08-15T14:52:09Z</time>
      </trkpt>
      <trkpt lat="51.2145" lon="4.526799">
        <ele>6.7</ele>
        <time>2020-08-15T14:52:12Z</time>
      </trkpt>
      <trkpt lat="51.214519" lon="4.526978">
        <ele>6.6</ele>
        <time>2020-08-15T14:52:15Z</time>
      </trkpt>
      <trkpt lat="51.214536" lon="4.527131">
        <ele>6.5</ele>
        <time>2020-08-15T14:52:18Z</time>
      </trkpt>
      <trkpt lat="51.214571" lon="4.527249">
        <ele>6.5</ele>
        <time>2020-08-15T14:52:21Z</time>
      </trkpt>
      <trkpt lat="51.214633" lon="4.527365">
        <ele>6.5</ele>
        <time>2020-08-15T14:52:25Z</time>
      </trkpt>
      <trkpt lat="51.21471" lon="4.527475">
        <ele>6.5</ele>
        <time>2020-08-15T14:52:29Z</time>
      </trkpt>
      <trkpt lat="51.21472" lon="4.527614">
        <ele>6.5</ele>
        <time>2020-08-15T14:52:32Z</time>
      </trkpt>
      <trkpt lat="51.214667" lon="4.52775">
        <ele>6.5</ele>
        <time>2020-08-15T14:52:35Z</time>
      </trkpt>
      <trkpt lat="51.21464" lon="4.527915">
        <ele>6.5</ele>
        <time>2020-08-15T14:52:39Z</time>
      </trkpt>
      <trkpt lat="51.214615" lon="4.528066">
        <ele>6.6</ele>
        <time>2020-08-15T14:52:42Z</time>
      </trkpt>
      <trkpt lat="51.214623" lon="4.528197">
        <ele>6.7</ele>
        <time>2020-08-15T14:52:45Z</time>
      </trkpt>
      <trkpt lat="51.214667" lon="4.528365">
        <ele>6.9</ele>
        <time>2020-08-15T14:52:48Z</time>
      </trkpt>
      <trkpt lat="51.214699" lon="4.528528">
        <ele>7.1</ele>
        <time>2020-08-15T14:52:51Z</time>
      </trkpt>
      <trkpt lat="51.214724" lon="4.52869">
        <ele>7.3</ele>
        <time>2020-08-15T14:52:54Z</time>
      </trkpt>
      <trkpt lat="51.214745" lon="4.528825">
        <ele>7.5</ele>
        <time>2020-08-15T14:52:57Z</time>
      </trkpt>
      <trkpt lat="51.214769" lon="4.528957">
        <ele>7.6</ele>
        <time>2020-08-15T14:53:00Z</time>
      </trkpt>
      <trkpt lat="51.214789" lon="4.529122">
        <ele>7.7</ele>
        <time>2020-08-15T14:53:03Z</time>
      </trkpt>
      <trkpt lat="51.214812" lon="4.529265">
        <ele>7.8</ele>
        <time>2020-08-15T14:53:06Z</time>
      </trkpt>
      <trkpt lat="51.214832" lon="4.529408">
        <ele>7.9</ele>
        <time>2020-08-15T14:53:09Z</time>
      </trkpt>
      <trkpt lat="51.214857" lon="4.529545">
        <ele>8</ele>
        <time>2020-08-15T14:53:12Z</time>
      </trkpt>
      <trkpt lat="51.214888" lon="4.529677">
        <ele>8.1</ele>
        <time>2020-08-15T14:53:15Z</time>
      </trkpt>
      <trkpt lat="51.214912" lon="4.529837">
        <ele>8.2</ele>
        <time>2020-08-15T14:53:18Z</time>
      </trkpt>
      <trkpt lat="51.214929" lon="4.529965">
        <ele>8.3</ele>
        <time>2020-08-15T14:53:20Z</time>
      </trkpt>
      <trkpt lat="51.214954" lon="4.530145">
        <ele>8.3</ele>
        <time>2020-08-15T14:53:23Z</time>
      </trkpt>
      <trkpt lat="51.214975" lon="4.530288">
        <ele>8.3</ele>
        <time>2020-08-15T14:53:26Z</time>
      </trkpt>
      <trkpt lat="51.214993" lon="4.530448">
        <ele>8.3</ele>
        <time>2020-08-15T14:53:29Z</time>
      </trkpt>
      <trkpt lat="51.215029" lon="4.530615">
        <ele>8.2</ele>
        <time>2020-08-15T14:53:32Z</time>
      </trkpt>
      <trkpt lat="51.215069" lon="4.530772">
        <ele>8.1</ele>
        <time>2020-08-15T14:53:35Z</time>
      </trkpt>
      <trkpt lat="51.215096" lon="4.530898">
        <ele>8</ele>
        <time>2020-08-15T14:53:37Z</time>
      </trkpt>
      <trkpt lat="51.21513" lon="4.531026">
        <ele>7.9</ele>
        <time>2020-08-15T14:53:39Z</time>
      </trkpt>
      <trkpt lat="51.215164" lon="4.531183">
        <ele>7.9</ele>
        <time>2020-08-15T14:53:42Z</time>
      </trkpt>
      <trkpt lat="51.21519" lon="4.531339">
        <ele>7.9</ele>
        <time>2020-08-15T14:53:45Z</time>
      </trkpt>
      <trkpt lat="51.2152" lon="4.531519">
        <ele>7.9</ele>
        <time>2020-08-15T14:53:48Z</time>
      </trkpt>
      <trkpt lat="51.215217" lon="4.531685">
        <ele>7.9</ele>
        <time>2020-08-15T14:53:51Z</time>
      </trkpt>
      <trkpt lat="51.215259" lon="4.531808">
        <ele>8</ele>
        <time>2020-08-15T14:53:53Z</time>
      </trkpt>
      <trkpt lat="51.21532" lon="4.531969">
        <ele>8</ele>
        <time>2020-08-15T14:53:56Z</time>
      </trkpt>
      <trkpt lat="51.215368" lon="4.532134">
        <ele>8</ele>
        <time>2020-08-15T14:53:59Z</time>
      </trkpt>
      <trkpt lat="51.215393" lon="4.532293">
        <ele>8</ele>
        <time>2020-08-15T14:54:02Z</time>
      </trkpt>
      <trkpt lat="51.215427" lon="4.53246">
        <ele>7.9</ele>
        <time>2020-08-15T14:54:05Z</time>
      </trkpt>
      <trkpt lat="51.215464" lon="4.532613">
        <ele>7.7</ele>
        <time>2020-08-15T14:54:08Z</time>
      </trkpt>
      <trkpt lat="51.215502" lon="4.53276">
        <ele>7.6</ele>
        <time>2020-08-15T14:54:11Z</time>
      </trkpt>
      <trkpt lat="51.215533" lon="4.532903">
        <ele>7.5</ele>
        <time>2020-08-15T14:54:14Z</time>
      </trkpt>
      <trkpt lat="51.215566" lon="4.533066">
        <ele>7.3</ele>
        <time>2020-08-15T14:54:17Z</time>
      </trkpt>
      <trkpt lat="51.215592" lon="4.533221">
        <ele>7.1</ele>
        <time>2020-08-15T14:54:20Z</time>
      </trkpt>
      <trkpt lat="51.215628" lon="4.533354">
        <ele>6.9</ele>
        <time>2020-08-15T14:54:23Z</time>
      </trkpt>
      <trkpt lat="51.215666" lon="4.533488">
        <ele>6.7</ele>
        <time>2020-08-15T14:54:26Z</time>
      </trkpt>
      <trkpt lat="51.21571" lon="4.533626">
        <ele>6.7</ele>
        <time>2020-08-15T14:54:29Z</time>
      </trkpt>
      <trkpt lat="51.215754" lon="4.533772">
        <ele>6.7</ele>
        <time>2020-08-15T14:54:32Z</time>
      </trkpt>
      <trkpt lat="51.215811" lon="4.533895">
        <ele>6.8</ele>
        <time>2020-08-15T14:54:35Z</time>
      </trkpt>
      <trkpt lat="51.215872" lon="4.534046">
        <ele>6.9</ele>
        <time>2020-08-15T14:54:38Z</time>
      </trkpt>
      <trkpt lat="51.215933" lon="4.534214">
        <ele>7.1</ele>
        <time>2020-08-15T14:54:41Z</time>
      </trkpt>
      <trkpt lat="51.216014" lon="4.534337">
        <ele>7.2</ele>
        <time>2020-08-15T14:54:44Z</time>
      </trkpt>
      <trkpt lat="51.216093" lon="4.534471">
        <ele>7.3</ele>
        <time>2020-08-15T14:54:47Z</time>
      </trkpt>
      <trkpt lat="51.216139" lon="4.534579">
        <ele>7.2</ele>
        <time>2020-08-15T14:54:49Z</time>
      </trkpt>
      <trkpt lat="51.216188" lon="4.534686">
        <ele>7.1</ele>
        <time>2020-08-15T14:54:51Z</time>
      </trkpt>
      <trkpt lat="51.216249" lon="4.534793">
        <ele>7</ele>
        <time>2020-08-15T14:54:53Z</time>
      </trkpt>
      <trkpt lat="51.216312" lon="4.53488">
        <ele>6.8</ele>
        <time>2020-08-15T14:54:55Z</time>
      </trkpt>
      <trkpt lat="51.216378" lon="4.534966">
        <ele>6.5</ele>
        <time>2020-08-15T14:54:57Z</time>
      </trkpt>
      <trkpt lat="51.216462" lon="4.535082">
        <ele>6.3</ele>
        <time>2020-08-15T14:55:00Z</time>
      </trkpt>
      <trkpt lat="51.216542" lon="4.535198">
        <ele>6</ele>
        <time>2020-08-15T14:55:04Z</time>
      </trkpt>
      <trkpt lat="51.216608" lon="4.53532">
        <ele>5.7</ele>
        <time>2020-08-15T14:55:07Z</time>
      </trkpt>
      <trkpt lat="51.216671" lon="4.535421">
        <ele>5.5</ele>
        <time>2020-08-15T14:55:10Z</time>
      </trkpt>
      <trkpt lat="51.216735" lon="4.535513">
        <ele>5.2</ele>
        <time>2020-08-15T14:55:13Z</time>
      </trkpt>
      <trkpt lat="51.216806" lon="4.535627">
        <ele>4.9</ele>
        <time>2020-08-15T14:55:16Z</time>
      </trkpt>
      <trkpt lat="51.216864" lon="4.535737">
        <ele>4.6</ele>
        <time>2020-08-15T14:55:18Z</time>
      </trkpt>
      <trkpt lat="51.216936" lon="4.535846">
        <ele>4.4</ele>
        <time>2020-08-15T14:55:20Z</time>
      </trkpt>
      <trkpt lat="51.217006" lon="4.535942">
        <ele>4.1</ele>
        <time>2020-08-15T14:55:22Z</time>
      </trkpt>
      <trkpt lat="51.217066" lon="4.536035">
        <ele>4</ele>
        <time>2020-08-15T14:55:24Z</time>
      </trkpt>
      <trkpt lat="51.217151" lon="4.536148">
        <ele>3.9</ele>
        <time>2020-08-15T14:55:27Z</time>
      </trkpt>
      <trkpt lat="51.217228" lon="4.536269">
        <ele>3.8</ele>
        <time>2020-08-15T14:55:30Z</time>
      </trkpt>
      <trkpt lat="51.217308" lon="4.536373">
        <ele>3.7</ele>
        <time>2020-08-15T14:55:33Z</time>
      </trkpt>
      <trkpt lat="51.217394" lon="4.536468">
        <ele>3.7</ele>
        <time>2020-08-15T14:55:36Z</time>
      </trkpt>
      <trkpt lat="51.217492" lon="4.53657">
        <ele>3.8</ele>
        <time>2020-08-15T14:55:39Z</time>
      </trkpt>
      <trkpt lat="51.21759" lon="4.536651">
        <ele>3.9</ele>
        <time>2020-08-15T14:55:42Z</time>
      </trkpt>
      <trkpt lat="51.217691" lon="4.536735">
        <ele>4</ele>
        <time>2020-08-15T14:55:45Z</time>
      </trkpt>
      <trkpt lat="51.217787" lon="4.536841">
        <ele>4.2</ele>
        <time>2020-08-15T14:55:48Z</time>
      </trkpt>
      <trkpt lat="51.217871" lon="4.536967">
        <ele>4.3</ele>
        <time>2020-08-15T14:55:51Z</time>
      </trkpt>
      <trkpt lat="51.217941" lon="4.537125">
        <ele>4.4</ele>
        <time>2020-08-15T14:55:54Z</time>
      </trkpt>
      <trkpt lat="51.217981" lon="4.537239">
        <ele>4.4</ele>
        <time>2020-08-15T14:55:56Z</time>
      </trkpt>
      <trkpt lat="51.218015" lon="4.537365">
        <ele>4.4</ele>
        <time>2020-08-15T14:55:58Z</time>
      </trkpt>
      <trkpt lat="51.218049" lon="4.537547">
        <ele>4.5</ele>
        <time>2020-08-15T14:56:01Z</time>
      </trkpt>
      <trkpt lat="51.218065" lon="4.537674">
        <ele>4.5</ele>
        <time>2020-08-15T14:56:03Z</time>
      </trkpt>
      <trkpt lat="51.218088" lon="4.537854">
        <ele>4.5</ele>
        <time>2020-08-15T14:56:06Z</time>
      </trkpt>
      <trkpt lat="51.218099" lon="4.538032">
        <ele>4.3</ele>
        <time>2020-08-15T14:56:09Z</time>
      </trkpt>
      <trkpt lat="51.21811" lon="4.538192">
        <ele>4.1</ele>
        <time>2020-08-15T14:56:12Z</time>
      </trkpt>
      <trkpt lat="51.218113" lon="4.538346">
        <ele>3.9</ele>
        <time>2020-08-15T14:56:15Z</time>
      </trkpt>
      <trkpt lat="51.218115" lon="4.538512">
        <ele>3.7</ele>
        <time>2020-08-15T14:56:18Z</time>
      </trkpt>
      <trkpt lat="51.218115" lon="4.538683">
        <ele>3.6</ele>
        <time>2020-08-15T14:56:21Z</time>
      </trkpt>
      <trkpt lat="51.218119" lon="4.538834">
        <ele>3.5</ele>
        <time>2020-08-15T14:56:24Z</time>
      </trkpt>
      <trkpt lat="51.218123" lon="4.538997">
        <ele>3.5</ele>
        <time>2020-08-15T14:56:27Z</time>
      </trkpt>
      <trkpt lat="51.218122" lon="4.53917">
        <ele>3.4</ele>
        <time>2020-08-15T14:56:30Z</time>
      </trkpt>
      <trkpt lat="51.218126" lon="4.539306">
        <ele>3.3</ele>
        <time>2020-08-15T14:56:32Z</time>
      </trkpt>
      <trkpt lat="51.21814" lon="4.539437">
        <ele>3.3</ele>
        <time>2020-08-15T14:56:34Z</time>
      </trkpt>
      <trkpt lat="51.21815" lon="4.539566">
        <ele>3.4</ele>
        <time>2020-08-15T14:56:36Z</time>
      </trkpt>
      <trkpt lat="51.21816" lon="4.539726">
        <ele>3.6</ele>
        <time>2020-08-15T14:56:39Z</time>
      </trkpt>
      <trkpt lat="51.218164" lon="4.539899">
        <ele>3.9</ele>
        <time>2020-08-15T14:56:42Z</time>
      </trkpt>
      <trkpt lat="51.218171" lon="4.540067">
        <ele>4.2</ele>
        <time>2020-08-15T14:56:45Z</time>
      </trkpt>
      <trkpt lat="51.218167" lon="4.540211">
        <ele>4.5</ele>
        <time>2020-08-15T14:56:48Z</time>
      </trkpt>
      <trkpt lat="51.218167" lon="4.540369">
        <ele>4.7</ele>
        <time>2020-08-15T14:56:51Z</time>
      </trkpt>
      <trkpt lat="51.218171" lon="4.540539">
        <ele>5</ele>
        <time>2020-08-15T14:56:54Z</time>
      </trkpt>
      <trkpt lat="51.218167" lon="4.54073">
        <ele>5.3</ele>
        <time>2020-08-15T14:56:57Z</time>
      </trkpt>
      <trkpt lat="51.21817" lon="4.540908">
        <ele>5.5</ele>
        <time>2020-08-15T14:57:00Z</time>
      </trkpt>
      <trkpt lat="51.218175" lon="4.541092">
        <ele>5.7</ele>
        <time>2020-08-15T14:57:03Z</time>
      </trkpt>
      <trkpt lat="51.218179" lon="4.541278">
        <ele>5.9</ele>
        <time>2020-08-15T14:57:06Z</time>
      </trkpt>
      <trkpt lat="51.218178" lon="4.541453">
        <ele>6</ele>
        <time>2020-08-15T14:57:09Z</time>
      </trkpt>
      <trkpt lat="51.21817" lon="4.541617">
        <ele>6</ele>
        <time>2020-08-15T14:57:12Z</time>
      </trkpt>
      <trkpt lat="51.218182" lon="4.541793">
        <ele>6</ele>
        <time>2020-08-15T14:57:15Z</time>
      </trkpt>
      <trkpt lat="51.21819" lon="4.541987">
        <ele>6</ele>
        <time>2020-08-15T14:57:18Z</time>
      </trkpt>
      <trkpt lat="51.218196" lon="4.542123">
        <ele>6</ele>
        <time>2020-08-15T14:57:20Z</time>
      </trkpt>
      <trkpt lat="51.218204" lon="4.542263">
        <ele>6</ele>
        <time>2020-08-15T14:57:22Z</time>
      </trkpt>
      <trkpt lat="51.218206" lon="4.542445">
        <ele>6</ele>
        <time>2020-08-15T14:57:25Z</time>
      </trkpt>
      <trkpt lat="51.218215" lon="4.542631">
        <ele>6</ele>
        <time>2020-08-15T14:57:28Z</time>
      </trkpt>
      <trkpt lat="51.218225" lon="4.5428">
        <ele>6</ele>
        <time>2020-08-15T14:57:31Z</time>
      </trkpt>
      <trkpt lat="51.218234" lon="4.54295">
        <ele>6</ele>
        <time>2020-08-15T14:57:34Z</time>
      </trkpt>
      <trkpt lat="51.218241" lon="4.543127">
        <ele>5.9</ele>
        <time>2020-08-15T14:57:37Z</time>
      </trkpt>
      <trkpt lat="51.218242" lon="4.543266">
        <ele>5.9</ele>
        <time>2020-08-15T14:57:40Z</time>
      </trkpt>
      <trkpt lat="51.218244" lon="4.543401">
        <ele>5.9</ele>
        <time>2020-08-15T14:57:43Z</time>
      </trkpt>
      <trkpt lat="51.218245" lon="4.543573">
        <ele>5.9</ele>
        <time>2020-08-15T14:57:46Z</time>
      </trkpt>
      <trkpt lat="51.218226" lon="4.543745">
        <ele>5.9</ele>
        <time>2020-08-15T14:57:49Z</time>
      </trkpt>
      <trkpt lat="51.218207" lon="4.54392">
        <ele>5.9</ele>
        <time>2020-08-15T14:57:52Z</time>
      </trkpt>
      <trkpt lat="51.218175" lon="4.54409">
        <ele>5.9</ele>
        <time>2020-08-15T14:57:55Z</time>
      </trkpt>
      <trkpt lat="51.218139" lon="4.544255">
        <ele>5.9</ele>
        <time>2020-08-15T14:57:58Z</time>
      </trkpt>
      <trkpt lat="51.218089" lon="4.544424">
        <ele>5.9</ele>
        <time>2020-08-15T14:58:01Z</time>
      </trkpt>
      <trkpt lat="51.21805" lon="4.544586">
        <ele>5.9</ele>
        <time>2020-08-15T14:58:04Z</time>
      </trkpt>
      <trkpt lat="51.218013" lon="4.54474">
        <ele>5.8</ele>
        <time>2020-08-15T14:58:07Z</time>
      </trkpt>
      <trkpt lat="51.217982" lon="4.544903">
        <ele>5.8</ele>
        <time>2020-08-15T14:58:10Z</time>
      </trkpt>
      <trkpt lat="51.217945" lon="4.545063">
        <ele>5.7</ele>
        <time>2020-08-15T14:58:13Z</time>
      </trkpt>
      <trkpt lat="51.217909" lon="4.545219">
        <ele>5.7</ele>
        <time>2020-08-15T14:58:16Z</time>
      </trkpt>
      <trkpt lat="51.217869" lon="4.54538">
        <ele>5.7</ele>
        <time>2020-08-15T14:58:19Z</time>
      </trkpt>
      <trkpt lat="51.217817" lon="4.545525">
        <ele>5.8</ele>
        <time>2020-08-15T14:58:22Z</time>
      </trkpt>
      <trkpt lat="51.217745" lon="4.54565">
        <ele>5.9</ele>
        <time>2020-08-15T14:58:25Z</time>
      </trkpt>
      <trkpt lat="51.217663" lon="4.545748">
        <ele>6</ele>
        <time>2020-08-15T14:58:28Z</time>
      </trkpt>
      <trkpt lat="51.21759" lon="4.545841">
        <ele>6.1</ele>
        <time>2020-08-15T14:58:31Z</time>
      </trkpt>
      <trkpt lat="51.217535" lon="4.545967">
        <ele>6.2</ele>
        <time>2020-08-15T14:58:34Z</time>
      </trkpt>
      <trkpt lat="51.217503" lon="4.54611">
        <ele>6.2</ele>
        <time>2020-08-15T14:58:37Z</time>
      </trkpt>
      <trkpt lat="51.217472" lon="4.546248">
        <ele>6.3</ele>
        <time>2020-08-15T14:58:40Z</time>
      </trkpt>
      <trkpt lat="51.217429" lon="4.546399">
        <ele>6.4</ele>
        <time>2020-08-15T14:58:44Z</time>
      </trkpt>
      <trkpt lat="51.217354" lon="4.546459">
        <ele>6.5</ele>
        <time>2020-08-15T14:58:47Z</time>
      </trkpt>
      <trkpt lat="51.217252" lon="4.546491">
        <ele>6.5</ele>
        <time>2020-08-15T14:58:50Z</time>
      </trkpt>
      <trkpt lat="51.217173" lon="4.546533">
        <ele>6.4</ele>
        <time>2020-08-15T14:58:53Z</time>
      </trkpt>
      <trkpt lat="51.217084" lon="4.546557">
        <ele>6.2</ele>
        <time>2020-08-15T14:58:57Z</time>
      </trkpt>
      <trkpt lat="51.216989" lon="4.546579">
        <ele>6</ele>
        <time>2020-08-15T14:59:01Z</time>
      </trkpt>
      <trkpt lat="51.216896" lon="4.546634">
        <ele>5.8</ele>
        <time>2020-08-15T14:59:05Z</time>
      </trkpt>
      <trkpt lat="51.216811" lon="4.54667">
        <ele>5.6</ele>
        <time>2020-08-15T14:59:08Z</time>
      </trkpt>
      <trkpt lat="51.216731" lon="4.546692">
        <ele>5.5</ele>
        <time>2020-08-15T14:59:11Z</time>
      </trkpt>
      <trkpt lat="51.216643" lon="4.546706">
        <ele>5.4</ele>
        <time>2020-08-15T14:59:14Z</time>
      </trkpt>
      <trkpt lat="51.216555" lon="4.546721">
        <ele>5.3</ele>
        <time>2020-08-15T14:59:17Z</time>
      </trkpt>
      <trkpt lat="51.216455" lon="4.546744">
        <ele>5.2</ele>
        <time>2020-08-15T14:59:21Z</time>
      </trkpt>
      <trkpt lat="51.216366" lon="4.546767">
        <ele>5.2</ele>
        <time>2020-08-15T14:59:24Z</time>
      </trkpt>
      <trkpt lat="51.216265" lon="4.546795">
        <ele>5.2</ele>
        <time>2020-08-15T14:59:28Z</time>
      </trkpt>
      <trkpt lat="51.216166" lon="4.546778">
        <ele>5.3</ele>
        <time>2020-08-15T14:59:32Z</time>
      </trkpt>
      <trkpt lat="51.216068" lon="4.546743">
        <ele>5.5</ele>
        <time>2020-08-15T14:59:36Z</time>
      </trkpt>
      <trkpt lat="51.21597" lon="4.546696">
        <ele>5.6</ele>
        <time>2020-08-15T14:59:40Z</time>
      </trkpt>
      <trkpt lat="51.215867" lon="4.546659">
        <ele>5.8</ele>
        <time>2020-08-15T14:59:44Z</time>
      </trkpt>
      <trkpt lat="51.215791" lon="4.546618">
        <ele>5.9</ele>
        <time>2020-08-15T14:59:47Z</time>
      </trkpt>
      <trkpt lat="51.2157" lon="4.546586">
        <ele>6</ele>
        <time>2020-08-15T14:59:51Z</time>
      </trkpt>
      <trkpt lat="51.215605" lon="4.546564">
        <ele>6.1</ele>
        <time>2020-08-15T14:59:56Z</time>
      </trkpt>
      <trkpt lat="51.215523" lon="4.546516">
        <ele>6.3</ele>
        <time>2020-08-15T15:00:01Z</time>
      </trkpt>
      <trkpt lat="51.215534" lon="4.546529">
        <ele>6.5</ele>
        <time>2020-08-15T15:00:11Z</time>
      </trkpt>
      <trkpt lat="51.215471" lon="4.5465">
        <ele>7.5</ele>
        <time>2020-08-15T15:00:34Z</time>
      </trkpt>
      <trkpt lat="51.215429" lon="4.54648">
        <ele>7.4</ele>
        <time>2020-08-15T15:00:36Z</time>
      </trkpt>
      <trkpt lat="51.215332" lon="4.546442">
        <ele>7.4</ele>
        <time>2020-08-15T15:00:40Z</time>
      </trkpt>
      <trkpt lat="51.21525" lon="4.546417">
        <ele>7.2</ele>
        <time>2020-08-15T15:00:43Z</time>
      </trkpt>
      <trkpt lat="51.215164" lon="4.546388">
        <ele>7.1</ele>
        <time>2020-08-15T15:00:46Z</time>
      </trkpt>
      <trkpt lat="51.21508" lon="4.546369">
        <ele>7</ele>
        <time>2020-08-15T15:00:49Z</time>
      </trkpt>
      <trkpt lat="51.214979" lon="4.546327">
        <ele>7</ele>
        <time>2020-08-15T15:00:53Z</time>
      </trkpt>
      <trkpt lat="51.214896" lon="4.546299">
        <ele>7</ele>
        <time>2020-08-15T15:00:56Z</time>
      </trkpt>
      <trkpt lat="51.214806" lon="4.546267">
        <ele>6.9</ele>
        <time>2020-08-15T15:00:59Z</time>
      </trkpt>
      <trkpt lat="51.21471" lon="4.546189">
        <ele>6.8</ele>
        <time>2020-08-15T15:01:02Z</time>
      </trkpt>
      <trkpt lat="51.214648" lon="4.546037">
        <ele>6.6</ele>
        <time>2020-08-15T15:01:05Z</time>
      </trkpt>
      <trkpt lat="51.214627" lon="4.545869">
        <ele>6.5</ele>
        <time>2020-08-15T15:01:08Z</time>
      </trkpt>
      <trkpt lat="51.214624" lon="4.545681">
        <ele>6.5</ele>
        <time>2020-08-15T15:01:11Z</time>
      </trkpt>
      <trkpt lat="51.214612" lon="4.545505">
        <ele>6.4</ele>
        <time>2020-08-15T15:01:14Z</time>
      </trkpt>
      <trkpt lat="51.214593" lon="4.545353">
        <ele>6.4</ele>
        <time>2020-08-15T15:01:17Z</time>
      </trkpt>
      <trkpt lat="51.214574" lon="4.545207">
        <ele>6.4</ele>
        <time>2020-08-15T15:01:20Z</time>
      </trkpt>
      <trkpt lat="51.214549" lon="4.54506">
        <ele>6.4</ele>
        <time>2020-08-15T15:01:23Z</time>
      </trkpt>
      <trkpt lat="51.214531" lon="4.544913">
        <ele>6.3</ele>
        <time>2020-08-15T15:01:26Z</time>
      </trkpt>
      <trkpt lat="51.214509" lon="4.544772">
        <ele>6.2</ele>
        <time>2020-08-15T15:01:29Z</time>
      </trkpt>
      <trkpt lat="51.214489" lon="4.544617">
        <ele>6</ele>
        <time>2020-08-15T15:01:32Z</time>
      </trkpt>
      <trkpt lat="51.214471" lon="4.544451">
        <ele>5.8</ele>
        <time>2020-08-15T15:01:35Z</time>
      </trkpt>
      <trkpt lat="51.214447" lon="4.544299">
        <ele>5.7</ele>
        <time>2020-08-15T15:01:38Z</time>
      </trkpt>
      <trkpt lat="51.214416" lon="4.544137">
        <ele>5.6</ele>
        <time>2020-08-15T15:01:41Z</time>
      </trkpt>
      <trkpt lat="51.214372" lon="4.543992">
        <ele>5.5</ele>
        <time>2020-08-15T15:01:44Z</time>
      </trkpt>
      <trkpt lat="51.214298" lon="4.543898">
        <ele>5.5</ele>
        <time>2020-08-15T15:01:47Z</time>
      </trkpt>
      <trkpt lat="51.214211" lon="4.543867">
        <ele>5.4</ele>
        <time>2020-08-15T15:01:50Z</time>
      </trkpt>
      <trkpt lat="51.214119" lon="4.543845">
        <ele>5.3</ele>
        <time>2020-08-15T15:01:53Z</time>
      </trkpt>
      <trkpt lat="51.214034" lon="4.543792">
        <ele>5.2</ele>
        <time>2020-08-15T15:01:56Z</time>
      </trkpt>
      <trkpt lat="51.213988" lon="4.543664">
        <ele>5.1</ele>
        <time>2020-08-15T15:01:59Z</time>
      </trkpt>
      <trkpt lat="51.213964" lon="4.543522">
        <ele>5</ele>
        <time>2020-08-15T15:02:02Z</time>
      </trkpt>
      <trkpt lat="51.21394" lon="4.54339">
        <ele>5</ele>
        <time>2020-08-15T15:02:05Z</time>
      </trkpt>
      <trkpt lat="51.213916" lon="4.54325">
        <ele>5.1</ele>
        <time>2020-08-15T15:02:08Z</time>
      </trkpt>
      <trkpt lat="51.21388" lon="4.543115">
        <ele>5.2</ele>
        <time>2020-08-15T15:02:11Z</time>
      </trkpt>
      <trkpt lat="51.213841" lon="4.542979">
        <ele>5.3</ele>
        <time>2020-08-15T15:02:14Z</time>
      </trkpt>
      <trkpt lat="51.213798" lon="4.542838">
        <ele>5.4</ele>
        <time>2020-08-15T15:02:17Z</time>
      </trkpt>
      <trkpt lat="51.213756" lon="4.542689">
        <ele>5.5</ele>
        <time>2020-08-15T15:02:20Z</time>
      </trkpt>
      <trkpt lat="51.213714" lon="4.542541">
        <ele>5.5</ele>
        <time>2020-08-15T15:02:23Z</time>
      </trkpt>
      <trkpt lat="51.213685" lon="4.542395">
        <ele>5.6</ele>
        <time>2020-08-15T15:02:26Z</time>
      </trkpt>
      <trkpt lat="51.213655" lon="4.542242">
        <ele>5.7</ele>
        <time>2020-08-15T15:02:29Z</time>
      </trkpt>
      <trkpt lat="51.213624" lon="4.542083">
        <ele>5.8</ele>
        <time>2020-08-15T15:02:32Z</time>
      </trkpt>
      <trkpt lat="51.213592" lon="4.541911">
        <ele>5.9</ele>
        <time>2020-08-15T15:02:35Z</time>
      </trkpt>
      <trkpt lat="51.21357" lon="4.541732">
        <ele>6.1</ele>
        <time>2020-08-15T15:02:38Z</time>
      </trkpt>
      <trkpt lat="51.21355" lon="4.541571">
        <ele>6.2</ele>
        <time>2020-08-15T15:02:41Z</time>
      </trkpt>
      <trkpt lat="51.213529" lon="4.541419">
        <ele>6.3</ele>
        <time>2020-08-15T15:02:44Z</time>
      </trkpt>
      <trkpt lat="51.213511" lon="4.541264">
        <ele>6.5</ele>
        <time>2020-08-15T15:02:47Z</time>
      </trkpt>
      <trkpt lat="51.213485" lon="4.541138">
        <ele>6.6</ele>
        <time>2020-08-15T15:02:50Z</time>
      </trkpt>
      <trkpt lat="51.213381" lon="4.541093">
        <ele>6.8</ele>
        <time>2020-08-15T15:02:54Z</time>
      </trkpt>
      <trkpt lat="51.213291" lon="4.541113">
        <ele>7</ele>
        <time>2020-08-15T15:02:57Z</time>
      </trkpt>
      <trkpt lat="51.213206" lon="4.541135">
        <ele>7.2</ele>
        <time>2020-08-15T15:03:00Z</time>
      </trkpt>
      <trkpt lat="51.213102" lon="4.541145">
        <ele>7.3</ele>
        <time>2020-08-15T15:03:04Z</time>
      </trkpt>
      <trkpt lat="51.212996" lon="4.541149">
        <ele>7.4</ele>
        <time>2020-08-15T15:03:08Z</time>
      </trkpt>
      <trkpt lat="51.212899" lon="4.541156">
        <ele>7.5</ele>
        <time>2020-08-15T15:03:11Z</time>
      </trkpt>
      <trkpt lat="51.212806" lon="4.541171">
        <ele>7.5</ele>
        <time>2020-08-15T15:03:14Z</time>
      </trkpt>
      <trkpt lat="51.212708" lon="4.541189">
        <ele>7.6</ele>
        <time>2020-08-15T15:03:17Z</time>
      </trkpt>
      <trkpt lat="51.212616" lon="4.541196">
        <ele>7.7</ele>
        <time>2020-08-15T15:03:20Z</time>
      </trkpt>
      <trkpt lat="51.212529" lon="4.541196">
        <ele>7.8</ele>
        <time>2020-08-15T15:03:23Z</time>
      </trkpt>
      <trkpt lat="51.212443" lon="4.541213">
        <ele>7.9</ele>
        <time>2020-08-15T15:03:26Z</time>
      </trkpt>
      <trkpt lat="51.212362" lon="4.541224">
        <ele>8</ele>
        <time>2020-08-15T15:03:29Z</time>
      </trkpt>
      <trkpt lat="51.212261" lon="4.541237">
        <ele>8.1</ele>
        <time>2020-08-15T15:03:33Z</time>
      </trkpt>
      <trkpt lat="51.21216" lon="4.541219">
        <ele>8.1</ele>
        <time>2020-08-15T15:03:37Z</time>
      </trkpt>
      <trkpt lat="51.212057" lon="4.54121">
        <ele>8.2</ele>
        <time>2020-08-15T15:03:41Z</time>
      </trkpt>
      <trkpt lat="51.211973" lon="4.541213">
        <ele>8.2</ele>
        <time>2020-08-15T15:03:44Z</time>
      </trkpt>
      <trkpt lat="51.211891" lon="4.541197">
        <ele>8.2</ele>
        <time>2020-08-15T15:03:47Z</time>
      </trkpt>
      <trkpt lat="51.21181" lon="4.541176">
        <ele>8</ele>
        <time>2020-08-15T15:03:50Z</time>
      </trkpt>
      <trkpt lat="51.211721" lon="4.541158">
        <ele>7.8</ele>
        <time>2020-08-15T15:03:53Z</time>
      </trkpt>
      <trkpt lat="51.211638" lon="4.541112">
        <ele>7.6</ele>
        <time>2020-08-15T15:03:56Z</time>
      </trkpt>
      <trkpt lat="51.211546" lon="4.541051">
        <ele>7.4</ele>
        <time>2020-08-15T15:04:00Z</time>
      </trkpt>
      <trkpt lat="51.211457" lon="4.540979">
        <ele>7.1</ele>
        <time>2020-08-15T15:04:04Z</time>
      </trkpt>
      <trkpt lat="51.211372" lon="4.540926">
        <ele>6.9</ele>
        <time>2020-08-15T15:04:07Z</time>
      </trkpt>
      <trkpt lat="51.211285" lon="4.540871">
        <ele>6.7</ele>
        <time>2020-08-15T15:04:10Z</time>
      </trkpt>
      <trkpt lat="51.211199" lon="4.540861">
        <ele>6.6</ele>
        <time>2020-08-15T15:04:13Z</time>
      </trkpt>
      <trkpt lat="51.211124" lon="4.540915">
        <ele>6.5</ele>
        <time>2020-08-15T15:04:16Z</time>
      </trkpt>
      <trkpt lat="51.211069" lon="4.541013">
        <ele>6.5</ele>
        <time>2020-08-15T15:04:19Z</time>
      </trkpt>
      <trkpt lat="51.211027" lon="4.541167">
        <ele>6.5</ele>
        <time>2020-08-15T15:04:23Z</time>
      </trkpt>
      <trkpt lat="51.211002" lon="4.541308">
        <ele>6.6</ele>
        <time>2020-08-15T15:04:27Z</time>
      </trkpt>
      <trkpt lat="51.210989" lon="4.54147">
        <ele>6.8</ele>
        <time>2020-08-15T15:04:32Z</time>
      </trkpt>
      <trkpt lat="51.210979" lon="4.541618">
        <ele>7</ele>
        <time>2020-08-15T15:04:37Z</time>
      </trkpt>
      <trkpt lat="51.210959" lon="4.541754">
        <ele>7.2</ele>
        <time>2020-08-15T15:04:42Z</time>
      </trkpt>
      <trkpt lat="51.210954" lon="4.541883">
        <ele>7.4</ele>
        <time>2020-08-15T15:04:47Z</time>
      </trkpt>
      <trkpt lat="51.210935" lon="4.542016">
        <ele>7.5</ele>
        <time>2020-08-15T15:04:53Z</time>
      </trkpt>
      <trkpt lat="51.210921" lon="4.542161">
        <ele>7.5</ele>
        <time>2020-08-15T15:04:58Z</time>
      </trkpt>
      <trkpt lat="51.210893" lon="4.542308">
        <ele>7.6</ele>
        <time>2020-08-15T15:05:04Z</time>
      </trkpt>
      <trkpt lat="51.210856" lon="4.54245">
        <ele>7.7</ele>
        <time>2020-08-15T15:05:09Z</time>
      </trkpt>
      <trkpt lat="51.210851" lon="4.542597">
        <ele>7.8</ele>
        <time>2020-08-15T15:05:14Z</time>
      </trkpt>
      <trkpt lat="51.210838" lon="4.542747">
        <ele>7.9</ele>
        <time>2020-08-15T15:05:19Z</time>
      </trkpt>
      <trkpt lat="51.210828" lon="4.5429">
        <ele>8</ele>
        <time>2020-08-15T15:05:24Z</time>
      </trkpt>
      <trkpt lat="51.210823" lon="4.543051">
        <ele>8</ele>
        <time>2020-08-15T15:05:29Z</time>
      </trkpt>
      <trkpt lat="51.210814" lon="4.543198">
        <ele>8.1</ele>
        <time>2020-08-15T15:05:34Z</time>
      </trkpt>
      <trkpt lat="51.210787" lon="4.543326">
        <ele>8.1</ele>
        <time>2020-08-15T15:05:38Z</time>
      </trkpt>
      <trkpt lat="51.210757" lon="4.543456">
        <ele>8.1</ele>
        <time>2020-08-15T15:05:43Z</time>
      </trkpt>
      <trkpt lat="51.210737" lon="4.543589">
        <ele>8</ele>
        <time>2020-08-15T15:05:48Z</time>
      </trkpt>
      <trkpt lat="51.210721" lon="4.543738">
        <ele>7.9</ele>
        <time>2020-08-15T15:05:53Z</time>
      </trkpt>
      <trkpt lat="51.210744" lon="4.543914">
        <ele>7.8</ele>
        <time>2020-08-15T15:05:57Z</time>
      </trkpt>
      <trkpt lat="51.210797" lon="4.544076">
        <ele>7.7</ele>
        <time>2020-08-15T15:06:00Z</time>
      </trkpt>
      <trkpt lat="51.210825" lon="4.544207">
        <ele>7.6</ele>
        <time>2020-08-15T15:06:02Z</time>
      </trkpt>
      <trkpt lat="51.210865" lon="4.544341">
        <ele>7.5</ele>
        <time>2020-08-15T15:06:04Z</time>
      </trkpt>
      <trkpt lat="51.210894" lon="4.544489">
        <ele>7.5</ele>
        <time>2020-08-15T15:06:06Z</time>
      </trkpt>
      <trkpt lat="51.210928" lon="4.544647">
        <ele>7.5</ele>
        <time>2020-08-15T15:06:08Z</time>
      </trkpt>
      <trkpt lat="51.210966" lon="4.544815">
        <ele>7.4</ele>
        <time>2020-08-15T15:06:10Z</time>
      </trkpt>
      <trkpt lat="51.211009" lon="4.544989">
        <ele>7.3</ele>
        <time>2020-08-15T15:06:12Z</time>
      </trkpt>
      <trkpt lat="51.211039" lon="4.545166">
        <ele>7.2</ele>
        <time>2020-08-15T15:06:14Z</time>
      </trkpt>
      <trkpt lat="51.211093" lon="4.545372">
        <ele>7.2</ele>
        <time>2020-08-15T15:06:16Z</time>
      </trkpt>
      <trkpt lat="51.211139" lon="4.545563">
        <ele>7.1</ele>
        <time>2020-08-15T15:06:18Z</time>
      </trkpt>
      <trkpt lat="51.211181" lon="4.545741">
        <ele>7</ele>
        <time>2020-08-15T15:06:20Z</time>
      </trkpt>
      <trkpt lat="51.211214" lon="4.545949">
        <ele>6.9</ele>
        <time>2020-08-15T15:06:22Z</time>
      </trkpt>
      <trkpt lat="51.211227" lon="4.546142">
        <ele>6.8</ele>
        <time>2020-08-15T15:06:24Z</time>
      </trkpt>
      <trkpt lat="51.211224" lon="4.546316">
        <ele>6.8</ele>
        <time>2020-08-15T15:06:26Z</time>
      </trkpt>
      <trkpt lat="51.211209" lon="4.546479">
        <ele>6.8</ele>
        <time>2020-08-15T15:06:28Z</time>
      </trkpt>
      <trkpt lat="51.211185" lon="4.546638">
        <ele>6.7</ele>
        <time>2020-08-15T15:06:30Z</time>
      </trkpt>
      <trkpt lat="51.211157" lon="4.546784">
        <ele>6.6</ele>
        <time>2020-08-15T15:06:32Z</time>
      </trkpt>
      <trkpt lat="51.211118" lon="4.546965">
        <ele>6.6</ele>
        <time>2020-08-15T15:06:35Z</time>
      </trkpt>
      <trkpt lat="51.211066" lon="4.547131">
        <ele>6.6</ele>
        <time>2020-08-15T15:06:38Z</time>
      </trkpt>
      <trkpt lat="51.211043" lon="4.547293">
        <ele>6.6</ele>
        <time>2020-08-15T15:06:41Z</time>
      </trkpt>
      <trkpt lat="51.211005" lon="4.547443">
        <ele>6.7</ele>
        <time>2020-08-15T15:06:44Z</time>
      </trkpt>
      <trkpt lat="51.21096" lon="4.547606">
        <ele>6.8</ele>
        <time>2020-08-15T15:06:47Z</time>
      </trkpt>
      <trkpt lat="51.210911" lon="4.547771">
        <ele>6.9</ele>
        <time>2020-08-15T15:06:50Z</time>
      </trkpt>
      <trkpt lat="51.210874" lon="4.547925">
        <ele>7</ele>
        <time>2020-08-15T15:06:53Z</time>
      </trkpt>
      <trkpt lat="51.210839" lon="4.548054">
        <ele>6.9</ele>
        <time>2020-08-15T15:06:56Z</time>
      </trkpt>
      <trkpt lat="51.210799" lon="4.548184">
        <ele>6.8</ele>
        <time>2020-08-15T15:06:59Z</time>
      </trkpt>
      <trkpt lat="51.210751" lon="4.548333">
        <ele>6.8</ele>
        <time>2020-08-15T15:07:02Z</time>
      </trkpt>
      <trkpt lat="51.210699" lon="4.548486">
        <ele>6.8</ele>
        <time>2020-08-15T15:07:05Z</time>
      </trkpt>
      <trkpt lat="51.210647" lon="4.548646">
        <ele>6.8</ele>
        <time>2020-08-15T15:07:08Z</time>
      </trkpt>
      <trkpt lat="51.210602" lon="4.548788">
        <ele>6.8</ele>
        <time>2020-08-15T15:07:11Z</time>
      </trkpt>
      <trkpt lat="51.210519" lon="4.548812">
        <ele>6.8</ele>
        <time>2020-08-15T15:07:17Z</time>
      </trkpt>
      <trkpt lat="51.210474" lon="4.548697">
        <ele>6.8</ele>
        <time>2020-08-15T15:07:21Z</time>
      </trkpt>
      <trkpt lat="51.210419" lon="4.548584">
        <ele>6.8</ele>
        <time>2020-08-15T15:07:25Z</time>
      </trkpt>
      <trkpt lat="51.210329" lon="4.548576">
        <ele>6.8</ele>
        <time>2020-08-15T15:07:30Z</time>
      </trkpt>
      <trkpt lat="51.210278" lon="4.548475">
        <ele>6.7</ele>
        <time>2020-08-15T15:07:35Z</time>
      </trkpt>
      <trkpt lat="51.210224" lon="4.548356">
        <ele>6.7</ele>
        <time>2020-08-15T15:07:39Z</time>
      </trkpt>
      <trkpt lat="51.210171" lon="4.548241">
        <ele>6.7</ele>
        <time>2020-08-15T15:07:43Z</time>
      </trkpt>
      <trkpt lat="51.210172" lon="4.54809">
        <ele>6.6</ele>
        <time>2020-08-15T15:07:48Z</time>
      </trkpt>
      <trkpt lat="51.210144" lon="4.547926">
        <ele>6.5</ele>
        <time>2020-08-15T15:07:52Z</time>
      </trkpt>
      <trkpt lat="51.210052" lon="4.547863">
        <ele>6.5</ele>
        <time>2020-08-15T15:07:55Z</time>
      </trkpt>
      <trkpt lat="51.209982" lon="4.547764">
        <ele>6.4</ele>
        <time>2020-08-15T15:07:58Z</time>
      </trkpt>
      <trkpt lat="51.209935" lon="4.547617">
        <ele>6.3</ele>
        <time>2020-08-15T15:08:01Z</time>
      </trkpt>
      <trkpt lat="51.20996" lon="4.547453">
        <ele>6.2</ele>
        <time>2020-08-15T15:08:04Z</time>
      </trkpt>
      <trkpt lat="51.21003" lon="4.547311">
        <ele>6.1</ele>
        <time>2020-08-15T15:08:07Z</time>
      </trkpt>
      <trkpt lat="51.210092" lon="4.547192">
        <ele>6</ele>
        <time>2020-08-15T15:08:10Z</time>
      </trkpt>
      <trkpt lat="51.210126" lon="4.547042">
        <ele>6</ele>
        <time>2020-08-15T15:08:14Z</time>
      </trkpt>
      <trkpt lat="51.210134" lon="4.546887">
        <ele>6</ele>
        <time>2020-08-15T15:08:18Z</time>
      </trkpt>
      <trkpt lat="51.210184" lon="4.546762">
        <ele>6</ele>
        <time>2020-08-15T15:08:23Z</time>
      </trkpt>
      <trkpt lat="51.210198" lon="4.546713">
        <ele>6</ele>
        <time>2020-08-15T15:08:32Z</time>
      </trkpt>
      <trkpt lat="51.210179" lon="4.54726">
        <ele>6</ele>
        <time>2020-08-15T15:40:13Z</time>
      </trkpt>
      <trkpt lat="51.210228" lon="4.547144">
        <ele>5.8</ele>
        <time>2020-08-15T15:40:16Z</time>
      </trkpt>
      <trkpt lat="51.210284" lon="4.547032">
        <ele>5.7</ele>
        <time>2020-08-15T15:40:19Z</time>
      </trkpt>
      <trkpt lat="51.210298" lon="4.546901">
        <ele>5.6</ele>
        <time>2020-08-15T15:40:22Z</time>
      </trkpt>
      <trkpt lat="51.210342" lon="4.546792">
        <ele>5.6</ele>
        <time>2020-08-15T15:40:26Z</time>
      </trkpt>
      <trkpt lat="51.210417" lon="4.546712">
        <ele>5.6</ele>
        <time>2020-08-15T15:40:30Z</time>
      </trkpt>
      <trkpt lat="51.210503" lon="4.546804">
        <ele>5.6</ele>
        <time>2020-08-15T15:40:34Z</time>
      </trkpt>
      <trkpt lat="51.210582" lon="4.546877">
        <ele>5.7</ele>
        <time>2020-08-15T15:40:38Z</time>
      </trkpt>
      <trkpt lat="51.210572" lon="4.547014">
        <ele>5.8</ele>
        <time>2020-08-15T15:40:52Z</time>
      </trkpt>
      <trkpt lat="51.21056" lon="4.54717">
        <ele>6</ele>
        <time>2020-08-15T15:40:57Z</time>
      </trkpt>
      <trkpt lat="51.210541" lon="4.547328">
        <ele>6.1</ele>
        <time>2020-08-15T15:41:01Z</time>
      </trkpt>
      <trkpt lat="51.210544" lon="4.547463">
        <ele>6.3</ele>
        <time>2020-08-15T15:41:05Z</time>
      </trkpt>
      <trkpt lat="51.210516" lon="4.547626">
        <ele>6.5</ele>
        <time>2020-08-15T15:41:09Z</time>
      </trkpt>
      <trkpt lat="51.210463" lon="4.547739">
        <ele>6.8</ele>
        <time>2020-08-15T15:41:12Z</time>
      </trkpt>
      <trkpt lat="51.210394" lon="4.547844">
        <ele>7</ele>
        <time>2020-08-15T15:41:16Z</time>
      </trkpt>
      <trkpt lat="51.210428" lon="4.547997">
        <ele>7.1</ele>
        <time>2020-08-15T15:41:23Z</time>
      </trkpt>
      <trkpt lat="51.210482" lon="4.548107">
        <ele>7.2</ele>
        <time>2020-08-15T15:41:26Z</time>
      </trkpt>
      <trkpt lat="51.21053" lon="4.548227">
        <ele>7.2</ele>
        <time>2020-08-15T15:41:29Z</time>
      </trkpt>
      <trkpt lat="51.210495" lon="4.548359">
        <ele>7.1</ele>
        <time>2020-08-15T15:41:32Z</time>
      </trkpt>
      <trkpt lat="51.210446" lon="4.548477">
        <ele>7</ele>
        <time>2020-08-15T15:41:35Z</time>
      </trkpt>
      <trkpt lat="51.210421" lon="4.548608">
        <ele>6.8</ele>
        <time>2020-08-15T15:41:38Z</time>
      </trkpt>
      <trkpt lat="51.21047" lon="4.548726">
        <ele>6.7</ele>
        <time>2020-08-15T15:41:41Z</time>
      </trkpt>
      <trkpt lat="51.210529" lon="4.548817">
        <ele>6.6</ele>
        <time>2020-08-15T15:41:45Z</time>
      </trkpt>
      <trkpt lat="51.210542" lon="4.548962">
        <ele>6.5</ele>
        <time>2020-08-15T15:41:51Z</time>
      </trkpt>
      <trkpt lat="51.210497" lon="4.54908">
        <ele>6.3</ele>
        <time>2020-08-15T15:41:54Z</time>
      </trkpt>
      <trkpt lat="51.210449" lon="4.549209">
        <ele>6.2</ele>
        <time>2020-08-15T15:41:57Z</time>
      </trkpt>
      <trkpt lat="51.210413" lon="4.549358">
        <ele>6.2</ele>
        <time>2020-08-15T15:42:00Z</time>
      </trkpt>
      <trkpt lat="51.210379" lon="4.549492">
        <ele>6.2</ele>
        <time>2020-08-15T15:42:03Z</time>
      </trkpt>
      <trkpt lat="51.210336" lon="4.549614">
        <ele>6.3</ele>
        <time>2020-08-15T15:42:06Z</time>
      </trkpt>
      <trkpt lat="51.210306" lon="4.549736">
        <ele>6.4</ele>
        <time>2020-08-15T15:42:09Z</time>
      </trkpt>
      <trkpt lat="51.210273" lon="4.549856">
        <ele>6.5</ele>
        <time>2020-08-15T15:42:12Z</time>
      </trkpt>
      <trkpt lat="51.210233" lon="4.549989">
        <ele>6.5</ele>
        <time>2020-08-15T15:42:15Z</time>
      </trkpt>
      <trkpt lat="51.210199" lon="4.550141">
        <ele>6.6</ele>
        <time>2020-08-15T15:42:18Z</time>
      </trkpt>
      <trkpt lat="51.210164" lon="4.550286">
        <ele>6.7</ele>
        <time>2020-08-15T15:42:21Z</time>
      </trkpt>
      <trkpt lat="51.21013" lon="4.550426">
        <ele>6.8</ele>
        <time>2020-08-15T15:42:24Z</time>
      </trkpt>
      <trkpt lat="51.210104" lon="4.550568">
        <ele>6.9</ele>
        <time>2020-08-15T15:42:27Z</time>
      </trkpt>
      <trkpt lat="51.210059" lon="4.550708">
        <ele>7</ele>
        <time>2020-08-15T15:42:30Z</time>
      </trkpt>
      <trkpt lat="51.210014" lon="4.550863">
        <ele>7</ele>
        <time>2020-08-15T15:42:33Z</time>
      </trkpt>
      <trkpt lat="51.209968" lon="4.551013">
        <ele>7.1</ele>
        <time>2020-08-15T15:42:36Z</time>
      </trkpt>
      <trkpt lat="51.209931" lon="4.551145">
        <ele>7.2</ele>
        <time>2020-08-15T15:42:39Z</time>
      </trkpt>
      <trkpt lat="51.209891" lon="4.551286">
        <ele>7.4</ele>
        <time>2020-08-15T15:42:42Z</time>
      </trkpt>
      <trkpt lat="51.209851" lon="4.551443">
        <ele>7.5</ele>
        <time>2020-08-15T15:42:45Z</time>
      </trkpt>
      <trkpt lat="51.209811" lon="4.551615">
        <ele>7.7</ele>
        <time>2020-08-15T15:42:48Z</time>
      </trkpt>
      <trkpt lat="51.209774" lon="4.55177">
        <ele>8</ele>
        <time>2020-08-15T15:42:51Z</time>
      </trkpt>
      <trkpt lat="51.209754" lon="4.551903">
        <ele>8.3</ele>
        <time>2020-08-15T15:42:54Z</time>
      </trkpt>
      <trkpt lat="51.209812" lon="4.552011">
        <ele>8.6</ele>
        <time>2020-08-15T15:42:57Z</time>
      </trkpt>
      <trkpt lat="51.209922" lon="4.552">
        <ele>9</ele>
        <time>2020-08-15T15:43:00Z</time>
      </trkpt>
      <trkpt lat="51.210019" lon="4.551978">
        <ele>9.4</ele>
        <time>2020-08-15T15:43:03Z</time>
      </trkpt>
      <trkpt lat="51.210111" lon="4.551985">
        <ele>9.6</ele>
        <time>2020-08-15T15:43:06Z</time>
      </trkpt>
      <trkpt lat="51.210206" lon="4.552019">
        <ele>9.8</ele>
        <time>2020-08-15T15:43:09Z</time>
      </trkpt>
      <trkpt lat="51.210299" lon="4.552017">
        <ele>9.9</ele>
        <time>2020-08-15T15:43:12Z</time>
      </trkpt>
      <trkpt lat="51.210397" lon="4.552014">
        <ele>9.9</ele>
        <time>2020-08-15T15:43:15Z</time>
      </trkpt>
      <trkpt lat="51.210495" lon="4.552062">
        <ele>9.8</ele>
        <time>2020-08-15T15:43:18Z</time>
      </trkpt>
      <trkpt lat="51.210607" lon="4.552063">
        <ele>9.7</ele>
        <time>2020-08-15T15:43:21Z</time>
      </trkpt>
      <trkpt lat="51.21072" lon="4.552044">
        <ele>9.5</ele>
        <time>2020-08-15T15:43:24Z</time>
      </trkpt>
      <trkpt lat="51.210833" lon="4.551997">
        <ele>9.1</ele>
        <time>2020-08-15T15:43:27Z</time>
      </trkpt>
      <trkpt lat="51.210913" lon="4.551961">
        <ele>8.6</ele>
        <time>2020-08-15T15:43:29Z</time>
      </trkpt>
      <trkpt lat="51.210996" lon="4.551907">
        <ele>8.1</ele>
        <time>2020-08-15T15:43:31Z</time>
      </trkpt>
      <trkpt lat="51.211099" lon="4.551829">
        <ele>7.5</ele>
        <time>2020-08-15T15:43:34Z</time>
      </trkpt>
      <trkpt lat="51.211192" lon="4.551743">
        <ele>7.2</ele>
        <time>2020-08-15T15:43:37Z</time>
      </trkpt>
      <trkpt lat="51.211279" lon="4.551641">
        <ele>6.8</ele>
        <time>2020-08-15T15:43:41Z</time>
      </trkpt>
      <trkpt lat="51.211365" lon="4.551537">
        <ele>6.5</ele>
        <time>2020-08-15T15:43:44Z</time>
      </trkpt>
      <trkpt lat="51.211428" lon="4.551448">
        <ele>6.4</ele>
        <time>2020-08-15T15:43:46Z</time>
      </trkpt>
      <trkpt lat="51.211517" lon="4.551323">
        <ele>6.3</ele>
        <time>2020-08-15T15:43:49Z</time>
      </trkpt>
      <trkpt lat="51.211603" lon="4.551214">
        <ele>6.2</ele>
        <time>2020-08-15T15:43:52Z</time>
      </trkpt>
      <trkpt lat="51.211675" lon="4.551153">
        <ele>6.2</ele>
        <time>2020-08-15T15:43:54Z</time>
      </trkpt>
      <trkpt lat="51.211789" lon="4.551093">
        <ele>6.3</ele>
        <time>2020-08-15T15:43:57Z</time>
      </trkpt>
      <trkpt lat="51.211902" lon="4.551049">
        <ele>6.5</ele>
        <time>2020-08-15T15:44:00Z</time>
      </trkpt>
      <trkpt lat="51.212014" lon="4.551007">
        <ele>6.7</ele>
        <time>2020-08-15T15:44:03Z</time>
      </trkpt>
      <trkpt lat="51.212129" lon="4.550952">
        <ele>7</ele>
        <time>2020-08-15T15:44:06Z</time>
      </trkpt>
      <trkpt lat="51.212211" lon="4.550912">
        <ele>7.2</ele>
        <time>2020-08-15T15:44:08Z</time>
      </trkpt>
      <trkpt lat="51.212292" lon="4.55087">
        <ele>7.4</ele>
        <time>2020-08-15T15:44:10Z</time>
      </trkpt>
      <trkpt lat="51.212372" lon="4.550828">
        <ele>7.5</ele>
        <time>2020-08-15T15:44:12Z</time>
      </trkpt>
      <trkpt lat="51.212455" lon="4.550787">
        <ele>7.5</ele>
        <time>2020-08-15T15:44:14Z</time>
      </trkpt>
      <trkpt lat="51.212533" lon="4.550748">
        <ele>7.5</ele>
        <time>2020-08-15T15:44:16Z</time>
      </trkpt>
      <trkpt lat="51.212611" lon="4.550707">
        <ele>7.5</ele>
        <time>2020-08-15T15:44:18Z</time>
      </trkpt>
      <trkpt lat="51.212689" lon="4.550675">
        <ele>7.4</ele>
        <time>2020-08-15T15:44:20Z</time>
      </trkpt>
      <trkpt lat="51.212807" lon="4.550659">
        <ele>7.2</ele>
        <time>2020-08-15T15:44:23Z</time>
      </trkpt>
      <trkpt lat="51.212915" lon="4.550689">
        <ele>6.9</ele>
        <time>2020-08-15T15:44:26Z</time>
      </trkpt>
      <trkpt lat="51.21302" lon="4.55072">
        <ele>6.7</ele>
        <time>2020-08-15T15:44:29Z</time>
      </trkpt>
      <trkpt lat="51.213123" lon="4.550711">
        <ele>6.5</ele>
        <time>2020-08-15T15:44:32Z</time>
      </trkpt>
      <trkpt lat="51.213228" lon="4.550693">
        <ele>6.4</ele>
        <time>2020-08-15T15:44:35Z</time>
      </trkpt>
      <trkpt lat="51.21333" lon="4.550656">
        <ele>6.2</ele>
        <time>2020-08-15T15:44:38Z</time>
      </trkpt>
      <trkpt lat="51.213437" lon="4.550595">
        <ele>6</ele>
        <time>2020-08-15T15:44:41Z</time>
      </trkpt>
      <trkpt lat="51.21354" lon="4.550541">
        <ele>5.9</ele>
        <time>2020-08-15T15:44:44Z</time>
      </trkpt>
      <trkpt lat="51.21365" lon="4.550504">
        <ele>5.8</ele>
        <time>2020-08-15T15:44:47Z</time>
      </trkpt>
      <trkpt lat="51.213757" lon="4.550479">
        <ele>5.8</ele>
        <time>2020-08-15T15:44:50Z</time>
      </trkpt>
      <trkpt lat="51.213865" lon="4.55048">
        <ele>5.9</ele>
        <time>2020-08-15T15:44:53Z</time>
      </trkpt>
      <trkpt lat="51.213974" lon="4.550479">
        <ele>6</ele>
        <time>2020-08-15T15:44:56Z</time>
      </trkpt>
      <trkpt lat="51.214085" lon="4.550478">
        <ele>6.1</ele>
        <time>2020-08-15T15:44:59Z</time>
      </trkpt>
      <trkpt lat="51.214198" lon="4.55049">
        <ele>6.1</ele>
        <time>2020-08-15T15:45:02Z</time>
      </trkpt>
      <trkpt lat="51.214314" lon="4.550498">
        <ele>6.1</ele>
        <time>2020-08-15T15:45:05Z</time>
      </trkpt>
      <trkpt lat="51.214409" lon="4.550481">
        <ele>6.1</ele>
        <time>2020-08-15T15:45:08Z</time>
      </trkpt>
      <trkpt lat="51.214503" lon="4.550459">
        <ele>6.1</ele>
        <time>2020-08-15T15:45:11Z</time>
      </trkpt>
      <trkpt lat="51.214591" lon="4.550427">
        <ele>6.1</ele>
        <time>2020-08-15T15:45:14Z</time>
      </trkpt>
      <trkpt lat="51.2147" lon="4.550406">
        <ele>6.1</ele>
        <time>2020-08-15T15:45:17Z</time>
      </trkpt>
      <trkpt lat="51.214803" lon="4.550393">
        <ele>6.1</ele>
        <time>2020-08-15T15:45:20Z</time>
      </trkpt>
      <trkpt lat="51.214912" lon="4.550369">
        <ele>6.1</ele>
        <time>2020-08-15T15:45:23Z</time>
      </trkpt>
      <trkpt lat="51.215019" lon="4.55034">
        <ele>6</ele>
        <time>2020-08-15T15:45:26Z</time>
      </trkpt>
      <trkpt lat="51.215133" lon="4.550301">
        <ele>6</ele>
        <time>2020-08-15T15:45:29Z</time>
      </trkpt>
      <trkpt lat="51.215242" lon="4.550266">
        <ele>6</ele>
        <time>2020-08-15T15:45:32Z</time>
      </trkpt>
      <trkpt lat="51.215358" lon="4.550231">
        <ele>6</ele>
        <time>2020-08-15T15:45:35Z</time>
      </trkpt>
      <trkpt lat="51.215478" lon="4.550207">
        <ele>6</ele>
        <time>2020-08-15T15:45:38Z</time>
      </trkpt>
      <trkpt lat="51.215572" lon="4.550199">
        <ele>6.1</ele>
        <time>2020-08-15T15:45:41Z</time>
      </trkpt>
      <trkpt lat="51.215682" lon="4.550183">
        <ele>6.2</ele>
        <time>2020-08-15T15:45:44Z</time>
      </trkpt>
      <trkpt lat="51.215796" lon="4.55016">
        <ele>6.2</ele>
        <time>2020-08-15T15:45:47Z</time>
      </trkpt>
      <trkpt lat="51.215878" lon="4.550145">
        <ele>6.2</ele>
        <time>2020-08-15T15:45:49Z</time>
      </trkpt>
      <trkpt lat="51.215961" lon="4.550139">
        <ele>6.2</ele>
        <time>2020-08-15T15:45:51Z</time>
      </trkpt>
      <trkpt lat="51.216042" lon="4.550132">
        <ele>6.1</ele>
        <time>2020-08-15T15:45:53Z</time>
      </trkpt>
      <trkpt lat="51.216124" lon="4.550129">
        <ele>6</ele>
        <time>2020-08-15T15:45:55Z</time>
      </trkpt>
      <trkpt lat="51.216207" lon="4.550133">
        <ele>5.9</ele>
        <time>2020-08-15T15:45:57Z</time>
      </trkpt>
      <trkpt lat="51.21632" lon="4.55014">
        <ele>5.8</ele>
        <time>2020-08-15T15:46:00Z</time>
      </trkpt>
      <trkpt lat="51.216432" lon="4.550147">
        <ele>5.7</ele>
        <time>2020-08-15T15:46:03Z</time>
      </trkpt>
      <trkpt lat="51.216543" lon="4.550147">
        <ele>5.6</ele>
        <time>2020-08-15T15:46:06Z</time>
      </trkpt>
      <trkpt lat="51.216656" lon="4.550148">
        <ele>5.5</ele>
        <time>2020-08-15T15:46:09Z</time>
      </trkpt>
      <trkpt lat="51.216757" lon="4.550143">
        <ele>5.3</ele>
        <time>2020-08-15T15:46:12Z</time>
      </trkpt>
      <trkpt lat="51.216851" lon="4.550142">
        <ele>5.2</ele>
        <time>2020-08-15T15:46:15Z</time>
      </trkpt>
      <trkpt lat="51.216921" lon="4.55005">
        <ele>5.2</ele>
        <time>2020-08-15T15:46:19Z</time>
      </trkpt>
      <trkpt lat="51.216926" lon="4.549894">
        <ele>5.2</ele>
        <time>2020-08-15T15:46:22Z</time>
      </trkpt>
      <trkpt lat="51.21696" lon="4.54974">
        <ele>5.3</ele>
        <time>2020-08-15T15:46:25Z</time>
      </trkpt>
      <trkpt lat="51.216977" lon="4.549586">
        <ele>5.4</ele>
        <time>2020-08-15T15:46:28Z</time>
      </trkpt>
      <trkpt lat="51.216994" lon="4.549437">
        <ele>5.4</ele>
        <time>2020-08-15T15:46:31Z</time>
      </trkpt>
      <trkpt lat="51.217015" lon="4.549294">
        <ele>5.3</ele>
        <time>2020-08-15T15:46:34Z</time>
      </trkpt>
      <trkpt lat="51.217033" lon="4.549151">
        <ele>5.1</ele>
        <time>2020-08-15T15:46:37Z</time>
      </trkpt>
      <trkpt lat="51.217049" lon="4.549017">
        <ele>4.9</ele>
        <time>2020-08-15T15:46:40Z</time>
      </trkpt>
      <trkpt lat="51.217086" lon="4.548874">
        <ele>4.7</ele>
        <time>2020-08-15T15:46:43Z</time>
      </trkpt>
      <trkpt lat="51.217121" lon="4.548711">
        <ele>4.5</ele>
        <time>2020-08-15T15:46:46Z</time>
      </trkpt>
      <trkpt lat="51.21716" lon="4.548544">
        <ele>4.5</ele>
        <time>2020-08-15T15:46:49Z</time>
      </trkpt>
      <trkpt lat="51.217198" lon="4.548376">
        <ele>4.3</ele>
        <time>2020-08-15T15:46:52Z</time>
      </trkpt>
      <trkpt lat="51.217218" lon="4.548206">
        <ele>4.1</ele>
        <time>2020-08-15T15:46:55Z</time>
      </trkpt>
      <trkpt lat="51.217244" lon="4.548029">
        <ele>4</ele>
        <time>2020-08-15T15:46:58Z</time>
      </trkpt>
      <trkpt lat="51.217266" lon="4.54784">
        <ele>3.9</ele>
        <time>2020-08-15T15:47:01Z</time>
      </trkpt>
      <trkpt lat="51.217283" lon="4.547656">
        <ele>4</ele>
        <time>2020-08-15T15:47:04Z</time>
      </trkpt>
      <trkpt lat="51.217297" lon="4.54748">
        <ele>4.2</ele>
        <time>2020-08-15T15:47:07Z</time>
      </trkpt>
      <trkpt lat="51.217312" lon="4.547304">
        <ele>4.5</ele>
        <time>2020-08-15T15:47:10Z</time>
      </trkpt>
      <trkpt lat="51.217328" lon="4.547122">
        <ele>4.9</ele>
        <time>2020-08-15T15:47:13Z</time>
      </trkpt>
      <trkpt lat="51.217351" lon="4.54694">
        <ele>5.3</ele>
        <time>2020-08-15T15:47:16Z</time>
      </trkpt>
      <trkpt lat="51.217375" lon="4.546766">
        <ele>5.5</ele>
        <time>2020-08-15T15:47:19Z</time>
      </trkpt>
      <trkpt lat="51.217404" lon="4.546582">
        <ele>5.7</ele>
        <time>2020-08-15T15:47:22Z</time>
      </trkpt>
      <trkpt lat="51.21742" lon="4.546402">
        <ele>5.8</ele>
        <time>2020-08-15T15:47:25Z</time>
      </trkpt>
      <trkpt lat="51.217444" lon="4.546227">
        <ele>5.9</ele>
        <time>2020-08-15T15:47:28Z</time>
      </trkpt>
      <trkpt lat="51.217477" lon="4.546107">
        <ele>5.9</ele>
        <time>2020-08-15T15:47:30Z</time>
      </trkpt>
      <trkpt lat="51.217529" lon="4.545941">
        <ele>6</ele>
        <time>2020-08-15T15:47:33Z</time>
      </trkpt>
      <trkpt lat="51.217583" lon="4.545788">
        <ele>6</ele>
        <time>2020-08-15T15:47:36Z</time>
      </trkpt>
      <trkpt lat="51.217675" lon="4.545665">
        <ele>6</ele>
        <time>2020-08-15T15:47:39Z</time>
      </trkpt>
      <trkpt lat="51.217746" lon="4.545602">
        <ele>5.9</ele>
        <time>2020-08-15T15:47:41Z</time>
      </trkpt>
      <trkpt lat="51.217831" lon="4.545489">
        <ele>5.8</ele>
        <time>2020-08-15T15:47:44Z</time>
      </trkpt>
      <trkpt lat="51.217891" lon="4.545348">
        <ele>5.7</ele>
        <time>2020-08-15T15:47:47Z</time>
      </trkpt>
      <trkpt lat="51.217928" lon="4.545182">
        <ele>5.7</ele>
        <time>2020-08-15T15:47:50Z</time>
      </trkpt>
      <trkpt lat="51.217965" lon="4.545028">
        <ele>5.6</ele>
        <time>2020-08-15T15:47:53Z</time>
      </trkpt>
      <trkpt lat="51.218047" lon="4.544993">
        <ele>5.6</ele>
        <time>2020-08-15T15:47:56Z</time>
      </trkpt>
      <trkpt lat="51.218093" lon="4.544869">
        <ele>5.6</ele>
        <time>2020-08-15T15:48:01Z</time>
      </trkpt>
      <trkpt lat="51.218088" lon="4.544722">
        <ele>5.6</ele>
        <time>2020-08-15T15:48:04Z</time>
      </trkpt>
      <trkpt lat="51.218117" lon="4.544573">
        <ele>5.5</ele>
        <time>2020-08-15T15:48:07Z</time>
      </trkpt>
      <trkpt lat="51.218149" lon="4.54442">
        <ele>5.5</ele>
        <time>2020-08-15T15:48:10Z</time>
      </trkpt>
      <trkpt lat="51.218182" lon="4.544272">
        <ele>5.4</ele>
        <time>2020-08-15T15:48:13Z</time>
      </trkpt>
      <trkpt lat="51.218212" lon="4.54413">
        <ele>5.3</ele>
        <time>2020-08-15T15:48:16Z</time>
      </trkpt>
      <trkpt lat="51.218238" lon="4.543992">
        <ele>5.2</ele>
        <time>2020-08-15T15:48:19Z</time>
      </trkpt>
      <trkpt lat="51.218274" lon="4.543861">
        <ele>5.1</ele>
        <time>2020-08-15T15:48:22Z</time>
      </trkpt>
      <trkpt lat="51.218304" lon="4.543728">
        <ele>5</ele>
        <time>2020-08-15T15:48:25Z</time>
      </trkpt>
      <trkpt lat="51.218323" lon="4.543586">
        <ele>5.1</ele>
        <time>2020-08-15T15:48:28Z</time>
      </trkpt>
      <trkpt lat="51.21832" lon="4.543447">
        <ele>5.2</ele>
        <time>2020-08-15T15:48:31Z</time>
      </trkpt>
      <trkpt lat="51.218309" lon="4.543301">
        <ele>5.3</ele>
        <time>2020-08-15T15:48:34Z</time>
      </trkpt>
      <trkpt lat="51.218288" lon="4.54313">
        <ele>5.4</ele>
        <time>2020-08-15T15:48:37Z</time>
      </trkpt>
      <trkpt lat="51.218273" lon="4.542953">
        <ele>5.5</ele>
        <time>2020-08-15T15:48:40Z</time>
      </trkpt>
      <trkpt lat="51.218254" lon="4.542777">
        <ele>5.5</ele>
        <time>2020-08-15T15:48:43Z</time>
      </trkpt>
      <trkpt lat="51.218231" lon="4.542609">
        <ele>5.6</ele>
        <time>2020-08-15T15:48:46Z</time>
      </trkpt>
      <trkpt lat="51.218209" lon="4.542453">
        <ele>5.7</ele>
        <time>2020-08-15T15:48:49Z</time>
      </trkpt>
      <trkpt lat="51.218198" lon="4.542284">
        <ele>5.8</ele>
        <time>2020-08-15T15:48:52Z</time>
      </trkpt>
      <trkpt lat="51.21819" lon="4.542117">
        <ele>5.9</ele>
        <time>2020-08-15T15:48:55Z</time>
      </trkpt>
      <trkpt lat="51.218194" lon="4.541947">
        <ele>6</ele>
        <time>2020-08-15T15:48:58Z</time>
      </trkpt>
      <trkpt lat="51.21819" lon="4.54178">
        <ele>6</ele>
        <time>2020-08-15T15:49:01Z</time>
      </trkpt>
      <trkpt lat="51.218187" lon="4.54162">
        <ele>5.9</ele>
        <time>2020-08-15T15:49:04Z</time>
      </trkpt>
      <trkpt lat="51.218192" lon="4.541478">
        <ele>5.8</ele>
        <time>2020-08-15T15:49:07Z</time>
      </trkpt>
      <trkpt lat="51.2182" lon="4.541312">
        <ele>5.7</ele>
        <time>2020-08-15T15:49:10Z</time>
      </trkpt>
      <trkpt lat="51.218198" lon="4.541153">
        <ele>5.6</ele>
        <time>2020-08-15T15:49:13Z</time>
      </trkpt>
      <trkpt lat="51.218196" lon="4.540988">
        <ele>5.5</ele>
        <time>2020-08-15T15:49:16Z</time>
      </trkpt>
      <trkpt lat="51.218195" lon="4.540833">
        <ele>5.3</ele>
        <time>2020-08-15T15:49:19Z</time>
      </trkpt>
      <trkpt lat="51.218199" lon="4.540661">
        <ele>5</ele>
        <time>2020-08-15T15:49:23Z</time>
      </trkpt>
      <trkpt lat="51.218195" lon="4.540518">
        <ele>4.7</ele>
        <time>2020-08-15T15:49:26Z</time>
      </trkpt>
      <trkpt lat="51.21821" lon="4.540367">
        <ele>4.5</ele>
        <time>2020-08-15T15:49:30Z</time>
      </trkpt>
      <trkpt lat="51.218193" lon="4.540209">
        <ele>4.2</ele>
        <time>2020-08-15T15:49:34Z</time>
      </trkpt>
      <trkpt lat="51.21819" lon="4.540075">
        <ele>3.9</ele>
        <time>2020-08-15T15:49:37Z</time>
      </trkpt>
      <trkpt lat="51.218179" lon="4.539931">
        <ele>3.7</ele>
        <time>2020-08-15T15:49:40Z</time>
      </trkpt>
      <trkpt lat="51.218167" lon="4.539775">
        <ele>3.5</ele>
        <time>2020-08-15T15:49:45Z</time>
      </trkpt>
      <trkpt lat="51.218159" lon="4.539613">
        <ele>3.4</ele>
        <time>2020-08-15T15:49:48Z</time>
      </trkpt>
      <trkpt lat="51.21815" lon="4.539441">
        <ele>3.3</ele>
        <time>2020-08-15T15:49:51Z</time>
      </trkpt>
      <trkpt lat="51.218145" lon="4.539281">
        <ele>3.3</ele>
        <time>2020-08-15T15:49:54Z</time>
      </trkpt>
      <trkpt lat="51.218141" lon="4.53912">
        <ele>3.4</ele>
        <time>2020-08-15T15:49:57Z</time>
      </trkpt>
      <trkpt lat="51.218133" lon="4.538953">
        <ele>3.5</ele>
        <time>2020-08-15T15:50:00Z</time>
      </trkpt>
      <trkpt lat="51.218133" lon="4.53882">
        <ele>3.6</ele>
        <time>2020-08-15T15:50:03Z</time>
      </trkpt>
      <trkpt lat="51.218128" lon="4.538642">
        <ele>3.7</ele>
        <time>2020-08-15T15:50:07Z</time>
      </trkpt>
      <trkpt lat="51.218119" lon="4.538513">
        <ele>3.8</ele>
        <time>2020-08-15T15:50:10Z</time>
      </trkpt>
      <trkpt lat="51.218119" lon="4.538375">
        <ele>4</ele>
        <time>2020-08-15T15:50:13Z</time>
      </trkpt>
      <trkpt lat="51.218118" lon="4.538241">
        <ele>4.2</ele>
        <time>2020-08-15T15:50:16Z</time>
      </trkpt>
      <trkpt lat="51.218123" lon="4.538094">
        <ele>4.4</ele>
        <time>2020-08-15T15:50:19Z</time>
      </trkpt>
      <trkpt lat="51.218113" lon="4.53795">
        <ele>4.5</ele>
        <time>2020-08-15T15:50:22Z</time>
      </trkpt>
      <trkpt lat="51.21811" lon="4.537782">
        <ele>4.5</ele>
        <time>2020-08-15T15:50:25Z</time>
      </trkpt>
      <trkpt lat="51.218104" lon="4.537634">
        <ele>4.5</ele>
        <time>2020-08-15T15:50:28Z</time>
      </trkpt>
      <trkpt lat="51.218088" lon="4.537485">
        <ele>4.5</ele>
        <time>2020-08-15T15:50:31Z</time>
      </trkpt>
      <trkpt lat="51.218064" lon="4.537332">
        <ele>4.4</ele>
        <time>2020-08-15T15:50:34Z</time>
      </trkpt>
      <trkpt lat="51.218024" lon="4.537176">
        <ele>4.4</ele>
        <time>2020-08-15T15:50:37Z</time>
      </trkpt>
      <trkpt lat="51.217967" lon="4.537016">
        <ele>4.3</ele>
        <time>2020-08-15T15:50:40Z</time>
      </trkpt>
      <trkpt lat="51.21792" lon="4.536905">
        <ele>4.2</ele>
        <time>2020-08-15T15:50:42Z</time>
      </trkpt>
      <trkpt lat="51.217841" lon="4.536762">
        <ele>4</ele>
        <time>2020-08-15T15:50:45Z</time>
      </trkpt>
      <trkpt lat="51.217751" lon="4.536639">
        <ele>3.8</ele>
        <time>2020-08-15T15:50:48Z</time>
      </trkpt>
      <trkpt lat="51.217657" lon="4.536536">
        <ele>3.6</ele>
        <time>2020-08-15T15:50:51Z</time>
      </trkpt>
      <trkpt lat="51.217585" lon="4.53647">
        <ele>3.5</ele>
        <time>2020-08-15T15:50:53Z</time>
      </trkpt>
      <trkpt lat="51.217501" lon="4.536406">
        <ele>3.4</ele>
        <time>2020-08-15T15:50:55Z</time>
      </trkpt>
      <trkpt lat="51.217428" lon="4.536325">
        <ele>3.3</ele>
        <time>2020-08-15T15:50:57Z</time>
      </trkpt>
      <trkpt lat="51.217355" lon="4.536256">
        <ele>3.3</ele>
        <time>2020-08-15T15:50:59Z</time>
      </trkpt>
      <trkpt lat="51.217269" lon="4.53615">
        <ele>3.4</ele>
        <time>2020-08-15T15:51:02Z</time>
      </trkpt>
      <trkpt lat="51.21718" lon="4.536031">
        <ele>3.5</ele>
        <time>2020-08-15T15:51:05Z</time>
      </trkpt>
      <trkpt lat="51.217099" lon="4.535905">
        <ele>3.6</ele>
        <time>2020-08-15T15:51:08Z</time>
      </trkpt>
      <trkpt lat="51.217019" lon="4.535778">
        <ele>3.8</ele>
        <time>2020-08-15T15:51:11Z</time>
      </trkpt>
      <trkpt lat="51.216932" lon="4.535643">
        <ele>4.1</ele>
        <time>2020-08-15T15:51:14Z</time>
      </trkpt>
      <trkpt lat="51.216866" lon="4.535561">
        <ele>4.4</ele>
        <time>2020-08-15T15:51:16Z</time>
      </trkpt>
      <trkpt lat="51.216787" lon="4.535466">
        <ele>4.7</ele>
        <time>2020-08-15T15:51:19Z</time>
      </trkpt>
      <trkpt lat="51.216706" lon="4.535353">
        <ele>5.1</ele>
        <time>2020-08-15T15:51:22Z</time>
      </trkpt>
      <trkpt lat="51.216633" lon="4.535248">
        <ele>5.5</ele>
        <time>2020-08-15T15:51:25Z</time>
      </trkpt>
      <trkpt lat="51.216549" lon="4.535133">
        <ele>5.8</ele>
        <time>2020-08-15T15:51:28Z</time>
      </trkpt>
      <trkpt lat="51.21647" lon="4.535016">
        <ele>6.2</ele>
        <time>2020-08-15T15:51:31Z</time>
      </trkpt>
      <trkpt lat="51.216408" lon="4.534932">
        <ele>6.5</ele>
        <time>2020-08-15T15:51:33Z</time>
      </trkpt>
      <trkpt lat="51.216336" lon="4.534826">
        <ele>6.6</ele>
        <time>2020-08-15T15:51:35Z</time>
      </trkpt>
      <trkpt lat="51.216268" lon="4.534721">
        <ele>6.8</ele>
        <time>2020-08-15T15:51:37Z</time>
      </trkpt>
      <trkpt lat="51.21619" lon="4.534589">
        <ele>7</ele>
        <time>2020-08-15T15:51:40Z</time>
      </trkpt>
      <trkpt lat="51.216127" lon="4.534481">
        <ele>7.1</ele>
        <time>2020-08-15T15:51:42Z</time>
      </trkpt>
      <trkpt lat="51.216048" lon="4.534348">
        <ele>7.2</ele>
        <time>2020-08-15T15:51:45Z</time>
      </trkpt>
      <trkpt lat="51.215994" lon="4.534252">
        <ele>7.1</ele>
        <time>2020-08-15T15:51:47Z</time>
      </trkpt>
      <trkpt lat="51.215911" lon="4.534154">
        <ele>6.9</ele>
        <time>2020-08-15T15:51:50Z</time>
      </trkpt>
      <trkpt lat="51.215862" lon="4.534019">
        <ele>6.7</ele>
        <time>2020-08-15T15:51:53Z</time>
      </trkpt>
      <trkpt lat="51.215834" lon="4.533894">
        <ele>6.6</ele>
        <time>2020-08-15T15:51:57Z</time>
      </trkpt>
      <trkpt lat="51.215807" lon="4.533758">
        <ele>6.5</ele>
        <time>2020-08-15T15:52:01Z</time>
      </trkpt>
      <trkpt lat="51.215784" lon="4.533608">
        <ele>6.5</ele>
        <time>2020-08-15T15:52:05Z</time>
      </trkpt>
      <trkpt lat="51.215741" lon="4.533452">
        <ele>6.6</ele>
        <time>2020-08-15T15:52:08Z</time>
      </trkpt>
      <trkpt lat="51.215695" lon="4.533298">
        <ele>6.8</ele>
        <time>2020-08-15T15:52:11Z</time>
      </trkpt>
      <trkpt lat="51.215644" lon="4.533131">
        <ele>7</ele>
        <time>2020-08-15T15:52:14Z</time>
      </trkpt>
      <trkpt lat="51.215617" lon="4.532997">
        <ele>7.2</ele>
        <time>2020-08-15T15:52:17Z</time>
      </trkpt>
      <trkpt lat="51.215585" lon="4.532855">
        <ele>7.3</ele>
        <time>2020-08-15T15:52:20Z</time>
      </trkpt>
      <trkpt lat="51.215557" lon="4.532695">
        <ele>7.5</ele>
        <time>2020-08-15T15:52:23Z</time>
      </trkpt>
      <trkpt lat="51.215522" lon="4.532506">
        <ele>7.6</ele>
        <time>2020-08-15T15:52:26Z</time>
      </trkpt>
      <trkpt lat="51.215488" lon="4.532327">
        <ele>7.8</ele>
        <time>2020-08-15T15:52:29Z</time>
      </trkpt>
      <trkpt lat="51.215458" lon="4.532166">
        <ele>7.9</ele>
        <time>2020-08-15T15:52:32Z</time>
      </trkpt>
      <trkpt lat="51.215423" lon="4.532002">
        <ele>7.9</ele>
        <time>2020-08-15T15:52:35Z</time>
      </trkpt>
      <trkpt lat="51.215395" lon="4.531846">
        <ele>7.8</ele>
        <time>2020-08-15T15:52:38Z</time>
      </trkpt>
      <trkpt lat="51.215381" lon="4.531701">
        <ele>7.7</ele>
        <time>2020-08-15T15:52:41Z</time>
      </trkpt>
      <trkpt lat="51.215351" lon="4.531559">
        <ele>7.6</ele>
        <time>2020-08-15T15:52:44Z</time>
      </trkpt>
      <trkpt lat="51.215327" lon="4.531415">
        <ele>7.5</ele>
        <time>2020-08-15T15:52:47Z</time>
      </trkpt>
      <trkpt lat="51.215295" lon="4.531264">
        <ele>7.5</ele>
        <time>2020-08-15T15:52:50Z</time>
      </trkpt>
      <trkpt lat="51.215258" lon="4.531122">
        <ele>7.4</ele>
        <time>2020-08-15T15:52:53Z</time>
      </trkpt>
      <trkpt lat="51.215219" lon="4.530961">
        <ele>7.4</ele>
        <time>2020-08-15T15:52:56Z</time>
      </trkpt>
      <trkpt lat="51.215195" lon="4.530792">
        <ele>7.5</ele>
        <time>2020-08-15T15:52:59Z</time>
      </trkpt>
      <trkpt lat="51.215162" lon="4.530625">
        <ele>7.5</ele>
        <time>2020-08-15T15:53:02Z</time>
      </trkpt>
      <trkpt lat="51.215119" lon="4.530449">
        <ele>7.6</ele>
        <time>2020-08-15T15:53:05Z</time>
      </trkpt>
      <trkpt lat="51.215088" lon="4.530296">
        <ele>7.7</ele>
        <time>2020-08-15T15:53:08Z</time>
      </trkpt>
      <trkpt lat="51.215053" lon="4.530142">
        <ele>7.8</ele>
        <time>2020-08-15T15:53:11Z</time>
      </trkpt>
      <trkpt lat="51.215026" lon="4.529987">
        <ele>7.9</ele>
        <time>2020-08-15T15:53:14Z</time>
      </trkpt>
      <trkpt lat="51.214989" lon="4.529821">
        <ele>7.9</ele>
        <time>2020-08-15T15:53:17Z</time>
      </trkpt>
      <trkpt lat="51.214966" lon="4.529669">
        <ele>7.9</ele>
        <time>2020-08-15T15:53:20Z</time>
      </trkpt>
      <trkpt lat="51.214945" lon="4.529512">
        <ele>7.8</ele>
        <time>2020-08-15T15:53:23Z</time>
      </trkpt>
      <trkpt lat="51.214919" lon="4.529368">
        <ele>7.8</ele>
        <time>2020-08-15T15:53:26Z</time>
      </trkpt>
      <trkpt lat="51.214891" lon="4.529221">
        <ele>7.7</ele>
        <time>2020-08-15T15:53:29Z</time>
      </trkpt>
      <trkpt lat="51.214853" lon="4.529072">
        <ele>7.6</ele>
        <time>2020-08-15T15:53:32Z</time>
      </trkpt>
      <trkpt lat="51.214822" lon="4.528908">
        <ele>7.5</ele>
        <time>2020-08-15T15:53:35Z</time>
      </trkpt>
      <trkpt lat="51.214791" lon="4.528751">
        <ele>7.3</ele>
        <time>2020-08-15T15:53:38Z</time>
      </trkpt>
      <trkpt lat="51.21476" lon="4.528598">
        <ele>7.1</ele>
        <time>2020-08-15T15:53:41Z</time>
      </trkpt>
      <trkpt lat="51.214726" lon="4.52844">
        <ele>6.9</ele>
        <time>2020-08-15T15:53:44Z</time>
      </trkpt>
      <trkpt lat="51.214692" lon="4.52829">
        <ele>6.7</ele>
        <time>2020-08-15T15:53:47Z</time>
      </trkpt>
      <trkpt lat="51.214668" lon="4.528147">
        <ele>6.5</ele>
        <time>2020-08-15T15:53:50Z</time>
      </trkpt>
      <trkpt lat="51.21465" lon="4.528013">
        <ele>6.3</ele>
        <time>2020-08-15T15:53:53Z</time>
      </trkpt>
      <trkpt lat="51.214621" lon="4.527868">
        <ele>6.1</ele>
        <time>2020-08-15T15:53:57Z</time>
      </trkpt>
      <trkpt lat="51.214658" lon="4.527745">
        <ele>5.8</ele>
        <time>2020-08-15T15:54:01Z</time>
      </trkpt>
      <trkpt lat="51.214736" lon="4.527695">
        <ele>5.5</ele>
        <time>2020-08-15T15:54:04Z</time>
      </trkpt>
      <trkpt lat="51.214844" lon="4.527693">
        <ele>5.3</ele>
        <time>2020-08-15T15:54:07Z</time>
      </trkpt>
      <trkpt lat="51.214949" lon="4.527692">
        <ele>5.1</ele>
        <time>2020-08-15T15:54:10Z</time>
      </trkpt>
      <trkpt lat="51.21505" lon="4.527679">
        <ele>4.9</ele>
        <time>2020-08-15T15:54:13Z</time>
      </trkpt>
      <trkpt lat="51.215148" lon="4.527645">
        <ele>4.7</ele>
        <time>2020-08-15T15:54:16Z</time>
      </trkpt>
      <trkpt lat="51.215257" lon="4.527618">
        <ele>4.5</ele>
        <time>2020-08-15T15:54:19Z</time>
      </trkpt>
      <trkpt lat="51.215368" lon="4.527579">
        <ele>4.4</ele>
        <time>2020-08-15T15:54:22Z</time>
      </trkpt>
      <trkpt lat="51.215469" lon="4.52753">
        <ele>4.1</ele>
        <time>2020-08-15T15:54:25Z</time>
      </trkpt>
      <trkpt lat="51.215573" lon="4.527473">
        <ele>3.9</ele>
        <time>2020-08-15T15:54:28Z</time>
      </trkpt>
      <trkpt lat="51.215678" lon="4.527426">
        <ele>3.7</ele>
        <time>2020-08-15T15:54:31Z</time>
      </trkpt>
      <trkpt lat="51.215789" lon="4.527379">
        <ele>3.5</ele>
        <time>2020-08-15T15:54:34Z</time>
      </trkpt>
      <trkpt lat="51.215868" lon="4.527352">
        <ele>3.4</ele>
        <time>2020-08-15T15:54:36Z</time>
      </trkpt>
      <trkpt lat="51.215982" lon="4.527312">
        <ele>3.2</ele>
        <time>2020-08-15T15:54:39Z</time>
      </trkpt>
      <trkpt lat="51.216086" lon="4.527269">
        <ele>3</ele>
        <time>2020-08-15T15:54:42Z</time>
      </trkpt>
      <trkpt lat="51.216186" lon="4.527227">
        <ele>2.8</ele>
        <time>2020-08-15T15:54:45Z</time>
      </trkpt>
      <trkpt lat="51.216291" lon="4.52719">
        <ele>2.6</ele>
        <time>2020-08-15T15:54:48Z</time>
      </trkpt>
      <trkpt lat="51.216393" lon="4.527143">
        <ele>2.5</ele>
        <time>2020-08-15T15:54:51Z</time>
      </trkpt>
      <trkpt lat="51.21649" lon="4.527103">
        <ele>2.3</ele>
        <time>2020-08-15T15:54:54Z</time>
      </trkpt>
      <trkpt lat="51.216612" lon="4.527059">
        <ele>2.3</ele>
        <time>2020-08-15T15:54:58Z</time>
      </trkpt>
      <trkpt lat="51.216723" lon="4.527027">
        <ele>2.3</ele>
        <time>2020-08-15T15:55:01Z</time>
      </trkpt>
      <trkpt lat="51.216827" lon="4.526998">
        <ele>2.3</ele>
        <time>2020-08-15T15:55:04Z</time>
      </trkpt>
      <trkpt lat="51.216937" lon="4.526967">
        <ele>2.5</ele>
        <time>2020-08-15T15:55:07Z</time>
      </trkpt>
      <trkpt lat="51.217037" lon="4.526939">
        <ele>2.6</ele>
        <time>2020-08-15T15:55:10Z</time>
      </trkpt>
      <trkpt lat="51.21713" lon="4.526908">
        <ele>2.8</ele>
        <time>2020-08-15T15:55:13Z</time>
      </trkpt>
      <trkpt lat="51.217218" lon="4.526872">
        <ele>2.9</ele>
        <time>2020-08-15T15:55:16Z</time>
      </trkpt>
      <trkpt lat="51.217308" lon="4.526846">
        <ele>3</ele>
        <time>2020-08-15T15:55:19Z</time>
      </trkpt>
      <trkpt lat="51.217399" lon="4.526814">
        <ele>3.1</ele>
        <time>2020-08-15T15:55:22Z</time>
      </trkpt>
      <trkpt lat="51.217486" lon="4.526783">
        <ele>3.2</ele>
        <time>2020-08-15T15:55:25Z</time>
      </trkpt>
      <trkpt lat="51.217573" lon="4.526748">
        <ele>3.2</ele>
        <time>2020-08-15T15:55:29Z</time>
      </trkpt>
      <trkpt lat="51.217679" lon="4.52671">
        <ele>3.2</ele>
        <time>2020-08-15T15:55:33Z</time>
      </trkpt>
      <trkpt lat="51.217771" lon="4.526673">
        <ele>3.2</ele>
        <time>2020-08-15T15:55:36Z</time>
      </trkpt>
      <trkpt lat="51.217872" lon="4.526651">
        <ele>3.2</ele>
        <time>2020-08-15T15:55:39Z</time>
      </trkpt>
      <trkpt lat="51.217968" lon="4.526628">
        <ele>3.2</ele>
        <time>2020-08-15T15:55:42Z</time>
      </trkpt>
      <trkpt lat="51.218063" lon="4.526597">
        <ele>3.2</ele>
        <time>2020-08-15T15:55:45Z</time>
      </trkpt>
      <trkpt lat="51.218155" lon="4.52656">
        <ele>3.2</ele>
        <time>2020-08-15T15:55:48Z</time>
      </trkpt>
      <trkpt lat="51.218255" lon="4.526514">
        <ele>3.2</ele>
        <time>2020-08-15T15:55:51Z</time>
      </trkpt>
      <trkpt lat="51.218357" lon="4.526474">
        <ele>3.2</ele>
        <time>2020-08-15T15:55:54Z</time>
      </trkpt>
      <trkpt lat="51.218457" lon="4.526429">
        <ele>3.2</ele>
        <time>2020-08-15T15:55:57Z</time>
      </trkpt>
      <trkpt lat="51.218551" lon="4.526397">
        <ele>3.3</ele>
        <time>2020-08-15T15:56:00Z</time>
      </trkpt>
      <trkpt lat="51.218654" lon="4.526366">
        <ele>3.5</ele>
        <time>2020-08-15T15:56:03Z</time>
      </trkpt>
      <trkpt lat="51.21876" lon="4.526333">
        <ele>3.5</ele>
        <time>2020-08-15T15:56:06Z</time>
      </trkpt>
      <trkpt lat="51.218868" lon="4.526308">
        <ele>3.6</ele>
        <time>2020-08-15T15:56:09Z</time>
      </trkpt>
      <trkpt lat="51.218974" lon="4.526275">
        <ele>3.7</ele>
        <time>2020-08-15T15:56:12Z</time>
      </trkpt>
      <trkpt lat="51.219078" lon="4.526237">
        <ele>3.7</ele>
        <time>2020-08-15T15:56:15Z</time>
      </trkpt>
      <trkpt lat="51.219177" lon="4.526197">
        <ele>3.8</ele>
        <time>2020-08-15T15:56:18Z</time>
      </trkpt>
      <trkpt lat="51.219268" lon="4.526157">
        <ele>3.9</ele>
        <time>2020-08-15T15:56:21Z</time>
      </trkpt>
      <trkpt lat="51.219359" lon="4.526126">
        <ele>4.1</ele>
        <time>2020-08-15T15:56:24Z</time>
      </trkpt>
      <trkpt lat="51.219447" lon="4.526096">
        <ele>4.3</ele>
        <time>2020-08-15T15:56:27Z</time>
      </trkpt>
      <trkpt lat="51.219536" lon="4.526068">
        <ele>4.5</ele>
        <time>2020-08-15T15:56:30Z</time>
      </trkpt>
      <trkpt lat="51.219619" lon="4.526029">
        <ele>4.5</ele>
        <time>2020-08-15T15:56:33Z</time>
      </trkpt>
      <trkpt lat="51.219701" lon="4.525983">
        <ele>4.5</ele>
        <time>2020-08-15T15:56:36Z</time>
      </trkpt>
      <trkpt lat="51.219786" lon="4.525955">
        <ele>4.5</ele>
        <time>2020-08-15T15:56:39Z</time>
      </trkpt>
      <trkpt lat="51.219871" lon="4.525932">
        <ele>4.4</ele>
        <time>2020-08-15T15:56:42Z</time>
      </trkpt>
      <trkpt lat="51.219962" lon="4.525897">
        <ele>4.4</ele>
        <time>2020-08-15T15:56:45Z</time>
      </trkpt>
      <trkpt lat="51.220046" lon="4.525862">
        <ele>4.4</ele>
        <time>2020-08-15T15:56:48Z</time>
      </trkpt>
      <trkpt lat="51.220143" lon="4.525828">
        <ele>4.3</ele>
        <time>2020-08-15T15:56:52Z</time>
      </trkpt>
      <trkpt lat="51.220239" lon="4.525807">
        <ele>4.3</ele>
        <time>2020-08-15T15:56:58Z</time>
      </trkpt>
      <trkpt lat="51.220343" lon="4.52577">
        <ele>4.4</ele>
        <time>2020-08-15T15:57:02Z</time>
      </trkpt>
      <trkpt lat="51.220437" lon="4.525736">
        <ele>4.5</ele>
        <time>2020-08-15T15:57:06Z</time>
      </trkpt>
      <trkpt lat="51.220521" lon="4.5257">
        <ele>4.5</ele>
        <time>2020-08-15T15:57:10Z</time>
      </trkpt>
      <trkpt lat="51.220609" lon="4.525675">
        <ele>4.6</ele>
        <time>2020-08-15T15:57:14Z</time>
      </trkpt>
      <trkpt lat="51.220694" lon="4.525647">
        <ele>4.7</ele>
        <time>2020-08-15T15:57:18Z</time>
      </trkpt>
      <trkpt lat="51.220779" lon="4.525598">
        <ele>4.9</ele>
        <time>2020-08-15T15:57:22Z</time>
      </trkpt>
      <trkpt lat="51.220876" lon="4.525556">
        <ele>5</ele>
        <time>2020-08-15T15:57:26Z</time>
      </trkpt>
      <trkpt lat="51.220962" lon="4.52551">
        <ele>5</ele>
        <time>2020-08-15T15:57:29Z</time>
      </trkpt>
      <trkpt lat="51.221045" lon="4.525463">
        <ele>5</ele>
        <time>2020-08-15T15:57:32Z</time>
      </trkpt>
      <trkpt lat="51.22113" lon="4.525404">
        <ele>5.1</ele>
        <time>2020-08-15T15:57:35Z</time>
      </trkpt>
      <trkpt lat="51.221236" lon="4.525341">
        <ele>5.1</ele>
        <time>2020-08-15T15:57:38Z</time>
      </trkpt>
      <trkpt lat="51.221331" lon="4.52528">
        <ele>5</ele>
        <time>2020-08-15T15:57:41Z</time>
      </trkpt>
      <trkpt lat="51.221409" lon="4.525217">
        <ele>5</ele>
        <time>2020-08-15T15:57:44Z</time>
      </trkpt>
      <trkpt lat="51.221482" lon="4.525155">
        <ele>5</ele>
        <time>2020-08-15T15:57:47Z</time>
      </trkpt>
      <trkpt lat="51.221558" lon="4.525082">
        <ele>5</ele>
        <time>2020-08-15T15:57:50Z</time>
      </trkpt>
      <trkpt lat="51.221632" lon="4.525022">
        <ele>5.1</ele>
        <time>2020-08-15T15:57:53Z</time>
      </trkpt>
      <trkpt lat="51.221691" lon="4.524927">
        <ele>5.2</ele>
        <time>2020-08-15T15:57:56Z</time>
      </trkpt>
      <trkpt lat="51.221743" lon="4.524764">
        <ele>5.3</ele>
        <time>2020-08-15T15:57:59Z</time>
      </trkpt>
      <trkpt lat="51.221815" lon="4.52466">
        <ele>5.4</ele>
        <time>2020-08-15T15:58:02Z</time>
      </trkpt>
      <trkpt lat="51.221903" lon="4.524563">
        <ele>5.4</ele>
        <time>2020-08-15T15:58:05Z</time>
      </trkpt>
      <trkpt lat="51.22198" lon="4.524473">
        <ele>5.3</ele>
        <time>2020-08-15T15:58:08Z</time>
      </trkpt>
      <trkpt lat="51.222051" lon="4.524378">
        <ele>5.1</ele>
        <time>2020-08-15T15:58:11Z</time>
      </trkpt>
      <trkpt lat="51.222126" lon="4.524294">
        <ele>5</ele>
        <time>2020-08-15T15:58:14Z</time>
      </trkpt>
      <trkpt lat="51.222202" lon="4.524176">
        <ele>4.8</ele>
        <time>2020-08-15T15:58:17Z</time>
      </trkpt>
      <trkpt lat="51.222287" lon="4.524061">
        <ele>4.6</ele>
        <time>2020-08-15T15:58:20Z</time>
      </trkpt>
      <trkpt lat="51.222386" lon="4.523965">
        <ele>4.5</ele>
        <time>2020-08-15T15:58:23Z</time>
      </trkpt>
      <trkpt lat="51.222483" lon="4.523868">
        <ele>4.5</ele>
        <time>2020-08-15T15:58:26Z</time>
      </trkpt>
      <trkpt lat="51.222587" lon="4.523798">
        <ele>4.5</ele>
        <time>2020-08-15T15:58:29Z</time>
      </trkpt>
      <trkpt lat="51.222678" lon="4.52371">
        <ele>4.5</ele>
        <time>2020-08-15T15:58:32Z</time>
      </trkpt>
      <trkpt lat="51.222769" lon="4.523616">
        <ele>4.5</ele>
        <time>2020-08-15T15:58:35Z</time>
      </trkpt>
      <trkpt lat="51.222852" lon="4.523516">
        <ele>4.5</ele>
        <time>2020-08-15T15:58:38Z</time>
      </trkpt>
      <trkpt lat="51.22292" lon="4.523424">
        <ele>4.5</ele>
        <time>2020-08-15T15:58:41Z</time>
      </trkpt>
      <trkpt lat="51.223002" lon="4.523317">
        <ele>4.5</ele>
        <time>2020-08-15T15:58:44Z</time>
      </trkpt>
      <trkpt lat="51.223086" lon="4.523217">
        <ele>4.5</ele>
        <time>2020-08-15T15:58:47Z</time>
      </trkpt>
      <trkpt lat="51.223162" lon="4.52313">
        <ele>4.5</ele>
        <time>2020-08-15T15:58:50Z</time>
      </trkpt>
      <trkpt lat="51.223237" lon="4.523042">
        <ele>4.5</ele>
        <time>2020-08-15T15:58:53Z</time>
      </trkpt>
      <trkpt lat="51.223314" lon="4.522979">
        <ele>4.3</ele>
        <time>2020-08-15T15:58:56Z</time>
      </trkpt>
      <trkpt lat="51.223393" lon="4.522896">
        <ele>4.1</ele>
        <time>2020-08-15T15:58:59Z</time>
      </trkpt>
      <trkpt lat="51.223485" lon="4.522797">
        <ele>3.8</ele>
        <time>2020-08-15T15:59:02Z</time>
      </trkpt>
      <trkpt lat="51.223585" lon="4.522701">
        <ele>3.6</ele>
        <time>2020-08-15T15:59:05Z</time>
      </trkpt>
      <trkpt lat="51.223675" lon="4.522598">
        <ele>3.5</ele>
        <time>2020-08-15T15:59:08Z</time>
      </trkpt>
      <trkpt lat="51.223756" lon="4.522516">
        <ele>3.4</ele>
        <time>2020-08-15T15:59:11Z</time>
      </trkpt>
      <trkpt lat="51.223822" lon="4.522431">
        <ele>3.4</ele>
        <time>2020-08-15T15:59:14Z</time>
      </trkpt>
      <trkpt lat="51.223898" lon="4.522359">
        <ele>3.4</ele>
        <time>2020-08-15T15:59:17Z</time>
      </trkpt>
      <trkpt lat="51.223974" lon="4.522283">
        <ele>3.5</ele>
        <time>2020-08-15T15:59:20Z</time>
      </trkpt>
      <trkpt lat="51.22404" lon="4.522203">
        <ele>3.5</ele>
        <time>2020-08-15T15:59:23Z</time>
      </trkpt>
      <trkpt lat="51.224109" lon="4.522122">
        <ele>3.7</ele>
        <time>2020-08-15T15:59:26Z</time>
      </trkpt>
      <trkpt lat="51.224178" lon="4.522043">
        <ele>3.8</ele>
        <time>2020-08-15T15:59:29Z</time>
      </trkpt>
      <trkpt lat="51.22425" lon="4.521983">
        <ele>3.9</ele>
        <time>2020-08-15T15:59:32Z</time>
      </trkpt>
      <trkpt lat="51.224333" lon="4.521921">
        <ele>4</ele>
        <time>2020-08-15T15:59:36Z</time>
      </trkpt>
      <trkpt lat="51.224415" lon="4.521871">
        <ele>4.2</ele>
        <time>2020-08-15T15:59:40Z</time>
      </trkpt>
      <trkpt lat="51.224513" lon="4.521814">
        <ele>4.4</ele>
        <time>2020-08-15T15:59:43Z</time>
      </trkpt>
      <trkpt lat="51.224596" lon="4.521765">
        <ele>4.5</ele>
        <time>2020-08-15T15:59:46Z</time>
      </trkpt>
      <trkpt lat="51.224676" lon="4.521727">
        <ele>4.6</ele>
        <time>2020-08-15T15:59:49Z</time>
      </trkpt>
      <trkpt lat="51.224771" lon="4.521675">
        <ele>4.7</ele>
        <time>2020-08-15T15:59:53Z</time>
      </trkpt>
      <trkpt lat="51.224869" lon="4.521637">
        <ele>4.7</ele>
        <time>2020-08-15T15:59:57Z</time>
      </trkpt>
      <trkpt lat="51.224967" lon="4.521592">
        <ele>4.8</ele>
        <time>2020-08-15T16:00:01Z</time>
      </trkpt>
      <trkpt lat="51.225064" lon="4.521581">
        <ele>4.9</ele>
        <time>2020-08-15T16:00:05Z</time>
      </trkpt>
      <trkpt lat="51.22509" lon="4.521729">
        <ele>5.1</ele>
        <time>2020-08-15T16:00:08Z</time>
      </trkpt>
      <trkpt lat="51.225114" lon="4.521879">
        <ele>5.3</ele>
        <time>2020-08-15T16:00:11Z</time>
      </trkpt>
      <trkpt lat="51.225135" lon="4.522019">
        <ele>5.5</ele>
        <time>2020-08-15T16:00:14Z</time>
      </trkpt>
      <trkpt lat="51.225173" lon="4.522177">
        <ele>5.5</ele>
        <time>2020-08-15T16:00:18Z</time>
      </trkpt>
      <trkpt lat="51.225206" lon="4.522312">
        <ele>5.6</ele>
        <time>2020-08-15T16:00:21Z</time>
      </trkpt>
      <trkpt lat="51.225243" lon="4.522463">
        <ele>5.8</ele>
        <time>2020-08-15T16:00:24Z</time>
      </trkpt>
      <trkpt lat="51.225283" lon="4.522598">
        <ele>6.1</ele>
        <time>2020-08-15T16:00:27Z</time>
      </trkpt>
      <trkpt lat="51.225324" lon="4.522739">
        <ele>6.4</ele>
        <time>2020-08-15T16:00:30Z</time>
      </trkpt>
      <trkpt lat="51.225362" lon="4.52287">
        <ele>6.7</ele>
        <time>2020-08-15T16:00:33Z</time>
      </trkpt>
      <trkpt lat="51.225388" lon="4.523009">
        <ele>7</ele>
        <time>2020-08-15T16:00:36Z</time>
      </trkpt>
      <trkpt lat="51.225423" lon="4.523153">
        <ele>7.2</ele>
        <time>2020-08-15T16:00:39Z</time>
      </trkpt>
      <trkpt lat="51.225465" lon="4.523303">
        <ele>7.4</ele>
        <time>2020-08-15T16:00:42Z</time>
      </trkpt>
      <trkpt lat="51.225506" lon="4.523448">
        <ele>7.5</ele>
        <time>2020-08-15T16:00:45Z</time>
      </trkpt>
      <trkpt lat="51.225583" lon="4.523557">
        <ele>7.7</ele>
        <time>2020-08-15T16:00:49Z</time>
      </trkpt>
      <trkpt lat="51.225662" lon="4.5236">
        <ele>7.9</ele>
        <time>2020-08-15T16:00:52Z</time>
      </trkpt>
      <trkpt lat="51.225744" lon="4.523648">
        <ele>8.1</ele>
        <time>2020-08-15T16:00:55Z</time>
      </trkpt>
      <trkpt lat="51.225838" lon="4.523713">
        <ele>8.2</ele>
        <time>2020-08-15T16:00:59Z</time>
      </trkpt>
      <trkpt lat="51.225934" lon="4.523777">
        <ele>8.2</ele>
        <time>2020-08-15T16:01:03Z</time>
      </trkpt>
      <trkpt lat="51.226014" lon="4.523817">
        <ele>8.2</ele>
        <time>2020-08-15T16:01:06Z</time>
      </trkpt>
      <trkpt lat="51.226097" lon="4.523841">
        <ele>8.1</ele>
        <time>2020-08-15T16:01:09Z</time>
      </trkpt>
      <trkpt lat="51.226193" lon="4.523856">
        <ele>8</ele>
        <time>2020-08-15T16:01:13Z</time>
      </trkpt>
      <trkpt lat="51.226287" lon="4.523858">
        <ele>7.9</ele>
        <time>2020-08-15T16:01:17Z</time>
      </trkpt>
      <trkpt lat="51.226371" lon="4.523844">
        <ele>7.8</ele>
        <time>2020-08-15T16:01:21Z</time>
      </trkpt>
      <trkpt lat="51.226459" lon="4.523812">
        <ele>7.7</ele>
        <time>2020-08-15T16:01:24Z</time>
      </trkpt>
      <trkpt lat="51.226551" lon="4.523765">
        <ele>7.6</ele>
        <time>2020-08-15T16:01:27Z</time>
      </trkpt>
      <trkpt lat="51.226628" lon="4.523707">
        <ele>7.5</ele>
        <time>2020-08-15T16:01:30Z</time>
      </trkpt>
      <trkpt lat="51.226711" lon="4.523743">
        <ele>7.5</ele>
        <time>2020-08-15T16:01:34Z</time>
      </trkpt>
      <trkpt lat="51.226724" lon="4.523929">
        <ele>7.4</ele>
        <time>2020-08-15T16:01:37Z</time>
      </trkpt>
      <trkpt lat="51.226733" lon="4.524058">
        <ele>7.3</ele>
        <time>2020-08-15T16:01:39Z</time>
      </trkpt>
      <trkpt lat="51.226744" lon="4.524222">
        <ele>7.2</ele>
        <time>2020-08-15T16:01:42Z</time>
      </trkpt>
      <trkpt lat="51.226827" lon="4.524281">
        <ele>7.1</ele>
        <time>2020-08-15T16:01:45Z</time>
      </trkpt>
      <trkpt lat="51.226927" lon="4.524232">
        <ele>7.1</ele>
        <time>2020-08-15T16:01:48Z</time>
      </trkpt>
      <trkpt lat="51.227021" lon="4.524181">
        <ele>7.2</ele>
        <time>2020-08-15T16:01:51Z</time>
      </trkpt>
      <trkpt lat="51.22712" lon="4.524154">
        <ele>7.3</ele>
        <time>2020-08-15T16:01:54Z</time>
      </trkpt>
      <trkpt lat="51.227216" lon="4.524103">
        <ele>7.4</ele>
        <time>2020-08-15T16:01:57Z</time>
      </trkpt>
      <trkpt lat="51.227301" lon="4.524029">
        <ele>7.5</ele>
        <time>2020-08-15T16:02:00Z</time>
      </trkpt>
      <trkpt lat="51.227388" lon="4.523954">
        <ele>7.7</ele>
        <time>2020-08-15T16:02:03Z</time>
      </trkpt>
      <trkpt lat="51.227474" lon="4.523927">
        <ele>7.9</ele>
        <time>2020-08-15T16:02:06Z</time>
      </trkpt>
      <trkpt lat="51.22758" lon="4.523914">
        <ele>8.1</ele>
        <time>2020-08-15T16:02:10Z</time>
      </trkpt>
      <trkpt lat="51.227655" lon="4.523962">
        <ele>8.3</ele>
        <time>2020-08-15T16:02:21Z</time>
      </trkpt>
      <trkpt lat="51.227747" lon="4.523956">
        <ele>8.5</ele>
        <time>2020-08-15T16:03:03Z</time>
      </trkpt>
      <trkpt lat="51.227791" lon="4.523814">
        <ele>8.6</ele>
        <time>2020-08-15T16:03:08Z</time>
      </trkpt>
      <trkpt lat="51.227739" lon="4.523674">
        <ele>8.7</ele>
        <time>2020-08-15T16:03:11Z</time>
      </trkpt>
      <trkpt lat="51.227697" lon="4.523536">
        <ele>8.8</ele>
        <time>2020-08-15T16:03:14Z</time>
      </trkpt>
      <trkpt lat="51.22766" lon="4.523401">
        <ele>8.9</ele>
        <time>2020-08-15T16:03:17Z</time>
      </trkpt>
      <trkpt lat="51.227632" lon="4.523257">
        <ele>9</ele>
        <time>2020-08-15T16:03:20Z</time>
      </trkpt>
      <trkpt lat="51.227601" lon="4.523118">
        <ele>9</ele>
        <time>2020-08-15T16:03:23Z</time>
      </trkpt>
      <trkpt lat="51.227561" lon="4.522988">
        <ele>9</ele>
        <time>2020-08-15T16:03:26Z</time>
      </trkpt>
      <trkpt lat="51.227525" lon="4.522845">
        <ele>9</ele>
        <time>2020-08-15T16:03:29Z</time>
      </trkpt>
      <trkpt lat="51.22749" lon="4.522679">
        <ele>9</ele>
        <time>2020-08-15T16:03:32Z</time>
      </trkpt>
      <trkpt lat="51.22747" lon="4.52253">
        <ele>9</ele>
        <time>2020-08-15T16:03:35Z</time>
      </trkpt>
      <trkpt lat="51.227453" lon="4.522402">
        <ele>9</ele>
        <time>2020-08-15T16:03:38Z</time>
      </trkpt>
      <trkpt lat="51.227421" lon="4.522243">
        <ele>8.9</ele>
        <time>2020-08-15T16:03:41Z</time>
      </trkpt>
      <trkpt lat="51.227398" lon="4.522082">
        <ele>8.8</ele>
        <time>2020-08-15T16:03:44Z</time>
      </trkpt>
      <trkpt lat="51.227379" lon="4.521939">
        <ele>8.7</ele>
        <time>2020-08-15T16:03:47Z</time>
      </trkpt>
      <trkpt lat="51.227365" lon="4.52178">
        <ele>8.5</ele>
        <time>2020-08-15T16:03:50Z</time>
      </trkpt>
      <trkpt lat="51.22735" lon="4.521607">
        <ele>8.4</ele>
        <time>2020-08-15T16:03:53Z</time>
      </trkpt>
      <trkpt lat="51.227318" lon="4.521436">
        <ele>8.2</ele>
        <time>2020-08-15T16:03:56Z</time>
      </trkpt>
      <trkpt lat="51.227288" lon="4.521288">
        <ele>8</ele>
        <time>2020-08-15T16:03:59Z</time>
      </trkpt>
      <trkpt lat="51.227278" lon="4.521134">
        <ele>7.9</ele>
        <time>2020-08-15T16:04:03Z</time>
      </trkpt>
      <trkpt lat="51.227385" lon="4.521118">
        <ele>7.8</ele>
        <time>2020-08-15T16:04:08Z</time>
      </trkpt>
      <trkpt lat="51.227495" lon="4.521189">
        <ele>7.7</ele>
        <time>2020-08-15T16:04:11Z</time>
      </trkpt>
      <trkpt lat="51.227593" lon="4.521213">
        <ele>7.6</ele>
        <time>2020-08-15T16:04:14Z</time>
      </trkpt>
      <trkpt lat="51.227678" lon="4.52123">
        <ele>7.6</ele>
        <time>2020-08-15T16:04:17Z</time>
      </trkpt>
      <trkpt lat="51.227763" lon="4.521311">
        <ele>7.6</ele>
        <time>2020-08-15T16:04:21Z</time>
      </trkpt>
      <trkpt lat="51.227851" lon="4.521319">
        <ele>7.6</ele>
        <time>2020-08-15T16:04:24Z</time>
      </trkpt>
      <trkpt lat="51.227941" lon="4.521307">
        <ele>7.7</ele>
        <time>2020-08-15T16:04:27Z</time>
      </trkpt>
      <trkpt lat="51.228047" lon="4.521291">
        <ele>7.8</ele>
        <time>2020-08-15T16:04:31Z</time>
      </trkpt>
      <trkpt lat="51.228132" lon="4.521281">
        <ele>7.9</ele>
        <time>2020-08-15T16:04:34Z</time>
      </trkpt>
      <trkpt lat="51.228218" lon="4.52125">
        <ele>8</ele>
        <time>2020-08-15T16:04:37Z</time>
      </trkpt>
      <trkpt lat="51.228309" lon="4.521216">
        <ele>8</ele>
        <time>2020-08-15T16:04:40Z</time>
      </trkpt>
      <trkpt lat="51.228388" lon="4.521267">
        <ele>8</ele>
        <time>2020-08-15T16:04:43Z</time>
      </trkpt>
      <trkpt lat="51.228461" lon="4.521362">
        <ele>8</ele>
        <time>2020-08-15T16:04:46Z</time>
      </trkpt>
      <trkpt lat="51.228543" lon="4.52146">
        <ele>8</ele>
        <time>2020-08-15T16:04:49Z</time>
      </trkpt>
      <trkpt lat="51.228623" lon="4.521547">
        <ele>8</ele>
        <time>2020-08-15T16:04:52Z</time>
      </trkpt>
      <trkpt lat="51.228692" lon="4.521621">
        <ele>8</ele>
        <time>2020-08-15T16:04:55Z</time>
      </trkpt>
      <trkpt lat="51.228766" lon="4.521693">
        <ele>8</ele>
        <time>2020-08-15T16:04:59Z</time>
      </trkpt>
      <trkpt lat="51.228865" lon="4.521685">
        <ele>8</ele>
        <time>2020-08-15T16:05:03Z</time>
      </trkpt>
      <trkpt lat="51.22896" lon="4.52168">
        <ele>8</ele>
        <time>2020-08-15T16:05:07Z</time>
      </trkpt>
      <trkpt lat="51.229046" lon="4.521698">
        <ele>8</ele>
        <time>2020-08-15T16:05:11Z</time>
      </trkpt>
      <trkpt lat="51.229143" lon="4.521734">
        <ele>7.9</ele>
        <time>2020-08-15T16:05:15Z</time>
      </trkpt>
      <trkpt lat="51.229232" lon="4.521732">
        <ele>7.8</ele>
        <time>2020-08-15T16:05:18Z</time>
      </trkpt>
      <trkpt lat="51.229316" lon="4.521739">
        <ele>7.7</ele>
        <time>2020-08-15T16:05:21Z</time>
      </trkpt>
      <trkpt lat="51.229396" lon="4.521768">
        <ele>7.6</ele>
        <time>2020-08-15T16:05:24Z</time>
      </trkpt>
      <trkpt lat="51.229498" lon="4.521768">
        <ele>7.5</ele>
        <time>2020-08-15T16:05:28Z</time>
      </trkpt>
      <trkpt lat="51.2296" lon="4.521749">
        <ele>7.4</ele>
        <time>2020-08-15T16:05:32Z</time>
      </trkpt>
      <trkpt lat="51.229682" lon="4.521692">
        <ele>7.2</ele>
        <time>2020-08-15T16:05:35Z</time>
      </trkpt>
      <trkpt lat="51.229758" lon="4.521643">
        <ele>7</ele>
        <time>2020-08-15T16:05:38Z</time>
      </trkpt>
      <trkpt lat="51.229842" lon="4.521601">
        <ele>6.7</ele>
        <time>2020-08-15T16:05:42Z</time>
      </trkpt>
      <trkpt lat="51.229949" lon="4.521569">
        <ele>6.5</ele>
        <time>2020-08-15T16:05:46Z</time>
      </trkpt>
      <trkpt lat="51.230039" lon="4.521543">
        <ele>6.2</ele>
        <time>2020-08-15T16:05:49Z</time>
      </trkpt>
      <trkpt lat="51.230124" lon="4.521509">
        <ele>6</ele>
        <time>2020-08-15T16:05:52Z</time>
      </trkpt>
      <trkpt lat="51.230225" lon="4.521484">
        <ele>5.8</ele>
        <time>2020-08-15T16:05:55Z</time>
      </trkpt>
      <trkpt lat="51.230312" lon="4.521467">
        <ele>5.7</ele>
        <time>2020-08-15T16:05:58Z</time>
      </trkpt>
      <trkpt lat="51.23041" lon="4.521425">
        <ele>5.6</ele>
        <time>2020-08-15T16:06:02Z</time>
      </trkpt>
      <trkpt lat="51.230495" lon="4.521381">
        <ele>5.5</ele>
        <time>2020-08-15T16:06:06Z</time>
      </trkpt>
      <trkpt lat="51.230596" lon="4.52135">
        <ele>5.5</ele>
        <time>2020-08-15T16:06:10Z</time>
      </trkpt>
      <trkpt lat="51.230684" lon="4.521323">
        <ele>5.4</ele>
        <time>2020-08-15T16:06:13Z</time>
      </trkpt>
      <trkpt lat="51.230776" lon="4.521283">
        <ele>5.3</ele>
        <time>2020-08-15T16:06:17Z</time>
      </trkpt>
      <trkpt lat="51.230876" lon="4.521211">
        <ele>5.3</ele>
        <time>2020-08-15T16:06:20Z</time>
      </trkpt>
      <trkpt lat="51.230954" lon="4.521169">
        <ele>5.3</ele>
        <time>2020-08-15T16:06:23Z</time>
      </trkpt>
      <trkpt lat="51.231052" lon="4.521127">
        <ele>5.3</ele>
        <time>2020-08-15T16:06:27Z</time>
      </trkpt>
      <trkpt lat="51.231135" lon="4.521098">
        <ele>5.2</ele>
        <time>2020-08-15T16:06:30Z</time>
      </trkpt>
      <trkpt lat="51.23122" lon="4.52106">
        <ele>5.1</ele>
        <time>2020-08-15T16:06:33Z</time>
      </trkpt>
      <trkpt lat="51.231318" lon="4.521019">
        <ele>4.9</ele>
        <time>2020-08-15T16:06:37Z</time>
      </trkpt>
      <trkpt lat="51.231416" lon="4.521015">
        <ele>4.7</ele>
        <time>2020-08-15T16:06:41Z</time>
      </trkpt>
      <trkpt lat="51.231497" lon="4.521088">
        <ele>4.5</ele>
        <time>2020-08-15T16:06:44Z</time>
      </trkpt>
      <trkpt lat="51.231582" lon="4.521153">
        <ele>4.5</ele>
        <time>2020-08-15T16:06:47Z</time>
      </trkpt>
      <trkpt lat="51.231661" lon="4.521206">
        <ele>4.4</ele>
        <time>2020-08-15T16:06:50Z</time>
      </trkpt>
      <trkpt lat="51.231753" lon="4.521212">
        <ele>4.3</ele>
        <time>2020-08-15T16:06:54Z</time>
      </trkpt>
      <trkpt lat="51.231803" lon="4.521073">
        <ele>4.2</ele>
        <time>2020-08-15T16:06:58Z</time>
      </trkpt>
      <trkpt lat="51.231831" lon="4.520931">
        <ele>4.2</ele>
        <time>2020-08-15T16:07:02Z</time>
      </trkpt>
      <trkpt lat="51.23186" lon="4.520796">
        <ele>4.1</ele>
        <time>2020-08-15T16:07:06Z</time>
      </trkpt>
      <trkpt lat="51.231906" lon="4.520683">
        <ele>4.1</ele>
        <time>2020-08-15T16:07:10Z</time>
      </trkpt>
      <trkpt lat="51.231952" lon="4.520553">
        <ele>4.1</ele>
        <time>2020-08-15T16:07:14Z</time>
      </trkpt>
      <trkpt lat="51.231995" lon="4.520431">
        <ele>4.2</ele>
        <time>2020-08-15T16:07:17Z</time>
      </trkpt>
      <trkpt lat="51.232044" lon="4.520306">
        <ele>4.3</ele>
        <time>2020-08-15T16:07:20Z</time>
      </trkpt>
      <trkpt lat="51.232085" lon="4.520181">
        <ele>4.4</ele>
        <time>2020-08-15T16:07:23Z</time>
      </trkpt>
      <trkpt lat="51.23213" lon="4.520045">
        <ele>4.5</ele>
        <time>2020-08-15T16:07:27Z</time>
      </trkpt>
      <trkpt lat="51.232173" lon="4.519916">
        <ele>4.5</ele>
        <time>2020-08-15T16:07:31Z</time>
      </trkpt>
      <trkpt lat="51.232206" lon="4.519798">
        <ele>4.7</ele>
        <time>2020-08-15T16:07:34Z</time>
      </trkpt>
      <trkpt lat="51.232246" lon="4.519673">
        <ele>4.8</ele>
        <time>2020-08-15T16:07:37Z</time>
      </trkpt>
      <trkpt lat="51.232288" lon="4.519549">
        <ele>4.8</ele>
        <time>2020-08-15T16:07:40Z</time>
      </trkpt>
      <trkpt lat="51.232324" lon="4.519429">
        <ele>4.9</ele>
        <time>2020-08-15T16:07:43Z</time>
      </trkpt>
      <trkpt lat="51.232364" lon="4.519308">
        <ele>5</ele>
        <time>2020-08-15T16:07:46Z</time>
      </trkpt>
      <trkpt lat="51.232401" lon="4.519181">
        <ele>5</ele>
        <time>2020-08-15T16:07:49Z</time>
      </trkpt>
      <trkpt lat="51.232438" lon="4.519063">
        <ele>4.9</ele>
        <time>2020-08-15T16:07:52Z</time>
      </trkpt>
      <trkpt lat="51.232476" lon="4.518938">
        <ele>4.8</ele>
        <time>2020-08-15T16:07:55Z</time>
      </trkpt>
      <trkpt lat="51.232507" lon="4.518811">
        <ele>4.7</ele>
        <time>2020-08-15T16:07:58Z</time>
      </trkpt>
      <trkpt lat="51.232567" lon="4.518681">
        <ele>4.6</ele>
        <time>2020-08-15T16:08:02Z</time>
      </trkpt>
      <trkpt lat="51.232617" lon="4.518533">
        <ele>4.6</ele>
        <time>2020-08-15T16:08:06Z</time>
      </trkpt>
      <trkpt lat="51.232665" lon="4.518388">
        <ele>4.5</ele>
        <time>2020-08-15T16:08:10Z</time>
      </trkpt>
      <trkpt lat="51.232709" lon="4.518245">
        <ele>4.4</ele>
        <time>2020-08-15T16:08:14Z</time>
      </trkpt>
      <trkpt lat="51.232753" lon="4.518098">
        <ele>4.3</ele>
        <time>2020-08-15T16:08:18Z</time>
      </trkpt>
      <trkpt lat="51.232793" lon="4.517944">
        <ele>4.1</ele>
        <time>2020-08-15T16:08:22Z</time>
      </trkpt>
      <trkpt lat="51.232831" lon="4.517794">
        <ele>3.9</ele>
        <time>2020-08-15T16:08:26Z</time>
      </trkpt>
      <trkpt lat="51.232873" lon="4.517679">
        <ele>3.9</ele>
        <time>2020-08-15T16:08:29Z</time>
      </trkpt>
      <trkpt lat="51.232917" lon="4.517537">
        <ele>3.9</ele>
        <time>2020-08-15T16:08:33Z</time>
      </trkpt>
      <trkpt lat="51.232954" lon="4.517388">
        <ele>3.9</ele>
        <time>2020-08-15T16:08:37Z</time>
      </trkpt>
      <trkpt lat="51.232998" lon="4.517262">
        <ele>4</ele>
        <time>2020-08-15T16:08:40Z</time>
      </trkpt>
      <trkpt lat="51.233049" lon="4.517116">
        <ele>4.1</ele>
        <time>2020-08-15T16:08:43Z</time>
      </trkpt>
      <trkpt lat="51.233097" lon="4.516972">
        <ele>4.1</ele>
        <time>2020-08-15T16:08:46Z</time>
      </trkpt>
      <trkpt lat="51.233143" lon="4.516849">
        <ele>4.2</ele>
        <time>2020-08-15T16:08:49Z</time>
      </trkpt>
      <trkpt lat="51.233187" lon="4.516696">
        <ele>4.3</ele>
        <time>2020-08-15T16:08:53Z</time>
      </trkpt>
      <trkpt lat="51.233238" lon="4.516558">
        <ele>4.4</ele>
        <time>2020-08-15T16:08:57Z</time>
      </trkpt>
      <trkpt lat="51.23329" lon="4.516422">
        <ele>4.5</ele>
        <time>2020-08-15T16:09:01Z</time>
      </trkpt>
      <trkpt lat="51.23335" lon="4.516285">
        <ele>4.8</ele>
        <time>2020-08-15T16:09:05Z</time>
      </trkpt>
      <trkpt lat="51.233393" lon="4.516152">
        <ele>5</ele>
        <time>2020-08-15T16:09:08Z</time>
      </trkpt>
      <trkpt lat="51.233435" lon="4.516034">
        <ele>5.2</ele>
        <time>2020-08-15T16:09:11Z</time>
      </trkpt>
      <trkpt lat="51.23348" lon="4.515923">
        <ele>5.4</ele>
        <time>2020-08-15T16:09:14Z</time>
      </trkpt>
      <trkpt lat="51.233528" lon="4.515794">
        <ele>5.5</ele>
        <time>2020-08-15T16:09:17Z</time>
      </trkpt>
      <trkpt lat="51.233566" lon="4.51566">
        <ele>5.5</ele>
        <time>2020-08-15T16:09:20Z</time>
      </trkpt>
      <trkpt lat="51.233612" lon="4.515547">
        <ele>5.6</ele>
        <time>2020-08-15T16:09:23Z</time>
      </trkpt>
      <trkpt lat="51.233662" lon="4.515398">
        <ele>5.7</ele>
        <time>2020-08-15T16:09:26Z</time>
      </trkpt>
      <trkpt lat="51.23371" lon="4.515245">
        <ele>5.8</ele>
        <time>2020-08-15T16:09:29Z</time>
      </trkpt>
      <trkpt lat="51.233751" lon="4.515097">
        <ele>5.9</ele>
        <time>2020-08-15T16:09:32Z</time>
      </trkpt>
      <trkpt lat="51.233897" lon="4.51473">
        <ele>6</ele>
        <time>2020-08-15T16:09:42Z</time>
      </trkpt>
      <trkpt lat="51.233917" lon="4.514562">
        <ele>6</ele>
        <time>2020-08-15T16:09:45Z</time>
      </trkpt>
      <trkpt lat="51.233937" lon="4.51442">
        <ele>6</ele>
        <time>2020-08-15T16:09:48Z</time>
      </trkpt>
      <trkpt lat="51.233969" lon="4.514261">
        <ele>6</ele>
        <time>2020-08-15T16:09:52Z</time>
      </trkpt>
      <trkpt lat="51.234013" lon="4.514122">
        <ele>6</ele>
        <time>2020-08-15T16:09:55Z</time>
      </trkpt>
      <trkpt lat="51.234053" lon="4.513979">
        <ele>6</ele>
        <time>2020-08-15T16:09:58Z</time>
      </trkpt>
      <trkpt lat="51.234042" lon="4.513845">
        <ele>6</ele>
        <time>2020-08-15T16:10:01Z</time>
      </trkpt>
    </trkseg>
  </trk>
</gpx>